﻿<?xml version="1.0" encoding="utf-8"?><gpx creator="Garmin Desktop App" version="1.1" xsi:schemaLocation="http://www.topografix.com/GPX/1/1 http://www.topografix.com/GPX/1/1/gpx.xsd http://www.garmin.com/xmlschemas/WaypointExtension/v1 http://www8.garmin.com/xmlschemas/WaypointExtensionv1.xsd http://www.garmin.com/xmlschemas/TrackPointExtension/v1 http://www.garmin.com/xmlschemas/TrackPointExtensionv1.xsd http://www.garmin.com/xmlschemas/GpxExtensions/v3 http://www8.garmin.com/xmlschemas/GpxExtensionsv3.xsd http://www.garmin.com/xmlschemas/ActivityExtension/v1 http://www8.garmin.com/xmlschemas/ActivityExtensionv1.xsd http://www.garmin.com/xmlschemas/AdventuresExtensions/v1 http://www8.garmin.com/xmlschemas/AdventuresExtensionv1.xsd http://www.garmin.com/xmlschemas/PressureExtension/v1 http://www.garmin.com/xmlschemas/PressureExtensionv1.xsd http://www.garmin.com/xmlschemas/TripExtensions/v1 http://www.garmin.com/xmlschemas/TripExtensionsv1.xsd http://www.garmin.com/xmlschemas/TripMetaDataExtensions/v1 http://www.garmin.com/xmlschemas/TripMetaDataExtensionsv1.xsd http://www.garmin.com/xmlschemas/ViaPointTransportationModeExtensions/v1 http://www.garmin.com/xmlschemas/ViaPointTransportationModeExtensionsv1.xsd http://www.garmin.com/xmlschemas/CreationTimeExtension/v1 http://www.garmin.com/xmlschemas/CreationTimeExtensionsv1.xsd http://www.garmin.com/xmlschemas/AccelerationExtension/v1 http://www.garmin.com/xmlschemas/AccelerationExtensionv1.xsd http://www.garmin.com/xmlschemas/PowerExtension/v1 http://www.garmin.com/xmlschemas/PowerExtensionv1.xsd http://www.garmin.com/xmlschemas/VideoExtension/v1 http://www.garmin.com/xmlschemas/VideoExtensionv1.xsd" xmlns="http://www.topografix.com/GPX/1/1" xmlns:xsi="http://www.w3.org/2001/XMLSchema-instance" xmlns:wptx1="http://www.garmin.com/xmlschemas/WaypointExtension/v1" xmlns:gpxtrx="http://www.garmin.com/xmlschemas/GpxExtensions/v3" xmlns:gpxtpx="http://www.garmin.com/xmlschemas/TrackPointExtension/v1" xmlns:gpxx="http://www.garmin.com/xmlschemas/GpxExtensions/v3" xmlns:trp="http://www.garmin.com/xmlschemas/TripExtensions/v1" xmlns:adv="http://www.garmin.com/xmlschemas/AdventuresExtensions/v1" xmlns:prs="http://www.garmin.com/xmlschemas/PressureExtension/v1" xmlns:tmd="http://www.garmin.com/xmlschemas/TripMetaDataExtensions/v1" xmlns:vptm="http://www.garmin.com/xmlschemas/ViaPointTransportationModeExtensions/v1" xmlns:ctx="http://www.garmin.com/xmlschemas/CreationTimeExtension/v1" xmlns:gpxacc="http://www.garmin.com/xmlschemas/AccelerationExtension/v1" xmlns:gpxpx="http://www.garmin.com/xmlschemas/PowerExtension/v1" xmlns:vidx1="http://www.garmin.com/xmlschemas/VideoExtension/v1">

  <metadata>
    <link href="http://www.garmin.com">
      <text>Garmin International</text>
    </link>
    <time>2021-01-20T15:15:31Z</time>
    <bounds maxlat="46.042681932449341" maxlon="9.422880979254842" minlat="46.015441250056028" minlon="9.40267070196569" />
  </metadata>

  <trk>
    <name>cima d'olino2018-01-21</name>
    <extensions>
      <gpxx:TrackExtension>
        <gpxx:DisplayColor>Yellow</gpxx:DisplayColor>
      </gpxx:TrackExtension>
      <gpxtrkx:TrackStatsExtension xmlns:gpxtrkx="http://www.garmin.com/xmlschemas/TrackStatsExtension/v1">
        <gpxtrkx:Distance>10344</gpxtrkx:Distance>
        <gpxtrkx:TotalElapsedTime>16539</gpxtrkx:TotalElapsedTime>
        <gpxtrkx:MovingTime>11436</gpxtrkx:MovingTime>
        <gpxtrkx:StoppedTime>4932</gpxtrkx:StoppedTime>
        <gpxtrkx:MovingSpeed>1</gpxtrkx:MovingSpeed>
        <gpxtrkx:MaxSpeed>3</gpxtrkx:MaxSpeed>
        <gpxtrkx:MaxElevation>1755</gpxtrkx:MaxElevation>
        <gpxtrkx:MinElevation>1357</gpxtrkx:MinElevation>
        <gpxtrkx:Ascent>679</gpxtrkx:Ascent>
        <gpxtrkx:Descent>707</gpxtrkx:Descent>
        <gpxtrkx:AvgAscentRate>0</gpxtrkx:AvgAscentRate>
        <gpxtrkx:MaxAscentRate>1</gpxtrkx:MaxAscentRate>
        <gpxtrkx:AvgDescentRate>0</gpxtrkx:AvgDescentRate>
        <gpxtrkx:MaxDescentRate>-1</gpxtrkx:MaxDescentRate>
      </gpxtrkx:TrackStatsExtension>
    </extensions>
    <trkseg>
      <trkpt lat="46.039990838617086" lon="9.403709806501865">
        <ele>1387.8</ele>
        <time>2018-01-21T08:57:30Z</time>
      </trkpt>
      <trkpt lat="46.039982791990042" lon="9.403705364093185">
        <ele>1387.8</ele>
        <time>2018-01-21T08:57:31Z</time>
      </trkpt>
      <trkpt lat="46.039932165294886" lon="9.403713745996356">
        <ele>1386.8399999999999</ele>
        <time>2018-01-21T08:57:38Z</time>
      </trkpt>
      <trkpt lat="46.039913892745972" lon="9.403723971918225">
        <ele>1391.1700000000001</ele>
        <time>2018-01-21T08:57:40Z</time>
      </trkpt>
      <trkpt lat="46.039906516671181" lon="9.403722966089845">
        <ele>1389.72</ele>
        <time>2018-01-21T08:57:41Z</time>
      </trkpt>
      <trkpt lat="46.039887238293886" lon="9.403730677440763">
        <ele>1389.72</ele>
        <time>2018-01-21T08:57:44Z</time>
      </trkpt>
      <trkpt lat="46.039807610213757" lon="9.403777532279491">
        <ele>1390.2</ele>
        <time>2018-01-21T08:57:54Z</time>
      </trkpt>
      <trkpt lat="46.03973058052361" lon="9.403821034356952">
        <ele>1391.6500000000001</ele>
        <time>2018-01-21T08:58:04Z</time>
      </trkpt>
      <trkpt lat="46.039651790633798" lon="9.403873169794679">
        <ele>1393.0899999999999</ele>
        <time>2018-01-21T08:58:13Z</time>
      </trkpt>
      <trkpt lat="46.039578532800078" lon="9.40391038544476">
        <ele>1394.53</ele>
        <time>2018-01-21T08:58:25Z</time>
      </trkpt>
      <trkpt lat="46.039482560008764" lon="9.403956150636077">
        <ele>1394.53</ele>
        <time>2018-01-21T08:58:36Z</time>
      </trkpt>
      <trkpt lat="46.039421120658517" lon="9.403999065980315">
        <ele>1395.01</ele>
        <time>2018-01-21T08:58:48Z</time>
      </trkpt>
      <trkpt lat="46.039350964128971" lon="9.404019769281149">
        <ele>1395.49</ele>
        <time>2018-01-21T08:58:59Z</time>
      </trkpt>
      <trkpt lat="46.039333613589406" lon="9.403996132314205">
        <ele>1395.49</ele>
        <time>2018-01-21T08:59:08Z</time>
      </trkpt>
      <trkpt lat="46.039332859218121" lon="9.403949864208698">
        <ele>1395.01</ele>
        <time>2018-01-21T08:59:24Z</time>
      </trkpt>
      <trkpt lat="46.039310982450843" lon="9.40398070961237">
        <ele>1394.53</ele>
        <time>2018-01-21T08:59:35Z</time>
      </trkpt>
      <trkpt lat="46.039235880598426" lon="9.404082130640745">
        <ele>1395.01</ele>
        <time>2018-01-21T08:59:44Z</time>
      </trkpt>
      <trkpt lat="46.039172597229481" lon="9.404115155339241">
        <ele>1395.49</ele>
        <time>2018-01-21T08:59:55Z</time>
      </trkpt>
      <trkpt lat="46.039126496762037" lon="9.40409017726779">
        <ele>1395.97</ele>
        <time>2018-01-21T09:00:12Z</time>
      </trkpt>
      <trkpt lat="46.039075283333659" lon="9.40410970710218">
        <ele>1397.4100000000001</ele>
        <time>2018-01-21T09:00:26Z</time>
      </trkpt>
      <trkpt lat="46.038992218673229" lon="9.404116244986653">
        <ele>1398.8599999999999</ele>
        <time>2018-01-21T09:00:39Z</time>
      </trkpt>
      <trkpt lat="46.038928180932999" lon="9.404102582484484">
        <ele>1399.8199999999999</ele>
        <time>2018-01-21T09:00:49Z</time>
      </trkpt>
      <trkpt lat="46.038871435448527" lon="9.404117418453097">
        <ele>1400.78</ele>
        <time>2018-01-21T09:00:58Z</time>
      </trkpt>
      <trkpt lat="46.038796668872237" lon="9.404169134795666">
        <ele>1402.22</ele>
        <time>2018-01-21T09:01:09Z</time>
      </trkpt>
      <trkpt lat="46.038759117946029" lon="9.404189419001341">
        <ele>1402.7</ele>
        <time>2018-01-21T09:01:17Z</time>
      </trkpt>
      <trkpt lat="46.038679992780089" lon="9.404184725135565">
        <ele>1403.6600000000001</ele>
        <time>2018-01-21T09:01:26Z</time>
      </trkpt>
      <trkpt lat="46.038579829037189" lon="9.404154969379306">
        <ele>1405.0999999999999</ele>
        <time>2018-01-21T09:01:36Z</time>
      </trkpt>
      <trkpt lat="46.038452256470919" lon="9.404060672968626">
        <ele>1406.55</ele>
        <time>2018-01-21T09:01:48Z</time>
      </trkpt>
      <trkpt lat="46.038438845425844" lon="9.404052039608359">
        <ele>1406.55</ele>
        <time>2018-01-21T09:01:50Z</time>
      </trkpt>
      <trkpt lat="46.038352679461241" lon="9.403945757076144">
        <ele>1407.99</ele>
        <time>2018-01-21T09:02:03Z</time>
      </trkpt>
      <trkpt lat="46.038263747468591" lon="9.403874846175313">
        <ele>1409.4300000000001</ele>
        <time>2018-01-21T09:02:14Z</time>
      </trkpt>
      <trkpt lat="46.038187807425857" lon="9.403835786506534">
        <ele>1410.3900000000001</ele>
        <time>2018-01-21T09:02:24Z</time>
      </trkpt>
      <trkpt lat="46.038151513785124" lon="9.403818771243095">
        <ele>1410.8699999999999</ele>
        <time>2018-01-21T09:02:40Z</time>
      </trkpt>
      <trkpt lat="46.038074316456914" lon="9.403835702687502">
        <ele>1412.3099999999999</ele>
        <time>2018-01-21T09:02:52Z</time>
      </trkpt>
      <trkpt lat="46.037987228482962" lon="9.403841989114881">
        <ele>1413.76</ele>
        <time>2018-01-21T09:03:02Z</time>
      </trkpt>
      <trkpt lat="46.037922436371446" lon="9.403838468715549">
        <ele>1414.72</ele>
        <time>2018-01-21T09:03:10Z</time>
      </trkpt>
      <trkpt lat="46.037824954837561" lon="9.403867218643427">
        <ele>1416.1600000000001</ele>
        <time>2018-01-21T09:03:22Z</time>
      </trkpt>
      <trkpt lat="46.037755804136395" lon="9.40390057861805">
        <ele>1416.6400000000001</ele>
        <time>2018-01-21T09:03:29Z</time>
      </trkpt>
      <trkpt lat="46.037652874365449" lon="9.403918012976646">
        <ele>1417.5999999999999</ele>
        <time>2018-01-21T09:03:40Z</time>
      </trkpt>
      <trkpt lat="46.037622783333063" lon="9.403921868652105">
        <ele>1418.5599999999999</ele>
        <time>2018-01-21T09:03:43Z</time>
      </trkpt>
      <trkpt lat="46.037559248507023" lon="9.403929663822055">
        <ele>1417.5999999999999</ele>
        <time>2018-01-21T09:03:49Z</time>
      </trkpt>
      <trkpt lat="46.037473250180483" lon="9.403962437063456">
        <ele>1417.1199999999999</ele>
        <time>2018-01-21T09:04:00Z</time>
      </trkpt>
      <trkpt lat="46.037392364814878" lon="9.403979117050767">
        <ele>1417.5999999999999</ele>
        <time>2018-01-21T09:04:19Z</time>
      </trkpt>
      <trkpt lat="46.037306785583496" lon="9.404031839221716">
        <ele>1418.0799999999999</ele>
        <time>2018-01-21T09:04:31Z</time>
      </trkpt>
      <trkpt lat="46.037215255200863" lon="9.404034772887826">
        <ele>1418.0799999999999</ele>
        <time>2018-01-21T09:04:42Z</time>
      </trkpt>
      <trkpt lat="46.037122048437595" lon="9.404039047658444">
        <ele>1418.0799999999999</ele>
        <time>2018-01-21T09:04:52Z</time>
      </trkpt>
      <trkpt lat="46.037065051496029" lon="9.404074586927891">
        <ele>1418.5599999999999</ele>
        <time>2018-01-21T09:04:59Z</time>
      </trkpt>
      <trkpt lat="46.03696153499186" lon="9.404108030721545">
        <ele>1418.5599999999999</ele>
        <time>2018-01-21T09:05:10Z</time>
      </trkpt>
      <trkpt lat="46.03690629824996" lon="9.40410970710218">
        <ele>1418.5599999999999</ele>
        <time>2018-01-21T09:05:15Z</time>
      </trkpt>
      <trkpt lat="46.036815186962485" lon="9.404116915538907">
        <ele>1418.5599999999999</ele>
        <time>2018-01-21T09:05:24Z</time>
      </trkpt>
      <trkpt lat="46.03674503043294" lon="9.404150526970625">
        <ele>1419.04</ele>
        <time>2018-01-21T09:05:33Z</time>
      </trkpt>
      <trkpt lat="46.036660876125097" lon="9.404197800904512">
        <ele>1422.4100000000001</ele>
        <time>2018-01-21T09:05:44Z</time>
      </trkpt>
      <trkpt lat="46.036615110933781" lon="9.40426217392087">
        <ele>1421.9300000000001</ele>
        <time>2018-01-21T09:05:53Z</time>
      </trkpt>
      <trkpt lat="46.036576386541128" lon="9.404309699311853">
        <ele>1422.8900000000001</ele>
        <time>2018-01-21T09:06:02Z</time>
      </trkpt>
      <trkpt lat="46.036536153405905" lon="9.404395362362266">
        <ele>1422.8900000000001</ele>
        <time>2018-01-21T09:06:13Z</time>
      </trkpt>
      <trkpt lat="46.036414783447981" lon="9.404504997655749">
        <ele>1422.8900000000001</ele>
        <time>2018-01-21T09:06:25Z</time>
      </trkpt>
      <trkpt lat="46.036319565027952" lon="9.404496615752578">
        <ele>1422.8900000000001</ele>
        <time>2018-01-21T09:06:35Z</time>
      </trkpt>
      <trkpt lat="46.036233901977539" lon="9.404529975727201">
        <ele>1422.4100000000001</ele>
        <time>2018-01-21T09:06:45Z</time>
      </trkpt>
      <trkpt lat="46.036180928349495" lon="9.404550259932876">
        <ele>1421.9300000000001</ele>
        <time>2018-01-21T09:06:50Z</time>
      </trkpt>
      <trkpt lat="46.036042459309101" lon="9.404614046216011">
        <ele>1421.45</ele>
        <time>2018-01-21T09:07:01Z</time>
      </trkpt>
      <trkpt lat="46.036028293892741" lon="9.404609519988298">
        <ele>1421.45</ele>
        <time>2018-01-21T09:07:02Z</time>
      </trkpt>
      <trkpt lat="46.03592025116086" lon="9.40456853248179">
        <ele>1422.4100000000001</ele>
        <time>2018-01-21T09:07:13Z</time>
      </trkpt>
      <trkpt lat="46.03586358949542" lon="9.404504662379623">
        <ele>1423.3699999999999</ele>
        <time>2018-01-21T09:07:22Z</time>
      </trkpt>
      <trkpt lat="46.0357765853405" lon="9.404478846117854">
        <ele>1424.3299999999999</ele>
        <time>2018-01-21T09:07:33Z</time>
      </trkpt>
      <trkpt lat="46.035697543993592" lon="9.404512457549572">
        <ele>1424.8099999999999</ele>
        <time>2018-01-21T09:07:43Z</time>
      </trkpt>
      <trkpt lat="46.03563635610044" lon="9.404534082859755">
        <ele>1424.3299999999999</ele>
        <time>2018-01-21T09:07:54Z</time>
      </trkpt>
      <trkpt lat="46.035548681393266" lon="9.404606418684125">
        <ele>1422.8900000000001</ele>
        <time>2018-01-21T09:08:05Z</time>
      </trkpt>
      <trkpt lat="46.035494115203619" lon="9.404595773667097">
        <ele>1422.8900000000001</ele>
        <time>2018-01-21T09:08:10Z</time>
      </trkpt>
      <trkpt lat="46.035451367497444" lon="9.404573813080788">
        <ele>1422.8900000000001</ele>
        <time>2018-01-21T09:08:14Z</time>
      </trkpt>
      <trkpt lat="46.03535489179194" lon="9.404468284919858">
        <ele>1423.8499999999999</ele>
        <time>2018-01-21T09:08:24Z</time>
      </trkpt>
      <trkpt lat="46.035304684191942" lon="9.404386393725872">
        <ele>1425.29</ele>
        <time>2018-01-21T09:08:34Z</time>
      </trkpt>
      <trkpt lat="46.035220110788941" lon="9.404346831142902">
        <ele>1426.25</ele>
        <time>2018-01-21T09:08:45Z</time>
      </trkpt>
      <trkpt lat="46.035184571519494" lon="9.404329564422369">
        <ele>1426.73</ele>
        <time>2018-01-21T09:08:50Z</time>
      </trkpt>
      <trkpt lat="46.03510376997292" lon="9.40427927300334">
        <ele>1428.1800000000001</ele>
        <time>2018-01-21T09:09:01Z</time>
      </trkpt>
      <trkpt lat="46.035003606230021" lon="9.404259659349918">
        <ele>1429.6199999999999</ele>
        <time>2018-01-21T09:09:12Z</time>
      </trkpt>
      <trkpt lat="46.034952644258738" lon="9.404263934120536">
        <ele>1431.0599999999999</ele>
        <time>2018-01-21T09:09:21Z</time>
      </trkpt>
      <trkpt lat="46.034865221008658" lon="9.404238369315863">
        <ele>1432.5</ele>
        <time>2018-01-21T09:09:32Z</time>
      </trkpt>
      <trkpt lat="46.034782323986292" lon="9.404243817552924">
        <ele>1433.9400000000001</ele>
        <time>2018-01-21T09:09:42Z</time>
      </trkpt>
      <trkpt lat="46.034688949584961" lon="9.404241805896163">
        <ele>1435.3900000000001</ele>
        <time>2018-01-21T09:09:52Z</time>
      </trkpt>
      <trkpt lat="46.034631617367268" lon="9.404238956049085">
        <ele>1437.3099999999999</ele>
        <time>2018-01-21T09:10:04Z</time>
      </trkpt>
      <trkpt lat="46.034549809992313" lon="9.404237447306514">
        <ele>1438.27</ele>
        <time>2018-01-21T09:10:14Z</time>
      </trkpt>
      <trkpt lat="46.03448124602437" lon="9.404206350445747">
        <ele>1439.71</ele>
        <time>2018-01-21T09:10:25Z</time>
      </trkpt>
      <trkpt lat="46.034431289881468" lon="9.404186485335231">
        <ele>1441.1500000000001</ele>
        <time>2018-01-21T09:10:34Z</time>
      </trkpt>
      <trkpt lat="46.034331964328885" lon="9.404175924137235">
        <ele>1442.5999999999999</ele>
        <time>2018-01-21T09:10:43Z</time>
      </trkpt>
      <trkpt lat="46.034265328198671" lon="9.404146587476134">
        <ele>1444.04</ele>
        <time>2018-01-21T09:10:53Z</time>
      </trkpt>
      <trkpt lat="46.03421101346612" lon="9.404133260250092">
        <ele>1445.48</ele>
        <time>2018-01-21T09:11:03Z</time>
      </trkpt>
      <trkpt lat="46.034204056486487" lon="9.404132841154933">
        <ele>1445.48</ele>
        <time>2018-01-21T09:11:04Z</time>
      </trkpt>
      <trkpt lat="46.034108251333237" lon="9.404177013784647">
        <ele>1445.96</ele>
        <time>2018-01-21T09:11:14Z</time>
      </trkpt>
      <trkpt lat="46.034071454778314" lon="9.404249265789986">
        <ele>1447.4000000000001</ele>
        <time>2018-01-21T09:11:24Z</time>
      </trkpt>
      <trkpt lat="46.034010769799352" lon="9.404309615492821">
        <ele>1448.3599999999999</ele>
        <time>2018-01-21T09:11:34Z</time>
      </trkpt>
      <trkpt lat="46.033921586349607" lon="9.404403995722532">
        <ele>1452.21</ele>
        <time>2018-01-21T09:11:47Z</time>
      </trkpt>
      <trkpt lat="46.033857213333249" lon="9.404445569962263">
        <ele>1452.6900000000001</ele>
        <time>2018-01-21T09:11:57Z</time>
      </trkpt>
      <trkpt lat="46.033800719305873" lon="9.404499549418688">
        <ele>1454.1300000000001</ele>
        <time>2018-01-21T09:12:07Z</time>
      </trkpt>
      <trkpt lat="46.033735005185008" lon="9.404566185548902">
        <ele>1456.05</ele>
        <time>2018-01-21T09:12:18Z</time>
      </trkpt>
      <trkpt lat="46.033688317984343" lon="9.404646484181285">
        <ele>1457.5</ele>
        <time>2018-01-21T09:12:29Z</time>
      </trkpt>
      <trkpt lat="46.033628219738603" lon="9.404696356505156">
        <ele>1458.9400000000001</ele>
        <time>2018-01-21T09:12:38Z</time>
      </trkpt>
      <trkpt lat="46.033584885299206" lon="9.404707755893469">
        <ele>1459.4200000000001</ele>
        <time>2018-01-21T09:12:46Z</time>
      </trkpt>
      <trkpt lat="46.033496707677841" lon="9.404750671237707">
        <ele>1460.8599999999999</ele>
        <time>2018-01-21T09:12:58Z</time>
      </trkpt>
      <trkpt lat="46.033416325226426" lon="9.404800795018673">
        <ele>1461.8199999999999</ele>
        <time>2018-01-21T09:13:07Z</time>
      </trkpt>
      <trkpt lat="46.033399226143956" lon="9.404815882444382">
        <ele>1461.8199999999999</ele>
        <time>2018-01-21T09:13:09Z</time>
      </trkpt>
      <trkpt lat="46.033307611942291" lon="9.40485049970448">
        <ele>1462.3</ele>
        <time>2018-01-21T09:13:21Z</time>
      </trkpt>
      <trkpt lat="46.033240053802729" lon="9.404887380078435">
        <ele>1463.26</ele>
        <time>2018-01-21T09:13:30Z</time>
      </trkpt>
      <trkpt lat="46.033190097659826" lon="9.404893163591623">
        <ele>1463.74</ele>
        <time>2018-01-21T09:13:37Z</time>
      </trkpt>
      <trkpt lat="46.033152965828776" lon="9.404904311522842">
        <ele>1464.23</ele>
        <time>2018-01-21T09:13:45Z</time>
      </trkpt>
      <trkpt lat="46.033172747120261" lon="9.404898947104812">
        <ele>1464.71</ele>
        <time>2018-01-21T09:13:54Z</time>
      </trkpt>
      <trkpt lat="46.033153804019094" lon="9.404893917962909">
        <ele>1463.26</ele>
        <time>2018-01-21T09:14:01Z</time>
      </trkpt>
      <trkpt lat="46.033156989142299" lon="9.404885787516832">
        <ele>1462.78</ele>
        <time>2018-01-21T09:14:19Z</time>
      </trkpt>
      <trkpt lat="46.033156318590045" lon="9.404858378693461">
        <ele>1462.78</ele>
        <time>2018-01-21T09:14:34Z</time>
      </trkpt>
      <trkpt lat="46.033169478178024" lon="9.404827365651727">
        <ele>1462.3</ele>
        <time>2018-01-21T09:15:00Z</time>
      </trkpt>
      <trkpt lat="46.033183727413416" lon="9.404814708977938">
        <ele>1462.3</ele>
        <time>2018-01-21T09:15:26Z</time>
      </trkpt>
      <trkpt lat="46.033184230327606" lon="9.404820324853063">
        <ele>1461.8199999999999</ele>
        <time>2018-01-21T09:15:45Z</time>
      </trkpt>
      <trkpt lat="46.033213902264833" lon="9.404841111972928">
        <ele>1461.8199999999999</ele>
        <time>2018-01-21T09:16:04Z</time>
      </trkpt>
      <trkpt lat="46.033209208399057" lon="9.404812948778272">
        <ele>1462.3</ele>
        <time>2018-01-21T09:16:24Z</time>
      </trkpt>
      <trkpt lat="46.033207615837455" lon="9.404823677614331">
        <ele>1461.8199999999999</ele>
        <time>2018-01-21T09:16:45Z</time>
      </trkpt>
      <trkpt lat="46.033226810395718" lon="9.404836837202311">
        <ele>1461.8199999999999</ele>
        <time>2018-01-21T09:17:01Z</time>
      </trkpt>
      <trkpt lat="46.033184565603733" lon="9.404831556603313">
        <ele>1461.8199999999999</ele>
        <time>2018-01-21T09:17:11Z</time>
      </trkpt>
      <trkpt lat="46.03316294029355" lon="9.404811104759574">
        <ele>1462.3</ele>
        <time>2018-01-21T09:17:32Z</time>
      </trkpt>
      <trkpt lat="46.033171908929944" lon="9.40479819662869">
        <ele>1462.3</ele>
        <time>2018-01-21T09:17:47Z</time>
      </trkpt>
      <trkpt lat="46.033179871737957" lon="9.404768859967589">
        <ele>1462.3</ele>
        <time>2018-01-21T09:18:07Z</time>
      </trkpt>
      <trkpt lat="46.033178362995386" lon="9.40478503704071">
        <ele>1462.78</ele>
        <time>2018-01-21T09:18:21Z</time>
      </trkpt>
      <trkpt lat="46.03317710570991" lon="9.404783444479108">
        <ele>1462.78</ele>
        <time>2018-01-21T09:18:41Z</time>
      </trkpt>
      <trkpt lat="46.033147936686873" lon="9.404746647924185">
        <ele>1462.78</ele>
        <time>2018-01-21T09:19:04Z</time>
      </trkpt>
      <trkpt lat="46.033140644431114" lon="9.40476349554956">
        <ele>1463.26</ele>
        <time>2018-01-21T09:19:26Z</time>
      </trkpt>
      <trkpt lat="46.033130586147308" lon="9.404802722856402">
        <ele>1463.74</ele>
        <time>2018-01-21T09:19:47Z</time>
      </trkpt>
      <trkpt lat="46.033156737685204" lon="9.404823258519173">
        <ele>1463.26</ele>
        <time>2018-01-21T09:20:11Z</time>
      </trkpt>
      <trkpt lat="46.033150870352983" lon="9.404842704534531">
        <ele>1462.78</ele>
        <time>2018-01-21T09:20:30Z</time>
      </trkpt>
      <trkpt lat="46.033133016899228" lon="9.404820743948221">
        <ele>1462.78</ele>
        <time>2018-01-21T09:20:46Z</time>
      </trkpt>
      <trkpt lat="46.033129245042801" lon="9.404808087274432">
        <ele>1462.3</ele>
        <time>2018-01-21T09:21:06Z</time>
      </trkpt>
      <trkpt lat="46.033107368275523" lon="9.404803812503815">
        <ele>1462.78</ele>
        <time>2018-01-21T09:21:25Z</time>
      </trkpt>
      <trkpt lat="46.033120695501566" lon="9.404797023162246">
        <ele>1464.23</ele>
        <time>2018-01-21T09:21:46Z</time>
      </trkpt>
      <trkpt lat="46.033119689673185" lon="9.404801381751895">
        <ele>1463.74</ele>
        <time>2018-01-21T09:22:04Z</time>
      </trkpt>
      <trkpt lat="46.033129915595055" lon="9.404800375923514">
        <ele>1462.78</ele>
        <time>2018-01-21T09:22:23Z</time>
      </trkpt>
      <trkpt lat="46.03315950371325" lon="9.404804902151227">
        <ele>1463.26</ele>
        <time>2018-01-21T09:22:45Z</time>
      </trkpt>
      <trkpt lat="46.033161180093884" lon="9.404813786968589">
        <ele>1464.23</ele>
        <time>2018-01-21T09:22:53Z</time>
      </trkpt>
      <trkpt lat="46.033174423500896" lon="9.404828287661076">
        <ele>1464.23</ele>
        <time>2018-01-21T09:23:04Z</time>
      </trkpt>
      <trkpt lat="46.03311943821609" lon="9.404851673170924">
        <ele>1465.6700000000001</ele>
        <time>2018-01-21T09:23:18Z</time>
      </trkpt>
      <trkpt lat="46.033068979158998" lon="9.404928367584944">
        <ele>1465.6700000000001</ele>
        <time>2018-01-21T09:23:28Z</time>
      </trkpt>
      <trkpt lat="46.032980466261506" lon="9.404990309849381">
        <ele>1466.6300000000001</ele>
        <time>2018-01-21T09:23:39Z</time>
      </trkpt>
      <trkpt lat="46.032898742705584" lon="9.405038086697459">
        <ele>1467.5899999999999</ele>
        <time>2018-01-21T09:23:51Z</time>
      </trkpt>
      <trkpt lat="46.032832190394402" lon="9.405078319832683">
        <ele>1469.03</ele>
        <time>2018-01-21T09:24:01Z</time>
      </trkpt>
      <trkpt lat="46.032768068835139" lon="9.405109751969576">
        <ele>1469.03</ele>
        <time>2018-01-21T09:24:11Z</time>
      </trkpt>
      <trkpt lat="46.03270118124783" lon="9.40515442751348">
        <ele>1469.51</ele>
        <time>2018-01-21T09:24:20Z</time>
      </trkpt>
      <trkpt lat="46.032615099102259" lon="9.405169431120157">
        <ele>1471.4400000000001</ele>
        <time>2018-01-21T09:24:32Z</time>
      </trkpt>
      <trkpt lat="46.032574782148004" lon="9.405179489403963">
        <ele>1472.8800000000001</ele>
        <time>2018-01-21T09:24:40Z</time>
      </trkpt>
      <trkpt lat="46.0325145162642" lon="9.405214861035347">
        <ele>1472.8800000000001</ele>
        <time>2018-01-21T09:24:49Z</time>
      </trkpt>
      <trkpt lat="46.032460620626807" lon="9.405239336192608">
        <ele>1474.3199999999999</ele>
        <time>2018-01-21T09:24:57Z</time>
      </trkpt>
      <trkpt lat="46.032369341701269" lon="9.405282838270068">
        <ele>1476.24</ele>
        <time>2018-01-21T09:25:08Z</time>
      </trkpt>
      <trkpt lat="46.032291557639837" lon="9.405345115810633">
        <ele>1476.24</ele>
        <time>2018-01-21T09:25:19Z</time>
      </trkpt>
      <trkpt lat="46.032217126339674" lon="9.405366238206625">
        <ele>1476.72</ele>
        <time>2018-01-21T09:25:29Z</time>
      </trkpt>
      <trkpt lat="46.032163230702281" lon="9.405401442199945">
        <ele>1477.6800000000001</ele>
        <time>2018-01-21T09:25:38Z</time>
      </trkpt>
      <trkpt lat="46.032089553773403" lon="9.40544662065804">
        <ele>1478.1600000000001</ele>
        <time>2018-01-21T09:25:47Z</time>
      </trkpt>
      <trkpt lat="46.032002968713641" lon="9.40545835532248">
        <ele>1478.6500000000001</ele>
        <time>2018-01-21T09:25:58Z</time>
      </trkpt>
      <trkpt lat="46.031917221844196" lon="9.405472772195935">
        <ele>1480.5699999999999</ele>
        <time>2018-01-21T09:26:07Z</time>
      </trkpt>
      <trkpt lat="46.031852597370744" lon="9.405440669506788">
        <ele>1481.05</ele>
        <time>2018-01-21T09:26:15Z</time>
      </trkpt>
      <trkpt lat="46.031753774732351" lon="9.405390378087759">
        <ele>1481.05</ele>
        <time>2018-01-21T09:26:27Z</time>
      </trkpt>
      <trkpt lat="46.0317063331604" lon="9.405373446643353">
        <ele>1482.01</ele>
        <time>2018-01-21T09:26:33Z</time>
      </trkpt>
      <trkpt lat="46.031617065891623" lon="9.405302200466394">
        <ele>1482.49</ele>
        <time>2018-01-21T09:26:43Z</time>
      </trkpt>
      <trkpt lat="46.031591081991792" lon="9.405292812734842">
        <ele>1482.49</ele>
        <time>2018-01-21T09:26:46Z</time>
      </trkpt>
      <trkpt lat="46.031516985967755" lon="9.405241599306464">
        <ele>1482.49</ele>
        <time>2018-01-21T09:26:56Z</time>
      </trkpt>
      <trkpt lat="46.031432915478945" lon="9.405191224068403">
        <ele>1482.97</ele>
        <time>2018-01-21T09:27:06Z</time>
      </trkpt>
      <trkpt lat="46.031359657645226" lon="9.405140178278089">
        <ele>1483.45</ele>
        <time>2018-01-21T09:27:15Z</time>
      </trkpt>
      <trkpt lat="46.031278604641557" lon="9.405085360631347">
        <ele>1484.4100000000001</ele>
        <time>2018-01-21T09:27:25Z</time>
      </trkpt>
      <trkpt lat="46.031228732317686" lon="9.405007911846042">
        <ele>1483.9300000000001</ele>
        <time>2018-01-21T09:27:34Z</time>
      </trkpt>
      <trkpt lat="46.031133849173784" lon="9.40496725961566">
        <ele>1483.9300000000001</ele>
        <time>2018-01-21T09:27:44Z</time>
      </trkpt>
      <trkpt lat="46.031035194173455" lon="9.404929289594293">
        <ele>1485.8499999999999</ele>
        <time>2018-01-21T09:27:54Z</time>
      </trkpt>
      <trkpt lat="46.0309655405581" lon="9.404901126399636">
        <ele>1484.4100000000001</ele>
        <time>2018-01-21T09:28:02Z</time>
      </trkpt>
      <trkpt lat="46.030914578586817" lon="9.404873969033361">
        <ele>1484.4100000000001</ele>
        <time>2018-01-21T09:28:08Z</time>
      </trkpt>
      <trkpt lat="46.030813828110695" lon="9.404770787805319">
        <ele>1484.4100000000001</ele>
        <time>2018-01-21T09:28:20Z</time>
      </trkpt>
      <trkpt lat="46.030772505328059" lon="9.404714880511165">
        <ele>1483.9300000000001</ele>
        <time>2018-01-21T09:28:31Z</time>
      </trkpt>
      <trkpt lat="46.030768733471632" lon="9.404691075906158">
        <ele>1483.45</ele>
        <time>2018-01-21T09:28:42Z</time>
      </trkpt>
      <trkpt lat="46.030718022957444" lon="9.404604155570269">
        <ele>1482.97</ele>
        <time>2018-01-21T09:28:51Z</time>
      </trkpt>
      <trkpt lat="46.030641077086329" lon="9.40452360548079">
        <ele>1481.53</ele>
        <time>2018-01-21T09:29:00Z</time>
      </trkpt>
      <trkpt lat="46.030582403764129" lon="9.40443953499198">
        <ele>1480.5699999999999</ele>
        <time>2018-01-21T09:29:08Z</time>
      </trkpt>
      <trkpt lat="46.030518785119057" lon="9.404355967417359">
        <ele>1479.6099999999999</ele>
        <time>2018-01-21T09:29:17Z</time>
      </trkpt>
      <trkpt lat="46.030467739328742" lon="9.404289247468114">
        <ele>1479.6099999999999</ele>
        <time>2018-01-21T09:29:25Z</time>
      </trkpt>
      <trkpt lat="46.030410910025239" lon="9.404209703207016">
        <ele>1478.1600000000001</ele>
        <time>2018-01-21T09:29:33Z</time>
      </trkpt>
      <trkpt lat="46.030343100428581" lon="9.404148515313864">
        <ele>1478.1600000000001</ele>
        <time>2018-01-21T09:29:43Z</time>
      </trkpt>
      <trkpt lat="46.030314601957798" lon="9.404093949124217">
        <ele>1478.1600000000001</ele>
        <time>2018-01-21T09:29:48Z</time>
      </trkpt>
      <trkpt lat="46.030276799574494" lon="9.403954558074474">
        <ele>1479.1300000000001</ele>
        <time>2018-01-21T09:29:57Z</time>
      </trkpt>
      <trkpt lat="46.030238829553127" lon="9.403935195878148">
        <ele>1479.1300000000001</ele>
        <time>2018-01-21T09:30:01Z</time>
      </trkpt>
      <trkpt lat="46.030129278078675" lon="9.403958413749933">
        <ele>1479.6099999999999</ele>
        <time>2018-01-21T09:30:12Z</time>
      </trkpt>
      <trkpt lat="46.030041268095374" lon="9.40395338460803">
        <ele>1478.1600000000001</ele>
        <time>2018-01-21T09:30:21Z</time>
      </trkpt>
      <trkpt lat="46.029971614480019" lon="9.40399345010519">
        <ele>1481.05</ele>
        <time>2018-01-21T09:30:31Z</time>
      </trkpt>
      <trkpt lat="46.029926352202892" lon="9.404016165062785">
        <ele>1481.53</ele>
        <time>2018-01-21T09:30:39Z</time>
      </trkpt>
      <trkpt lat="46.029873043298721" lon="9.404037622734904">
        <ele>1482.01</ele>
        <time>2018-01-21T09:30:48Z</time>
      </trkpt>
      <trkpt lat="46.029803054407239" lon="9.404029743745923">
        <ele>1482.97</ele>
        <time>2018-01-21T09:30:57Z</time>
      </trkpt>
      <trkpt lat="46.029766676947474" lon="9.40397584810853">
        <ele>1483.9300000000001</ele>
        <time>2018-01-21T09:31:06Z</time>
      </trkpt>
      <trkpt lat="46.0297791659832" lon="9.403937626630068">
        <ele>1483.9300000000001</ele>
        <time>2018-01-21T09:31:17Z</time>
      </trkpt>
      <trkpt lat="46.029738429933786" lon="9.403945254161954">
        <ele>1483.9300000000001</ele>
        <time>2018-01-21T09:31:21Z</time>
      </trkpt>
      <trkpt lat="46.02967020124197" lon="9.403936620801687">
        <ele>1483.9300000000001</ele>
        <time>2018-01-21T09:31:29Z</time>
      </trkpt>
      <trkpt lat="46.029585711658001" lon="9.403931759297848">
        <ele>1483.45</ele>
        <time>2018-01-21T09:31:39Z</time>
      </trkpt>
      <trkpt lat="46.029514968395233" lon="9.403902254998684">
        <ele>1483.9300000000001</ele>
        <time>2018-01-21T09:31:48Z</time>
      </trkpt>
      <trkpt lat="46.029476998373866" lon="9.403881719335914">
        <ele>1485.3699999999999</ele>
        <time>2018-01-21T09:31:54Z</time>
      </trkpt>
      <trkpt lat="46.029393682256341" lon="9.40383025445044">
        <ele>1484.4100000000001</ele>
        <time>2018-01-21T09:32:05Z</time>
      </trkpt>
      <trkpt lat="46.029334338381886" lon="9.403778538107872">
        <ele>1484.8900000000001</ele>
        <time>2018-01-21T09:32:14Z</time>
      </trkpt>
      <trkpt lat="46.029288405552506" lon="9.403751045465469">
        <ele>1485.3699999999999</ele>
        <time>2018-01-21T09:32:19Z</time>
      </trkpt>
      <trkpt lat="46.029269210994244" lon="9.403720870614052">
        <ele>1485.3699999999999</ele>
        <time>2018-01-21T09:32:22Z</time>
      </trkpt>
      <trkpt lat="46.029180362820625" lon="9.403661442920566">
        <ele>1486.3399999999999</ele>
        <time>2018-01-21T09:32:34Z</time>
      </trkpt>
      <trkpt lat="46.029160497710109" lon="9.403664963319898">
        <ele>1486.3399999999999</ele>
        <time>2018-01-21T09:32:38Z</time>
      </trkpt>
      <trkpt lat="46.029104003682733" lon="9.403661359101534">
        <ele>1486.8199999999999</ele>
        <time>2018-01-21T09:32:44Z</time>
      </trkpt>
      <trkpt lat="46.029040636494756" lon="9.403676362708211">
        <ele>1487.78</ele>
        <time>2018-01-21T09:32:52Z</time>
      </trkpt>
      <trkpt lat="46.028977436944842" lon="9.403704609721899">
        <ele>1489.22</ele>
        <time>2018-01-21T09:33:01Z</time>
      </trkpt>
      <trkpt lat="46.0288898460567" lon="9.403745178133249">
        <ele>1490.6600000000001</ele>
        <time>2018-01-21T09:33:12Z</time>
      </trkpt>
      <trkpt lat="46.028860928490758" lon="9.403754314407706">
        <ele>1490.1800000000001</ele>
        <time>2018-01-21T09:33:16Z</time>
      </trkpt>
      <trkpt lat="46.028794208541512" lon="9.403792200610042">
        <ele>1491.6199999999999</ele>
        <time>2018-01-21T09:33:24Z</time>
      </trkpt>
      <trkpt lat="46.028771745041013" lon="9.403790691867471">
        <ele>1491.6199999999999</ele>
        <time>2018-01-21T09:33:34Z</time>
      </trkpt>
      <trkpt lat="46.028764452785254" lon="9.403799409046769">
        <ele>1490.6600000000001</ele>
        <time>2018-01-21T09:33:37Z</time>
      </trkpt>
      <trkpt lat="46.028731847181916" lon="9.40382388420403">
        <ele>1492.0999999999999</ele>
        <time>2018-01-21T09:33:41Z</time>
      </trkpt>
      <trkpt lat="46.028667725622654" lon="9.403865374624729">
        <ele>1492.5799999999999</ele>
        <time>2018-01-21T09:33:50Z</time>
      </trkpt>
      <trkpt lat="46.028622714802623" lon="9.403890185058117">
        <ele>1493.55</ele>
        <time>2018-01-21T09:33:58Z</time>
      </trkpt>
      <trkpt lat="46.028567813336849" lon="9.403925975784659">
        <ele>1494.51</ele>
        <time>2018-01-21T09:34:07Z</time>
      </trkpt>
      <trkpt lat="46.028549373149872" lon="9.403926227241755">
        <ele>1494.99</ele>
        <time>2018-01-21T09:34:16Z</time>
      </trkpt>
      <trkpt lat="46.028487095609307" lon="9.403949109837413">
        <ele>1495.95</ele>
        <time>2018-01-21T09:34:24Z</time>
      </trkpt>
      <trkpt lat="46.028398582711816" lon="9.403964783996344">
        <ele>1497.8699999999999</ele>
        <time>2018-01-21T09:34:34Z</time>
      </trkpt>
      <trkpt lat="46.028343178331852" lon="9.403966292738915">
        <ele>1498.3499999999999</ele>
        <time>2018-01-21T09:34:43Z</time>
      </trkpt>
      <trkpt lat="46.028322810307145" lon="9.40393821336329">
        <ele>1497.3900000000001</ele>
        <time>2018-01-21T09:34:54Z</time>
      </trkpt>
      <trkpt lat="46.02831375785172" lon="9.403945337980986">
        <ele>1497.3900000000001</ele>
        <time>2018-01-21T09:34:55Z</time>
      </trkpt>
      <trkpt lat="46.02829372510314" lon="9.403952127322555">
        <ele>1497.3900000000001</ele>
        <time>2018-01-21T09:34:57Z</time>
      </trkpt>
      <trkpt lat="46.028256174176931" lon="9.403960173949599">
        <ele>1498.3499999999999</ele>
        <time>2018-01-21T09:35:01Z</time>
      </trkpt>
      <trkpt lat="46.028209570795298" lon="9.403984984382987">
        <ele>1498.3499999999999</ele>
        <time>2018-01-21T09:35:06Z</time>
      </trkpt>
      <trkpt lat="46.028162045404315" lon="9.403985235840082">
        <ele>1498.8299999999999</ele>
        <time>2018-01-21T09:35:11Z</time>
      </trkpt>
      <trkpt lat="46.028132541105151" lon="9.403976770117879">
        <ele>1498.8299999999999</ele>
        <time>2018-01-21T09:35:14Z</time>
      </trkpt>
      <trkpt lat="46.02803086861968" lon="9.403980961069465">
        <ele>1499.3099999999999</ele>
        <time>2018-01-21T09:35:25Z</time>
      </trkpt>
      <trkpt lat="46.028006728738546" lon="9.403991522267461">
        <ele>1500.27</ele>
        <time>2018-01-21T09:35:28Z</time>
      </trkpt>
      <trkpt lat="46.027964316308498" lon="9.404026139527559">
        <ele>1500.27</ele>
        <time>2018-01-21T09:35:34Z</time>
      </trkpt>
      <trkpt lat="46.027941182255745" lon="9.404064863920212">
        <ele>1499.3099999999999</ele>
        <time>2018-01-21T09:35:38Z</time>
      </trkpt>
      <trkpt lat="46.027908492833376" lon="9.404182713478804">
        <ele>1501.24</ele>
        <time>2018-01-21T09:35:48Z</time>
      </trkpt>
      <trkpt lat="46.027871696278453" lon="9.404284385964274">
        <ele>1501.24</ele>
        <time>2018-01-21T09:35:58Z</time>
      </trkpt>
      <trkpt lat="46.027862895280123" lon="9.404274160042405">
        <ele>1499.79</ele>
        <time>2018-01-21T09:36:07Z</time>
      </trkpt>
      <trkpt lat="46.027853256091475" lon="9.40428463742137">
        <ele>1503.6400000000001</ele>
        <time>2018-01-21T09:36:10Z</time>
      </trkpt>
      <trkpt lat="46.027844455093145" lon="9.404284218326211">
        <ele>1503.6400000000001</ele>
        <time>2018-01-21T09:36:11Z</time>
      </trkpt>
      <trkpt lat="46.02783590555191" lon="9.404305005446076">
        <ele>1501.72</ele>
        <time>2018-01-21T09:36:17Z</time>
      </trkpt>
      <trkpt lat="46.027836827561259" lon="9.40431984141469">
        <ele>1502.2</ele>
        <time>2018-01-21T09:36:26Z</time>
      </trkpt>
      <trkpt lat="46.027845544740558" lon="9.404318919405341">
        <ele>1503.1600000000001</ele>
        <time>2018-01-21T09:36:31Z</time>
      </trkpt>
      <trkpt lat="46.027836240828037" lon="9.404310034587979">
        <ele>1505.0799999999999</ele>
        <time>2018-01-21T09:36:36Z</time>
      </trkpt>
      <trkpt lat="46.027822410687804" lon="9.404316572472453">
        <ele>1504.1199999999999</ele>
        <time>2018-01-21T09:36:48Z</time>
      </trkpt>
      <trkpt lat="46.0278260987252" lon="9.404313303530216">
        <ele>1504.5999999999999</ele>
        <time>2018-01-21T09:37:02Z</time>
      </trkpt>
      <trkpt lat="46.027829786762595" lon="9.404329648241401">
        <ele>1501.24</ele>
        <time>2018-01-21T09:37:05Z</time>
      </trkpt>
      <trkpt lat="46.027830289676785" lon="9.404331240803003">
        <ele>1505.0799999999999</ele>
        <time>2018-01-21T09:37:07Z</time>
      </trkpt>
      <trkpt lat="46.027811095118523" lon="9.404332246631384">
        <ele>1504.1199999999999</ele>
        <time>2018-01-21T09:37:16Z</time>
      </trkpt>
      <trkpt lat="46.027822326868773" lon="9.404318081215024">
        <ele>1504.1199999999999</ele>
        <time>2018-01-21T09:37:28Z</time>
      </trkpt>
      <trkpt lat="46.027811598032713" lon="9.404288744553924">
        <ele>1503.1600000000001</ele>
        <time>2018-01-21T09:37:39Z</time>
      </trkpt>
      <trkpt lat="46.027807155624032" lon="9.404289666563273">
        <ele>1503.1600000000001</ele>
        <time>2018-01-21T09:37:56Z</time>
      </trkpt>
      <trkpt lat="46.027806820347905" lon="9.404277009889484">
        <ele>1502.6800000000001</ele>
        <time>2018-01-21T09:38:16Z</time>
      </trkpt>
      <trkpt lat="46.027801791206002" lon="9.404297126457095">
        <ele>1502.6800000000001</ele>
        <time>2018-01-21T09:38:32Z</time>
      </trkpt>
      <trkpt lat="46.027798438444734" lon="9.404282961040735">
        <ele>1503.1600000000001</ele>
        <time>2018-01-21T09:38:49Z</time>
      </trkpt>
      <trkpt lat="46.027804054319859" lon="9.404282374307513">
        <ele>1503.1600000000001</ele>
        <time>2018-01-21T09:39:03Z</time>
      </trkpt>
      <trkpt lat="46.027806820347905" lon="9.404286649078131">
        <ele>1504.5999999999999</ele>
        <time>2018-01-21T09:39:08Z</time>
      </trkpt>
      <trkpt lat="46.027807323262095" lon="9.40430274233222">
        <ele>1504.1199999999999</ele>
        <time>2018-01-21T09:39:17Z</time>
      </trkpt>
      <trkpt lat="46.027809921652079" lon="9.404317243024707">
        <ele>1505.5599999999999</ele>
        <time>2018-01-21T09:39:22Z</time>
      </trkpt>
      <trkpt lat="46.027836492285132" lon="9.404284553602338">
        <ele>1503.6400000000001</ele>
        <time>2018-01-21T09:39:31Z</time>
      </trkpt>
      <trkpt lat="46.027833810076118" lon="9.404277931898832">
        <ele>1502.6800000000001</ele>
        <time>2018-01-21T09:39:41Z</time>
      </trkpt>
      <trkpt lat="46.027829283848405" lon="9.404262509196997">
        <ele>1504.1199999999999</ele>
        <time>2018-01-21T09:39:59Z</time>
      </trkpt>
      <trkpt lat="46.027831379324198" lon="9.404262257739902">
        <ele>1501.72</ele>
        <time>2018-01-21T09:40:13Z</time>
      </trkpt>
      <trkpt lat="46.027839509770274" lon="9.404266951605678">
        <ele>1502.2</ele>
        <time>2018-01-21T09:40:23Z</time>
      </trkpt>
      <trkpt lat="46.02783783338964" lon="9.404264688491821">
        <ele>1501.24</ele>
        <time>2018-01-21T09:40:34Z</time>
      </trkpt>
      <trkpt lat="46.027819309383631" lon="9.404280697926879">
        <ele>1500.76</ele>
        <time>2018-01-21T09:40:53Z</time>
      </trkpt>
      <trkpt lat="46.027828026562929" lon="9.404287235811353">
        <ele>1499.79</ele>
        <time>2018-01-21T09:41:09Z</time>
      </trkpt>
      <trkpt lat="46.02782660163939" lon="9.404304251074791">
        <ele>1499.79</ele>
        <time>2018-01-21T09:41:25Z</time>
      </trkpt>
      <trkpt lat="46.027831379324198" lon="9.404297713190317">
        <ele>1500.27</ele>
        <time>2018-01-21T09:41:35Z</time>
      </trkpt>
      <trkpt lat="46.027835486456752" lon="9.404293522238731">
        <ele>1500.76</ele>
        <time>2018-01-21T09:41:48Z</time>
      </trkpt>
      <trkpt lat="46.027830457314849" lon="9.40428757108748">
        <ele>1500.27</ele>
        <time>2018-01-21T09:42:06Z</time>
      </trkpt>
      <trkpt lat="46.02783196605742" lon="9.404279692098498">
        <ele>1500.27</ele>
        <time>2018-01-21T09:42:19Z</time>
      </trkpt>
      <trkpt lat="46.027836827561259" lon="9.404285475611687">
        <ele>1500.27</ele>
        <time>2018-01-21T09:42:28Z</time>
      </trkpt>
      <trkpt lat="46.027837414294481" lon="9.404303831979632">
        <ele>1500.76</ele>
        <time>2018-01-21T09:42:42Z</time>
      </trkpt>
      <trkpt lat="46.027814950793982" lon="9.40438823774457">
        <ele>1499.79</ele>
        <time>2018-01-21T09:42:52Z</time>
      </trkpt>
      <trkpt lat="46.027799444273114" lon="9.404442133381963">
        <ele>1500.27</ele>
        <time>2018-01-21T09:42:57Z</time>
      </trkpt>
      <trkpt lat="46.027790894731879" lon="9.404515977948904">
        <ele>1500.27</ele>
        <time>2018-01-21T09:43:03Z</time>
      </trkpt>
      <trkpt lat="46.027777148410678" lon="9.404573729261756">
        <ele>1501.24</ele>
        <time>2018-01-21T09:43:08Z</time>
      </trkpt>
      <trkpt lat="46.027729203924537" lon="9.404709851369262">
        <ele>1502.2</ele>
        <time>2018-01-21T09:43:19Z</time>
      </trkpt>
      <trkpt lat="46.027676984667778" lon="9.404816469177604">
        <ele>1502.2</ele>
        <time>2018-01-21T09:43:29Z</time>
      </trkpt>
      <trkpt lat="46.027597859501839" lon="9.404929373413324">
        <ele>1502.6800000000001</ele>
        <time>2018-01-21T09:43:40Z</time>
      </trkpt>
      <trkpt lat="46.027555698528886" lon="9.405042277649045">
        <ele>1503.1600000000001</ele>
        <time>2018-01-21T09:43:51Z</time>
      </trkpt>
      <trkpt lat="46.02751487866044" lon="9.405155181884766">
        <ele>1502.6800000000001</ele>
        <time>2018-01-21T09:44:03Z</time>
      </trkpt>
      <trkpt lat="46.027489900588989" lon="9.405308235436678">
        <ele>1502.6800000000001</ele>
        <time>2018-01-21T09:44:16Z</time>
      </trkpt>
      <trkpt lat="46.027470538392663" lon="9.405432203784585">
        <ele>1502.6800000000001</ele>
        <time>2018-01-21T09:44:26Z</time>
      </trkpt>
      <trkpt lat="46.027419744059443" lon="9.405555333942175">
        <ele>1502.2</ele>
        <time>2018-01-21T09:44:37Z</time>
      </trkpt>
      <trkpt lat="46.027351934462786" lon="9.405717272311449">
        <ele>1502.2</ele>
        <time>2018-01-21T09:44:49Z</time>
      </trkpt>
      <trkpt lat="46.027259649708867" lon="9.40582187846303">
        <ele>1503.1600000000001</ele>
        <time>2018-01-21T09:45:00Z</time>
      </trkpt>
      <trkpt lat="46.027191337198019" lon="9.405932100489736">
        <ele>1502.6800000000001</ele>
        <time>2018-01-21T09:45:12Z</time>
      </trkpt>
      <trkpt lat="46.027151355519891" lon="9.406050117686391">
        <ele>1503.1600000000001</ele>
        <time>2018-01-21T09:45:23Z</time>
      </trkpt>
      <trkpt lat="46.027146577835083" lon="9.406062103807926">
        <ele>1503.1600000000001</ele>
        <time>2018-01-21T09:45:24Z</time>
      </trkpt>
      <trkpt lat="46.027093771845102" lon="9.406187748536468">
        <ele>1502.6800000000001</ele>
        <time>2018-01-21T09:45:35Z</time>
      </trkpt>
      <trkpt lat="46.027051359415054" lon="9.406307861208916">
        <ele>1504.1199999999999</ele>
        <time>2018-01-21T09:45:46Z</time>
      </trkpt>
      <trkpt lat="46.026995535939932" lon="9.406413976103067">
        <ele>1505.0799999999999</ele>
        <time>2018-01-21T09:45:58Z</time>
      </trkpt>
      <trkpt lat="46.026885230094194" lon="9.406446162611246">
        <ele>1506.04</ele>
        <time>2018-01-21T09:46:10Z</time>
      </trkpt>
      <trkpt lat="46.02680291980505" lon="9.406427973881364">
        <ele>1507.97</ele>
        <time>2018-01-21T09:46:20Z</time>
      </trkpt>
      <trkpt lat="46.026724465191364" lon="9.406441301107407">
        <ele>1508.9300000000001</ele>
        <time>2018-01-21T09:46:31Z</time>
      </trkpt>
      <trkpt lat="46.026636706665158" lon="9.406442809849978">
        <ele>1510.3699999999999</ele>
        <time>2018-01-21T09:46:42Z</time>
      </trkpt>
      <trkpt lat="46.026557078585029" lon="9.406438367441297">
        <ele>1511.8099999999999</ele>
        <time>2018-01-21T09:46:57Z</time>
      </trkpt>
      <trkpt lat="46.026477953419089" lon="9.406430656090379">
        <ele>1512.77</ele>
        <time>2018-01-21T09:47:08Z</time>
      </trkpt>
      <trkpt lat="46.026464626193047" lon="9.406426213681698">
        <ele>1513.73</ele>
        <time>2018-01-21T09:47:18Z</time>
      </trkpt>
      <trkpt lat="46.026441408321261" lon="9.406430572271347">
        <ele>1512.77</ele>
        <time>2018-01-21T09:47:37Z</time>
      </trkpt>
      <trkpt lat="46.026344681158662" lon="9.406358823180199">
        <ele>1513.73</ele>
        <time>2018-01-21T09:47:47Z</time>
      </trkpt>
      <trkpt lat="46.026337305083871" lon="9.406352285295725">
        <ele>1513.73</ele>
        <time>2018-01-21T09:47:48Z</time>
      </trkpt>
      <trkpt lat="46.026303023099899" lon="9.406327726319432">
        <ele>1513.73</ele>
        <time>2018-01-21T09:47:52Z</time>
      </trkpt>
      <trkpt lat="46.026223143562675" lon="9.406238123774529">
        <ele>1514.6900000000001</ele>
        <time>2018-01-21T09:48:03Z</time>
      </trkpt>
      <trkpt lat="46.026137815788388" lon="9.406118514016271">
        <ele>1513.73</ele>
        <time>2018-01-21T09:48:14Z</time>
      </trkpt>
      <trkpt lat="46.026060618460178" lon="9.406020948663354">
        <ele>1515.1800000000001</ele>
        <time>2018-01-21T09:48:25Z</time>
      </trkpt>
      <trkpt lat="46.025981660932302" lon="9.405938806012273">
        <ele>1515.1800000000001</ele>
        <time>2018-01-21T09:48:36Z</time>
      </trkpt>
      <trkpt lat="46.025893064215779" lon="9.405861021950841">
        <ele>1514.6900000000001</ele>
        <time>2018-01-21T09:48:48Z</time>
      </trkpt>
      <trkpt lat="46.025857105851173" lon="9.405823554843664">
        <ele>1514.6900000000001</ele>
        <time>2018-01-21T09:48:53Z</time>
      </trkpt>
      <trkpt lat="46.025805892422795" lon="9.405773095786572">
        <ele>1515.1800000000001</ele>
        <time>2018-01-21T09:48:59Z</time>
      </trkpt>
      <trkpt lat="46.025777645409107" lon="9.405736466869712">
        <ele>1515.1800000000001</ele>
        <time>2018-01-21T09:49:03Z</time>
      </trkpt>
      <trkpt lat="46.025750320404768" lon="9.405726073309779">
        <ele>1515.6600000000001</ele>
        <time>2018-01-21T09:49:06Z</time>
      </trkpt>
      <trkpt lat="46.025727018713951" lon="9.405750380828977">
        <ele>1515.6600000000001</ele>
        <time>2018-01-21T09:49:10Z</time>
      </trkpt>
      <trkpt lat="46.025643283501267" lon="9.405842749401927">
        <ele>1514.21</ele>
        <time>2018-01-21T09:49:21Z</time>
      </trkpt>
      <trkpt lat="46.025580251589417" lon="9.405956072732806">
        <ele>1512.77</ele>
        <time>2018-01-21T09:49:32Z</time>
      </trkpt>
      <trkpt lat="46.025526020675898" lon="9.406054895371199">
        <ele>1511.8099999999999</ele>
        <time>2018-01-21T09:49:42Z</time>
      </trkpt>
      <trkpt lat="46.025469610467553" lon="9.406176349148154">
        <ele>1511.3299999999999</ele>
        <time>2018-01-21T09:49:53Z</time>
      </trkpt>
      <trkpt lat="46.025411691516638" lon="9.406277518719435">
        <ele>1511.3299999999999</ele>
        <time>2018-01-21T09:50:03Z</time>
      </trkpt>
      <trkpt lat="46.025405321270227" lon="9.406290091574192">
        <ele>1512.29</ele>
        <time>2018-01-21T09:50:04Z</time>
      </trkpt>
      <trkpt lat="46.025306917726994" lon="9.406370893120766">
        <ele>1510.8499999999999</ele>
        <time>2018-01-21T09:50:16Z</time>
      </trkpt>
      <trkpt lat="46.025254195556045" lon="9.406384136527777">
        <ele>1510.3699999999999</ele>
        <time>2018-01-21T09:50:22Z</time>
      </trkpt>
      <trkpt lat="46.025160988792777" lon="9.406402576714754">
        <ele>1510.3699999999999</ele>
        <time>2018-01-21T09:50:32Z</time>
      </trkpt>
      <trkpt lat="46.025091502815485" lon="9.406416742131114">
        <ele>1509.4100000000001</ele>
        <time>2018-01-21T09:50:41Z</time>
      </trkpt>
      <trkpt lat="46.025034757331014" lon="9.406385477632284">
        <ele>1508.9300000000001</ele>
        <time>2018-01-21T09:50:49Z</time>
      </trkpt>
      <trkpt lat="46.024939035996795" lon="9.406366450712085">
        <ele>1508.45</ele>
        <time>2018-01-21T09:50:57Z</time>
      </trkpt>
      <trkpt lat="46.024847337976098" lon="9.406304927542806">
        <ele>1507.48</ele>
        <time>2018-01-21T09:51:07Z</time>
      </trkpt>
      <trkpt lat="46.024744994938374" lon="9.406243739649653">
        <ele>1505.5599999999999</ele>
        <time>2018-01-21T09:51:18Z</time>
      </trkpt>
      <trkpt lat="46.024625720456243" lon="9.406188754364848">
        <ele>1503.6400000000001</ele>
        <time>2018-01-21T09:51:29Z</time>
      </trkpt>
      <trkpt lat="46.024519605562091" lon="9.406161932274699">
        <ele>1503.1600000000001</ele>
        <time>2018-01-21T09:51:39Z</time>
      </trkpt>
      <trkpt lat="46.024497309699655" lon="9.406162267550826">
        <ele>1503.1600000000001</ele>
        <time>2018-01-21T09:51:41Z</time>
      </trkpt>
      <trkpt lat="46.024438887834549" lon="9.40616587176919">
        <ele>1502.6800000000001</ele>
        <time>2018-01-21T09:51:46Z</time>
      </trkpt>
      <trkpt lat="46.024387422949076" lon="9.406158663332462">
        <ele>1502.2</ele>
        <time>2018-01-21T09:51:50Z</time>
      </trkpt>
      <trkpt lat="46.024332605302334" lon="9.406165787950158">
        <ele>1502.2</ele>
        <time>2018-01-21T09:51:55Z</time>
      </trkpt>
      <trkpt lat="46.024240991100669" lon="9.406187161803246">
        <ele>1501.72</ele>
        <time>2018-01-21T09:52:05Z</time>
      </trkpt>
      <trkpt lat="46.024126661941409" lon="9.406251451000571">
        <ele>1500.76</ele>
        <time>2018-01-21T09:52:16Z</time>
      </trkpt>
      <trkpt lat="46.024023396894336" lon="9.406282966956496">
        <ele>1500.27</ele>
        <time>2018-01-21T09:52:25Z</time>
      </trkpt>
      <trkpt lat="46.023912504315376" lon="9.406298557296395">
        <ele>1500.76</ele>
        <time>2018-01-21T09:52:35Z</time>
      </trkpt>
      <trkpt lat="46.023846957832575" lon="9.406298473477364">
        <ele>1501.24</ele>
        <time>2018-01-21T09:52:43Z</time>
      </trkpt>
      <trkpt lat="46.023863134905696" lon="9.406258324161172">
        <ele>1500.27</ele>
        <time>2018-01-21T09:52:56Z</time>
      </trkpt>
      <trkpt lat="46.023828936740756" lon="9.406271064653993">
        <ele>1500.76</ele>
        <time>2018-01-21T09:53:09Z</time>
      </trkpt>
      <trkpt lat="46.023822901770473" lon="9.406270058825612">
        <ele>1500.76</ele>
        <time>2018-01-21T09:53:26Z</time>
      </trkpt>
      <trkpt lat="46.02381594479084" lon="9.406248182058334">
        <ele>1500.27</ele>
        <time>2018-01-21T09:53:41Z</time>
      </trkpt>
      <trkpt lat="46.023813262581825" lon="9.406272573396564">
        <ele>1500.76</ele>
        <time>2018-01-21T09:53:55Z</time>
      </trkpt>
      <trkpt lat="46.023808987811208" lon="9.406267628073692">
        <ele>1500.27</ele>
        <time>2018-01-21T09:54:10Z</time>
      </trkpt>
      <trkpt lat="46.023810999467969" lon="9.40626410767436">
        <ele>1499.79</ele>
        <time>2018-01-21T09:54:22Z</time>
      </trkpt>
      <trkpt lat="46.023786189034581" lon="9.406279698014259">
        <ele>1500.27</ele>
        <time>2018-01-21T09:54:34Z</time>
      </trkpt>
      <trkpt lat="46.023745117709041" lon="9.4062914326787">
        <ele>1500.76</ele>
        <time>2018-01-21T09:54:39Z</time>
      </trkpt>
      <trkpt lat="46.023695664480329" lon="9.406295791268349">
        <ele>1500.76</ele>
        <time>2018-01-21T09:54:47Z</time>
      </trkpt>
      <trkpt lat="46.023614108562469" lon="9.406266370788217">
        <ele>1501.24</ele>
        <time>2018-01-21T09:54:57Z</time>
      </trkpt>
      <trkpt lat="46.023536073043942" lon="9.406245583668351">
        <ele>1501.24</ele>
        <time>2018-01-21T09:55:07Z</time>
      </trkpt>
      <trkpt lat="46.023450829088688" lon="9.40623527392745">
        <ele>1503.1600000000001</ele>
        <time>2018-01-21T09:55:18Z</time>
      </trkpt>
      <trkpt lat="46.023372123017907" lon="9.406196298077703">
        <ele>1505.0799999999999</ele>
        <time>2018-01-21T09:55:28Z</time>
      </trkpt>
      <trkpt lat="46.023279502987862" lon="9.406128572300077">
        <ele>1504.5999999999999</ele>
        <time>2018-01-21T09:55:40Z</time>
      </trkpt>
      <trkpt lat="46.023193756118417" lon="9.406042490154505">
        <ele>1505.0799999999999</ele>
        <time>2018-01-21T09:55:52Z</time>
      </trkpt>
      <trkpt lat="46.023126617074013" lon="9.405965376645327">
        <ele>1506.04</ele>
        <time>2018-01-21T09:56:03Z</time>
      </trkpt>
      <trkpt lat="46.023064674809575" lon="9.405884826555848">
        <ele>1506.04</ele>
        <time>2018-01-21T09:56:14Z</time>
      </trkpt>
      <trkpt lat="46.023010024800897" lon="9.405771922320128">
        <ele>1507</ele>
        <time>2018-01-21T09:56:25Z</time>
      </trkpt>
      <trkpt lat="46.022983202710748" lon="9.405715931206942">
        <ele>1508.45</ele>
        <time>2018-01-21T09:56:33Z</time>
      </trkpt>
      <trkpt lat="46.022916482761502" lon="9.405682068318129">
        <ele>1510.3699999999999</ele>
        <time>2018-01-21T09:56:43Z</time>
      </trkpt>
      <trkpt lat="46.022833082824945" lon="9.405607050284743">
        <ele>1511.3299999999999</ele>
        <time>2018-01-21T09:56:55Z</time>
      </trkpt>
      <trkpt lat="46.022787652909756" lon="9.405514094978571">
        <ele>1513.25</ele>
        <time>2018-01-21T09:57:06Z</time>
      </trkpt>
      <trkpt lat="46.022746162489057" lon="9.40542072057724">
        <ele>1513.73</ele>
        <time>2018-01-21T09:57:16Z</time>
      </trkpt>
      <trkpt lat="46.022655386477709" lon="9.405368166044354">
        <ele>1515.1800000000001</ele>
        <time>2018-01-21T09:57:28Z</time>
      </trkpt>
      <trkpt lat="46.022624960169196" lon="9.405356347560883">
        <ele>1516.6199999999999</ele>
        <time>2018-01-21T09:57:38Z</time>
      </trkpt>
      <trkpt lat="46.022617751732469" lon="9.405355341732502">
        <ele>1516.1400000000001</ele>
        <time>2018-01-21T09:57:39Z</time>
      </trkpt>
      <trkpt lat="46.02252789773047" lon="9.405302284285426">
        <ele>1518.0599999999999</ele>
        <time>2018-01-21T09:57:50Z</time>
      </trkpt>
      <trkpt lat="46.022473834455013" lon="9.405281329527497">
        <ele>1519.5</ele>
        <time>2018-01-21T09:58:00Z</time>
      </trkpt>
      <trkpt lat="46.022456400096416" lon="9.405283173546195">
        <ele>1520.9400000000001</ele>
        <time>2018-01-21T09:58:03Z</time>
      </trkpt>
      <trkpt lat="46.022411724552512" lon="9.405317539349198">
        <ele>1522.3900000000001</ele>
        <time>2018-01-21T09:58:11Z</time>
      </trkpt>
      <trkpt lat="46.022402504459023" lon="9.405327681452036">
        <ele>1523.8299999999999</ele>
        <time>2018-01-21T09:58:13Z</time>
      </trkpt>
      <trkpt lat="46.022353805601597" lon="9.405380571261048">
        <ele>1522.8699999999999</ele>
        <time>2018-01-21T09:58:23Z</time>
      </trkpt>
      <trkpt lat="46.022322876378894" lon="9.405407812446356">
        <ele>1522.8699999999999</ele>
        <time>2018-01-21T09:58:28Z</time>
      </trkpt>
      <trkpt lat="46.022317763417959" lon="9.405433125793934">
        <ele>1523.8299999999999</ele>
        <time>2018-01-21T09:58:38Z</time>
      </trkpt>
      <trkpt lat="46.022325893864036" lon="9.405435137450695">
        <ele>1520.46</ele>
        <time>2018-01-21T09:58:42Z</time>
      </trkpt>
      <trkpt lat="46.022400157526135" lon="9.40547201782465">
        <ele>1521.4200000000001</ele>
        <time>2018-01-21T09:58:54Z</time>
      </trkpt>
      <trkpt lat="46.022450616583228" lon="9.40553261898458">
        <ele>1523.8299999999999</ele>
        <time>2018-01-21T09:59:03Z</time>
      </trkpt>
      <trkpt lat="46.022423375397921" lon="9.405612079426646">
        <ele>1526.23</ele>
        <time>2018-01-21T09:59:13Z</time>
      </trkpt>
      <trkpt lat="46.022371407598257" lon="9.405608391389251">
        <ele>1526.71</ele>
        <time>2018-01-21T09:59:19Z</time>
      </trkpt>
      <trkpt lat="46.022299909964204" lon="9.405583748593926">
        <ele>1527.1900000000001</ele>
        <time>2018-01-21T09:59:29Z</time>
      </trkpt>
      <trkpt lat="46.022263197228312" lon="9.405598752200604">
        <ele>1528.1500000000001</ele>
        <time>2018-01-21T09:59:37Z</time>
      </trkpt>
      <trkpt lat="46.022171918302774" lon="9.405608307570219">
        <ele>1527.1900000000001</ele>
        <time>2018-01-21T09:59:48Z</time>
      </trkpt>
      <trkpt lat="46.022141659632325" lon="9.405630854889751">
        <ele>1527.6700000000001</ele>
        <time>2018-01-21T09:59:52Z</time>
      </trkpt>
      <trkpt lat="46.022068737074733" lon="9.405680643394589">
        <ele>1526.71</ele>
        <time>2018-01-21T10:00:02Z</time>
      </trkpt>
      <trkpt lat="46.02202414534986" lon="9.405723558738828">
        <ele>1526.71</ele>
        <time>2018-01-21T10:00:09Z</time>
      </trkpt>
      <trkpt lat="46.021976284682751" lon="9.40576178021729">
        <ele>1527.1900000000001</ele>
        <time>2018-01-21T10:00:18Z</time>
      </trkpt>
      <trkpt lat="46.02195574901998" lon="9.405769659206271">
        <ele>1527.1900000000001</ele>
        <time>2018-01-21T10:00:21Z</time>
      </trkpt>
      <trkpt lat="46.021945439279079" lon="9.405763456597924">
        <ele>1527.1900000000001</ele>
        <time>2018-01-21T10:00:31Z</time>
      </trkpt>
      <trkpt lat="46.021924065425992" lon="9.405771754682064">
        <ele>1527.6700000000001</ele>
        <time>2018-01-21T10:00:39Z</time>
      </trkpt>
      <trkpt lat="46.021932028234005" lon="9.405760103836656">
        <ele>1527.1900000000001</ele>
        <time>2018-01-21T10:00:52Z</time>
      </trkpt>
      <trkpt lat="46.021928759291768" lon="9.405765049159527">
        <ele>1527.1900000000001</ele>
        <time>2018-01-21T10:01:05Z</time>
      </trkpt>
      <trkpt lat="46.021928507834673" lon="9.405773850157857">
        <ele>1527.6700000000001</ele>
        <time>2018-01-21T10:01:15Z</time>
      </trkpt>
      <trkpt lat="46.021937727928162" lon="9.405787345021963">
        <ele>1526.23</ele>
        <time>2018-01-21T10:01:28Z</time>
      </trkpt>
      <trkpt lat="46.021932531148195" lon="9.40578474663198">
        <ele>1526.71</ele>
        <time>2018-01-21T10:01:41Z</time>
      </trkpt>
      <trkpt lat="46.021934626623988" lon="9.405783154070377">
        <ele>1526.71</ele>
        <time>2018-01-21T10:01:53Z</time>
      </trkpt>
      <trkpt lat="46.021936386823654" lon="9.405792877078056">
        <ele>1526.71</ele>
        <time>2018-01-21T10:02:08Z</time>
      </trkpt>
      <trkpt lat="46.021936805918813" lon="9.405800085514784">
        <ele>1526.71</ele>
        <time>2018-01-21T10:02:20Z</time>
      </trkpt>
      <trkpt lat="46.021935883909464" lon="9.405795307829976">
        <ele>1526.71</ele>
        <time>2018-01-21T10:02:31Z</time>
      </trkpt>
      <trkpt lat="46.021935800090432" lon="9.405802683904767">
        <ele>1527.1900000000001</ele>
        <time>2018-01-21T10:02:45Z</time>
      </trkpt>
      <trkpt lat="46.021932614967227" lon="9.405839145183563">
        <ele>1528.6300000000001</ele>
        <time>2018-01-21T10:02:55Z</time>
      </trkpt>
      <trkpt lat="46.021929094567895" lon="9.40589957870543">
        <ele>1531.04</ele>
        <time>2018-01-21T10:03:07Z</time>
      </trkpt>
      <trkpt lat="46.021911073476076" lon="9.405925730243325">
        <ele>1532</ele>
        <time>2018-01-21T10:03:17Z</time>
      </trkpt>
      <trkpt lat="46.021910067647696" lon="9.405929083004594">
        <ele>1532</ele>
        <time>2018-01-21T10:03:30Z</time>
      </trkpt>
      <trkpt lat="46.021899674087763" lon="9.405941739678383">
        <ele>1531.52</ele>
        <time>2018-01-21T10:03:40Z</time>
      </trkpt>
      <trkpt lat="46.021883161738515" lon="9.40595137886703">
        <ele>1532</ele>
        <time>2018-01-21T10:03:50Z</time>
      </trkpt>
      <trkpt lat="46.021872013807297" lon="9.405952384695411">
        <ele>1532.48</ele>
        <time>2018-01-21T10:03:59Z</time>
      </trkpt>
      <trkpt lat="46.021865559741855" lon="9.405938051640987">
        <ele>1532</ele>
        <time>2018-01-21T10:04:09Z</time>
      </trkpt>
      <trkpt lat="46.021869918331504" lon="9.405915755778551">
        <ele>1533.9200000000001</ele>
        <time>2018-01-21T10:04:19Z</time>
      </trkpt>
      <trkpt lat="46.021855920553207" lon="9.405928580090404">
        <ele>1532</ele>
        <time>2018-01-21T10:04:28Z</time>
      </trkpt>
      <trkpt lat="46.02185751311481" lon="9.405939225107431">
        <ele>1530.5599999999999</ele>
        <time>2018-01-21T10:04:34Z</time>
      </trkpt>
      <trkpt lat="46.02186338044703" lon="9.4059166777879">
        <ele>1532</ele>
        <time>2018-01-21T10:04:43Z</time>
      </trkpt>
      <trkpt lat="46.021864050999284" lon="9.405917767435312">
        <ele>1531.52</ele>
        <time>2018-01-21T10:04:44Z</time>
      </trkpt>
      <trkpt lat="46.021870588883758" lon="9.405897483229637">
        <ele>1531.52</ele>
        <time>2018-01-21T10:04:57Z</time>
      </trkpt>
      <trkpt lat="46.021881233900785" lon="9.405887005850673">
        <ele>1532</ele>
        <time>2018-01-21T10:05:08Z</time>
      </trkpt>
      <trkpt lat="46.021876204758883" lon="9.405871080234647">
        <ele>1532</ele>
        <time>2018-01-21T10:05:23Z</time>
      </trkpt>
      <trkpt lat="46.021874528378248" lon="9.405846688896418">
        <ele>1529.5899999999999</ele>
        <time>2018-01-21T10:05:31Z</time>
      </trkpt>
      <trkpt lat="46.021862793713808" lon="9.405843755230308">
        <ele>1528.6300000000001</ele>
        <time>2018-01-21T10:05:41Z</time>
      </trkpt>
      <trkpt lat="46.021863464266062" lon="9.405859094113112">
        <ele>1528.1500000000001</ele>
        <time>2018-01-21T10:05:54Z</time>
      </trkpt>
      <trkpt lat="46.021864386275411" lon="9.405853981152177">
        <ele>1528.1500000000001</ele>
        <time>2018-01-21T10:06:04Z</time>
      </trkpt>
      <trkpt lat="46.021865559741855" lon="9.405855992808938">
        <ele>1527.1900000000001</ele>
        <time>2018-01-21T10:06:23Z</time>
      </trkpt>
      <trkpt lat="46.021864470094442" lon="9.405857333913446">
        <ele>1526.23</ele>
        <time>2018-01-21T10:06:25Z</time>
      </trkpt>
      <trkpt lat="46.021858267486095" lon="9.405851382762194">
        <ele>1529.5899999999999</ele>
        <time>2018-01-21T10:06:35Z</time>
      </trkpt>
      <trkpt lat="46.021853573620319" lon="9.405846353620291">
        <ele>1529.5899999999999</ele>
        <time>2018-01-21T10:06:36Z</time>
      </trkpt>
      <trkpt lat="46.021840833127499" lon="9.405836462974548">
        <ele>1531.04</ele>
        <time>2018-01-21T10:06:53Z</time>
      </trkpt>
      <trkpt lat="46.021838821470737" lon="9.405854484066367">
        <ele>1530.0799999999999</ele>
        <time>2018-01-21T10:07:08Z</time>
      </trkpt>
      <trkpt lat="46.021841838955879" lon="9.40583948045969">
        <ele>1527.6700000000001</ele>
        <time>2018-01-21T10:07:19Z</time>
      </trkpt>
      <trkpt lat="46.021853573620319" lon="9.405844593420625">
        <ele>1526.71</ele>
        <time>2018-01-21T10:07:26Z</time>
      </trkpt>
      <trkpt lat="46.021852735430002" lon="9.405853981152177">
        <ele>1530.5599999999999</ele>
        <time>2018-01-21T10:07:29Z</time>
      </trkpt>
      <trkpt lat="46.021851226687431" lon="9.405855070799589">
        <ele>1530.0799999999999</ele>
        <time>2018-01-21T10:07:30Z</time>
      </trkpt>
      <trkpt lat="46.021860027685761" lon="9.405891699716449">
        <ele>1528.1500000000001</ele>
        <time>2018-01-21T10:07:47Z</time>
      </trkpt>
      <trkpt lat="46.021861284971237" lon="9.405894298106432">
        <ele>1528.6300000000001</ele>
        <time>2018-01-21T10:07:48Z</time>
      </trkpt>
      <trkpt lat="46.02187117561698" lon="9.405906870961189">
        <ele>1532</ele>
        <time>2018-01-21T10:07:57Z</time>
      </trkpt>
      <trkpt lat="46.021873857825994" lon="9.405908128246665">
        <ele>1531.52</ele>
        <time>2018-01-21T10:08:08Z</time>
      </trkpt>
      <trkpt lat="46.021873941645026" lon="9.405906787142158">
        <ele>1531.52</ele>
        <time>2018-01-21T10:08:09Z</time>
      </trkpt>
      <trkpt lat="46.021862961351871" lon="9.405911061912775">
        <ele>1532.48</ele>
        <time>2018-01-21T10:08:19Z</time>
      </trkpt>
      <trkpt lat="46.021855752915144" lon="9.405923886224628">
        <ele>1533.9200000000001</ele>
        <time>2018-01-21T10:08:21Z</time>
      </trkpt>
      <trkpt lat="46.021779645234346" lon="9.405914917588234">
        <ele>1533.4400000000001</ele>
        <time>2018-01-21T10:08:32Z</time>
      </trkpt>
      <trkpt lat="46.021727174520493" lon="9.405903182923794">
        <ele>1532.96</ele>
        <time>2018-01-21T10:08:41Z</time>
      </trkpt>
      <trkpt lat="46.021730275824666" lon="9.405908966436982">
        <ele>1530.0799999999999</ele>
        <time>2018-01-21T10:08:45Z</time>
      </trkpt>
      <trkpt lat="46.021735388785601" lon="9.405904272571206">
        <ele>1528.1500000000001</ele>
        <time>2018-01-21T10:08:47Z</time>
      </trkpt>
      <trkpt lat="46.021759947761893" lon="9.405892537906766">
        <ele>1530.0799999999999</ele>
        <time>2018-01-21T10:08:57Z</time>
      </trkpt>
      <trkpt lat="46.021772101521492" lon="9.405888766050339">
        <ele>1526.23</ele>
        <time>2018-01-21T10:08:59Z</time>
      </trkpt>
      <trkpt lat="46.021778471767902" lon="9.40588591620326">
        <ele>1527.1900000000001</ele>
        <time>2018-01-21T10:09:00Z</time>
      </trkpt>
      <trkpt lat="46.021799175068736" lon="9.405874097719789">
        <ele>1528.6300000000001</ele>
        <time>2018-01-21T10:09:08Z</time>
      </trkpt>
      <trkpt lat="46.021802863106132" lon="9.405870493501425">
        <ele>1528.6300000000001</ele>
        <time>2018-01-21T10:09:19Z</time>
      </trkpt>
      <trkpt lat="46.021776124835014" lon="9.405888095498085">
        <ele>1530.5599999999999</ele>
        <time>2018-01-21T10:09:29Z</time>
      </trkpt>
      <trkpt lat="46.021689707413316" lon="9.405949031934142">
        <ele>1531.52</ele>
        <time>2018-01-21T10:09:40Z</time>
      </trkpt>
      <trkpt lat="46.021645115688443" lon="9.405991779640317">
        <ele>1531.04</ele>
        <time>2018-01-21T10:09:48Z</time>
      </trkpt>
      <trkpt lat="46.02161024697125" lon="9.406020613387227">
        <ele>1530.0799999999999</ele>
        <time>2018-01-21T10:09:58Z</time>
      </trkpt>
      <trkpt lat="46.021623993292451" lon="9.406010722741485">
        <ele>1532</ele>
        <time>2018-01-21T10:10:12Z</time>
      </trkpt>
      <trkpt lat="46.021622736006975" lon="9.406007872894406">
        <ele>1531.52</ele>
        <time>2018-01-21T10:10:19Z</time>
      </trkpt>
      <trkpt lat="46.021611504256725" lon="9.406015165150166">
        <ele>1532</ele>
        <time>2018-01-21T10:10:27Z</time>
      </trkpt>
      <trkpt lat="46.021586693823338" lon="9.406038215383887">
        <ele>1534.4000000000001</ele>
        <time>2018-01-21T10:10:33Z</time>
      </trkpt>
      <trkpt lat="46.021546460688114" lon="9.406085908412933">
        <ele>1531.52</ele>
        <time>2018-01-21T10:10:42Z</time>
      </trkpt>
      <trkpt lat="46.021551322191954" lon="9.40607794560492">
        <ele>1528.6300000000001</ele>
        <time>2018-01-21T10:10:47Z</time>
      </trkpt>
      <trkpt lat="46.021554926410317" lon="9.406081801280379">
        <ele>1532.48</ele>
        <time>2018-01-21T10:10:50Z</time>
      </trkpt>
      <trkpt lat="46.021551406010985" lon="9.406090099364519">
        <ele>1536.8</ele>
        <time>2018-01-21T10:10:51Z</time>
      </trkpt>
      <trkpt lat="46.021544532850385" lon="9.406096637248993">
        <ele>1534.8800000000001</ele>
        <time>2018-01-21T10:10:52Z</time>
      </trkpt>
      <trkpt lat="46.021506646648049" lon="9.406137205660343">
        <ele>1533.9200000000001</ele>
        <time>2018-01-21T10:11:04Z</time>
      </trkpt>
      <trkpt lat="46.021513687446713" lon="9.406122034415603">
        <ele>1530.0799999999999</ele>
        <time>2018-01-21T10:11:06Z</time>
      </trkpt>
      <trkpt lat="46.021536653861403" lon="9.406091775745153">
        <ele>1532.96</ele>
        <time>2018-01-21T10:11:11Z</time>
      </trkpt>
      <trkpt lat="46.021550735458732" lon="9.406047519296408">
        <ele>1532.96</ele>
        <time>2018-01-21T10:11:23Z</time>
      </trkpt>
      <trkpt lat="46.021554423496127" lon="9.406044837087393">
        <ele>1531.04</ele>
        <time>2018-01-21T10:11:26Z</time>
      </trkpt>
      <trkpt lat="46.021554758772254" lon="9.40605984069407">
        <ele>1531.04</ele>
        <time>2018-01-21T10:11:35Z</time>
      </trkpt>
      <trkpt lat="46.02156138047576" lon="9.40605640411377">
        <ele>1532.48</ele>
        <time>2018-01-21T10:11:40Z</time>
      </trkpt>
      <trkpt lat="46.021562805399299" lon="9.406058918684721">
        <ele>1531.04</ele>
        <time>2018-01-21T10:11:43Z</time>
      </trkpt>
      <trkpt lat="46.021561799570918" lon="9.406067635864019">
        <ele>1532.96</ele>
        <time>2018-01-21T10:11:51Z</time>
      </trkpt>
      <trkpt lat="46.021566074341536" lon="9.406068557873368">
        <ele>1532.48</ele>
        <time>2018-01-21T10:12:03Z</time>
      </trkpt>
      <trkpt lat="46.021565906703472" lon="9.40608523786068">
        <ele>1532</ele>
        <time>2018-01-21T10:12:11Z</time>
      </trkpt>
      <trkpt lat="46.021566158160567" lon="9.406089344993234">
        <ele>1533.4400000000001</ele>
        <time>2018-01-21T10:12:19Z</time>
      </trkpt>
      <trkpt lat="46.0215247515589" lon="9.406137121841312">
        <ele>1533.9200000000001</ele>
        <time>2018-01-21T10:12:30Z</time>
      </trkpt>
      <trkpt lat="46.021487284451723" lon="9.406184814870358">
        <ele>1533.9200000000001</ele>
        <time>2018-01-21T10:12:40Z</time>
      </trkpt>
      <trkpt lat="46.021482674404979" lon="9.406192693859339">
        <ele>1533.9200000000001</ele>
        <time>2018-01-21T10:12:41Z</time>
      </trkpt>
      <trkpt lat="46.021418636664748" lon="9.406312722712755">
        <ele>1534.8800000000001</ele>
        <time>2018-01-21T10:12:53Z</time>
      </trkpt>
      <trkpt lat="46.021376643329859" lon="9.406429063528776">
        <ele>1535.3599999999999</ele>
        <time>2018-01-21T10:13:03Z</time>
      </trkpt>
      <trkpt lat="46.021368345245719" lon="9.406542638316751">
        <ele>1535.3599999999999</ele>
        <time>2018-01-21T10:13:13Z</time>
      </trkpt>
      <trkpt lat="46.021407572552562" lon="9.406500225886703">
        <ele>1536.3199999999999</ele>
        <time>2018-01-21T10:13:21Z</time>
      </trkpt>
      <trkpt lat="46.021424587816" lon="9.406428644433618">
        <ele>1538.25</ele>
        <time>2018-01-21T10:13:31Z</time>
      </trkpt>
      <trkpt lat="46.021449817344546" lon="9.406390758231282">
        <ele>1540.6500000000001</ele>
        <time>2018-01-21T10:13:37Z</time>
      </trkpt>
      <trkpt lat="46.021477561444044" lon="9.406356643885374">
        <ele>1538.73</ele>
        <time>2018-01-21T10:13:44Z</time>
      </trkpt>
      <trkpt lat="46.021529864519835" lon="9.406296042725444">
        <ele>1536.8</ele>
        <time>2018-01-21T10:13:56Z</time>
      </trkpt>
      <trkpt lat="46.02153698913753" lon="9.406279530376196">
        <ele>1542.0899999999999</ele>
        <time>2018-01-21T10:13:58Z</time>
      </trkpt>
      <trkpt lat="46.021569594740868" lon="9.406237453222275">
        <ele>1541.1300000000001</ele>
        <time>2018-01-21T10:14:03Z</time>
      </trkpt>
      <trkpt lat="46.021671518683434" lon="9.406187497079372">
        <ele>1541.1300000000001</ele>
        <time>2018-01-21T10:14:15Z</time>
      </trkpt>
      <trkpt lat="46.021750811487436" lon="9.406163524836302">
        <ele>1541.1300000000001</ele>
        <time>2018-01-21T10:14:25Z</time>
      </trkpt>
      <trkpt lat="46.021836306899786" lon="9.406135026365519">
        <ele>1543.53</ele>
        <time>2018-01-21T10:14:35Z</time>
      </trkpt>
      <trkpt lat="46.02184334769845" lon="9.406131422147155">
        <ele>1539.6900000000001</ele>
        <time>2018-01-21T10:14:36Z</time>
      </trkpt>
      <trkpt lat="46.021930938586593" lon="9.406132679432631">
        <ele>1537.77</ele>
        <time>2018-01-21T10:14:46Z</time>
      </trkpt>
      <trkpt lat="46.021936805918813" lon="9.406136116012931">
        <ele>1539.21</ele>
        <time>2018-01-21T10:14:47Z</time>
      </trkpt>
      <trkpt lat="46.021958347409964" lon="9.406142989173532">
        <ele>1537.77</ele>
        <time>2018-01-21T10:14:50Z</time>
      </trkpt>
      <trkpt lat="46.022042250260711" lon="9.406149862334132">
        <ele>1541.6099999999999</ele>
        <time>2018-01-21T10:15:00Z</time>
      </trkpt>
      <trkpt lat="46.022084495052695" lon="9.40616687759757">
        <ele>1543.05</ele>
        <time>2018-01-21T10:15:05Z</time>
      </trkpt>
      <trkpt lat="46.022161943838" lon="9.406154556199908">
        <ele>1544.5</ele>
        <time>2018-01-21T10:15:15Z</time>
      </trkpt>
      <trkpt lat="46.022237548604608" lon="9.406153718009591">
        <ele>1547.3800000000001</ele>
        <time>2018-01-21T10:15:24Z</time>
      </trkpt>
      <trkpt lat="46.022291276603937" lon="9.406134439632297">
        <ele>1549.3</ele>
        <time>2018-01-21T10:15:31Z</time>
      </trkpt>
      <trkpt lat="46.022393284365535" lon="9.406146677210927">
        <ele>1549.3</ele>
        <time>2018-01-21T10:15:42Z</time>
      </trkpt>
      <trkpt lat="46.022415831685066" lon="9.406156567856669">
        <ele>1550.26</ele>
        <time>2018-01-21T10:15:45Z</time>
      </trkpt>
      <trkpt lat="46.022489676252007" lon="9.406240722164512">
        <ele>1547.3800000000001</ele>
        <time>2018-01-21T10:15:55Z</time>
      </trkpt>
      <trkpt lat="46.022510463371873" lon="9.406287744641304">
        <ele>1549.3</ele>
        <time>2018-01-21T10:16:00Z</time>
      </trkpt>
      <trkpt lat="46.022532004863024" lon="9.406333509832621">
        <ele>1550.74</ele>
        <time>2018-01-21T10:16:05Z</time>
      </trkpt>
      <trkpt lat="46.022546757012606" lon="9.406361086294055">
        <ele>1552.1900000000001</ele>
        <time>2018-01-21T10:16:08Z</time>
      </trkpt>
      <trkpt lat="46.022559246048331" lon="9.406382208690047">
        <ele>1550.74</ele>
        <time>2018-01-21T10:16:10Z</time>
      </trkpt>
      <trkpt lat="46.022576261311769" lon="9.406502824276686">
        <ele>1553.1500000000001</ele>
        <time>2018-01-21T10:16:22Z</time>
      </trkpt>
      <trkpt lat="46.022616745904088" lon="9.406554037705064">
        <ele>1553.6300000000001</ele>
        <time>2018-01-21T10:16:32Z</time>
      </trkpt>
      <trkpt lat="46.022682292386889" lon="9.406620254740119">
        <ele>1554.1099999999999</ele>
        <time>2018-01-21T10:16:43Z</time>
      </trkpt>
      <trkpt lat="46.022744989022613" lon="9.406691584736109">
        <ele>1553.6300000000001</ele>
        <time>2018-01-21T10:16:54Z</time>
      </trkpt>
      <trkpt lat="46.02281573228538" lon="9.406768195331097">
        <ele>1556.03</ele>
        <time>2018-01-21T10:17:04Z</time>
      </trkpt>
      <trkpt lat="46.022879099473357" lon="9.406845644116402">
        <ele>1557.95</ele>
        <time>2018-01-21T10:17:14Z</time>
      </trkpt>
      <trkpt lat="46.02293349802494" lon="9.406922170892358">
        <ele>1558.4300000000001</ele>
        <time>2018-01-21T10:17:23Z</time>
      </trkpt>
      <trkpt lat="46.022872561588883" lon="9.407007833942771">
        <ele>1559.8800000000001</ele>
        <time>2018-01-21T10:17:34Z</time>
      </trkpt>
      <trkpt lat="46.022813385352492" lon="9.406996602192521">
        <ele>1561.3199999999999</ele>
        <time>2018-01-21T10:17:43Z</time>
      </trkpt>
      <trkpt lat="46.022765105590224" lon="9.406968019902706">
        <ele>1561.8</ele>
        <time>2018-01-21T10:17:51Z</time>
      </trkpt>
      <trkpt lat="46.022696038708091" lon="9.406946646049619">
        <ele>1564.2</ele>
        <time>2018-01-21T10:18:01Z</time>
      </trkpt>
      <trkpt lat="46.022596713155508" lon="9.406937006860972">
        <ele>1565.1600000000001</ele>
        <time>2018-01-21T10:18:13Z</time>
      </trkpt>
      <trkpt lat="46.02251373231411" lon="9.406954357400537">
        <ele>1567.5699999999999</ele>
        <time>2018-01-21T10:18:25Z</time>
      </trkpt>
      <trkpt lat="46.022487664595246" lon="9.406926948577166">
        <ele>1568.05</ele>
        <time>2018-01-21T10:18:33Z</time>
      </trkpt>
      <trkpt lat="46.022482719272375" lon="9.406933570280671">
        <ele>1567.0899999999999</ele>
        <time>2018-01-21T10:18:40Z</time>
      </trkpt>
      <trkpt lat="46.022482132539153" lon="9.406945556402206">
        <ele>1568.05</ele>
        <time>2018-01-21T10:18:50Z</time>
      </trkpt>
      <trkpt lat="46.022453466430306" lon="9.406898198649287">
        <ele>1568.53</ele>
        <time>2018-01-21T10:18:59Z</time>
      </trkpt>
      <trkpt lat="46.022389596328139" lon="9.406920410692692">
        <ele>1569.97</ele>
        <time>2018-01-21T10:19:08Z</time>
      </trkpt>
      <trkpt lat="46.022310554981232" lon="9.406937174499035">
        <ele>1571.4100000000001</ele>
        <time>2018-01-21T10:19:18Z</time>
      </trkpt>
      <trkpt lat="46.022225143387914" lon="9.406931810081005">
        <ele>1574.78</ele>
        <time>2018-01-21T10:19:29Z</time>
      </trkpt>
      <trkpt lat="46.022185329347849" lon="9.406943460926414">
        <ele>1575.26</ele>
        <time>2018-01-21T10:19:37Z</time>
      </trkpt>
      <trkpt lat="46.022167643532157" lon="9.406962404027581">
        <ele>1576.7</ele>
        <time>2018-01-21T10:19:46Z</time>
      </trkpt>
      <trkpt lat="46.022112825885415" lon="9.407020742073655">
        <ele>1579.5799999999999</ele>
        <time>2018-01-21T10:19:56Z</time>
      </trkpt>
      <trkpt lat="46.022070413455367" lon="9.407075392082334">
        <ele>1582.47</ele>
        <time>2018-01-21T10:20:04Z</time>
      </trkpt>
      <trkpt lat="46.022047027945518" lon="9.407125348225236">
        <ele>1581.03</ele>
        <time>2018-01-21T10:20:12Z</time>
      </trkpt>
      <trkpt lat="46.022052895277739" lon="9.407172203063965">
        <ele>1580.0599999999999</ele>
        <time>2018-01-21T10:20:23Z</time>
      </trkpt>
      <trkpt lat="46.022066306322813" lon="9.407288460060954">
        <ele>1581.51</ele>
        <time>2018-01-21T10:20:34Z</time>
      </trkpt>
      <trkpt lat="46.022068904712796" lon="9.407315198332071">
        <ele>1582.95</ele>
        <time>2018-01-21T10:20:36Z</time>
      </trkpt>
      <trkpt lat="46.02206907235086" lon="9.407303715124726">
        <ele>1582.47</ele>
        <time>2018-01-21T10:20:44Z</time>
      </trkpt>
      <trkpt lat="46.02206613868475" lon="9.407319640740752">
        <ele>1582.95</ele>
        <time>2018-01-21T10:20:54Z</time>
      </trkpt>
      <trkpt lat="46.022061360999942" lon="9.407310001552105">
        <ele>1582.95</ele>
        <time>2018-01-21T10:21:07Z</time>
      </trkpt>
      <trkpt lat="46.022059014067054" lon="9.407337326556444">
        <ele>1583.4300000000001</ele>
        <time>2018-01-21T10:21:16Z</time>
      </trkpt>
      <trkpt lat="46.022065551951528" lon="9.407330537214875">
        <ele>1583.4300000000001</ele>
        <time>2018-01-21T10:21:24Z</time>
      </trkpt>
      <trkpt lat="46.022068653255701" lon="9.407358197495341">
        <ele>1583.9100000000001</ele>
        <time>2018-01-21T10:21:41Z</time>
      </trkpt>
      <trkpt lat="46.022076029330492" lon="9.407347720116377">
        <ele>1584.3900000000001</ele>
        <time>2018-01-21T10:21:51Z</time>
      </trkpt>
      <trkpt lat="46.022083070129156" lon="9.407347301021218">
        <ele>1583.4300000000001</ele>
        <time>2018-01-21T10:22:00Z</time>
      </trkpt>
      <trkpt lat="46.02207837626338" lon="9.407342188060284">
        <ele>1584.3900000000001</ele>
        <time>2018-01-21T10:22:17Z</time>
      </trkpt>
      <trkpt lat="46.022083405405283" lon="9.407354006543756">
        <ele>1583.9100000000001</ele>
        <time>2018-01-21T10:22:27Z</time>
      </trkpt>
      <trkpt lat="46.022078208625317" lon="9.407351994886994">
        <ele>1584.3900000000001</ele>
        <time>2018-01-21T10:22:47Z</time>
      </trkpt>
      <trkpt lat="46.022082315757871" lon="9.407340092584491">
        <ele>1583.9100000000001</ele>
        <time>2018-01-21T10:23:05Z</time>
      </trkpt>
      <trkpt lat="46.022094553336501" lon="9.407333135604858">
        <ele>1586.79</ele>
        <time>2018-01-21T10:23:15Z</time>
      </trkpt>
      <trkpt lat="46.022109724581242" lon="9.407332800328732">
        <ele>1586.3099999999999</ele>
        <time>2018-01-21T10:23:25Z</time>
      </trkpt>
      <trkpt lat="46.022105868905783" lon="9.407350067049265">
        <ele>1587.75</ele>
        <time>2018-01-21T10:23:39Z</time>
      </trkpt>
      <trkpt lat="46.022092625498772" lon="9.407365825027227">
        <ele>1586.79</ele>
        <time>2018-01-21T10:23:42Z</time>
      </trkpt>
      <trkpt lat="46.0220617800951" lon="9.407342271879315">
        <ele>1586.3099999999999</ele>
        <time>2018-01-21T10:23:50Z</time>
      </trkpt>
      <trkpt lat="46.022071922197938" lon="9.407346043735743">
        <ele>1587.27</ele>
        <time>2018-01-21T10:24:01Z</time>
      </trkpt>
      <trkpt lat="46.0220876801759" lon="9.407405471429229">
        <ele>1587.75</ele>
        <time>2018-01-21T10:24:10Z</time>
      </trkpt>
      <trkpt lat="46.022105198353529" lon="9.407496498897672">
        <ele>1586.79</ele>
        <time>2018-01-21T10:24:19Z</time>
      </trkpt>
      <trkpt lat="46.022110311314464" lon="9.407543940469623">
        <ele>1586.79</ele>
        <time>2018-01-21T10:24:30Z</time>
      </trkpt>
      <trkpt lat="46.022128835320473" lon="9.407590460032225">
        <ele>1586.79</ele>
        <time>2018-01-21T10:24:43Z</time>
      </trkpt>
      <trkpt lat="46.022132020443678" lon="9.407622562721372">
        <ele>1587.75</ele>
        <time>2018-01-21T10:24:46Z</time>
      </trkpt>
      <trkpt lat="46.02213361300528" lon="9.4077592715621">
        <ele>1589.2</ele>
        <time>2018-01-21T10:24:58Z</time>
      </trkpt>
      <trkpt lat="46.022117603570223" lon="9.40782967954874">
        <ele>1590.1600000000001</ele>
        <time>2018-01-21T10:25:08Z</time>
      </trkpt>
      <trkpt lat="46.022105365991592" lon="9.407914252951741">
        <ele>1590.6400000000001</ele>
        <time>2018-01-21T10:25:16Z</time>
      </trkpt>
      <trkpt lat="46.022101007401943" lon="9.407948534935713">
        <ele>1592.5599999999999</ele>
        <time>2018-01-21T10:25:20Z</time>
      </trkpt>
      <trkpt lat="46.022097319364548" lon="9.408038724213839">
        <ele>1592.5599999999999</ele>
        <time>2018-01-21T10:25:31Z</time>
      </trkpt>
      <trkpt lat="46.022088099271059" lon="9.408153053373098">
        <ele>1594.48</ele>
        <time>2018-01-21T10:25:44Z</time>
      </trkpt>
      <trkpt lat="46.022084914147854" lon="9.408211978152394">
        <ele>1594.96</ele>
        <time>2018-01-21T10:25:50Z</time>
      </trkpt>
      <trkpt lat="46.02208717726171" lon="9.408228825777769">
        <ele>1595.9300000000001</ele>
        <time>2018-01-21T10:25:55Z</time>
      </trkpt>
      <trkpt lat="46.022065635770559" lon="9.408285822719336">
        <ele>1595.45</ele>
        <time>2018-01-21T10:26:00Z</time>
      </trkpt>
      <trkpt lat="46.022004364058375" lon="9.408411718904972">
        <ele>1596.4100000000001</ele>
        <time>2018-01-21T10:26:11Z</time>
      </trkpt>
      <trkpt lat="46.021974189206958" lon="9.408516744151712">
        <ele>1597.3699999999999</ele>
        <time>2018-01-21T10:26:21Z</time>
      </trkpt>
      <trkpt lat="46.021956838667393" lon="9.408571729436517">
        <ele>1598.8099999999999</ele>
        <time>2018-01-21T10:26:30Z</time>
      </trkpt>
      <trkpt lat="46.021918784826994" lon="9.408667366951704">
        <ele>1599.77</ele>
        <time>2018-01-21T10:26:40Z</time>
      </trkpt>
      <trkpt lat="46.021884670481086" lon="9.408749677240849">
        <ele>1601.21</ele>
        <time>2018-01-21T10:26:49Z</time>
      </trkpt>
      <trkpt lat="46.021823482587934" lon="9.40884162671864">
        <ele>1603.1400000000001</ele>
        <time>2018-01-21T10:27:00Z</time>
      </trkpt>
      <trkpt lat="46.021816777065396" lon="9.408855624496937">
        <ele>1603.6199999999999</ele>
        <time>2018-01-21T10:27:02Z</time>
      </trkpt>
      <trkpt lat="46.021771933883429" lon="9.408953776583076">
        <ele>1603.6199999999999</ele>
        <time>2018-01-21T10:27:12Z</time>
      </trkpt>
      <trkpt lat="46.021760869771242" lon="9.409005660563707">
        <ele>1604.5799999999999</ele>
        <time>2018-01-21T10:27:18Z</time>
      </trkpt>
      <trkpt lat="46.02173974737525" lon="9.409089898690581">
        <ele>1606.02</ele>
        <time>2018-01-21T10:27:28Z</time>
      </trkpt>
      <trkpt lat="46.021722480654716" lon="9.409157289192081">
        <ele>1606.5</ele>
        <time>2018-01-21T10:27:37Z</time>
      </trkpt>
      <trkpt lat="46.021703621372581" lon="9.409260721877217">
        <ele>1608.9000000000001</ele>
        <time>2018-01-21T10:27:50Z</time>
      </trkpt>
      <trkpt lat="46.021678559482098" lon="9.409298272803426">
        <ele>1608.9000000000001</ele>
        <time>2018-01-21T10:27:56Z</time>
      </trkpt>
      <trkpt lat="46.021656263619661" lon="9.409288549795747">
        <ele>1609.3800000000001</ele>
        <time>2018-01-21T10:28:08Z</time>
      </trkpt>
      <trkpt lat="46.021643523126841" lon="9.409276228398085">
        <ele>1609.3800000000001</ele>
        <time>2018-01-21T10:28:18Z</time>
      </trkpt>
      <trkpt lat="46.021646205335855" lon="9.409276563674212">
        <ele>1609.3800000000001</ele>
        <time>2018-01-21T10:28:20Z</time>
      </trkpt>
      <trkpt lat="46.02164595387876" lon="9.409289807081223">
        <ele>1609.3800000000001</ele>
        <time>2018-01-21T10:28:28Z</time>
      </trkpt>
      <trkpt lat="46.021639415994287" lon="9.409271450713277">
        <ele>1610.8299999999999</ele>
        <time>2018-01-21T10:28:39Z</time>
      </trkpt>
      <trkpt lat="46.021644864231348" lon="9.40926767885685">
        <ele>1609.8599999999999</ele>
        <time>2018-01-21T10:28:54Z</time>
      </trkpt>
      <trkpt lat="46.021649641916156" lon="9.409263320267201">
        <ele>1609.3800000000001</ele>
        <time>2018-01-21T10:29:11Z</time>
      </trkpt>
      <trkpt lat="46.021649558097124" lon="9.409258710220456">
        <ele>1609.8599999999999</ele>
        <time>2018-01-21T10:29:27Z</time>
      </trkpt>
      <trkpt lat="46.02165031246841" lon="9.409229625016451">
        <ele>1609.3800000000001</ele>
        <time>2018-01-21T10:29:42Z</time>
      </trkpt>
      <trkpt lat="46.021660957485437" lon="9.409239264205098">
        <ele>1608.9000000000001</ele>
        <time>2018-01-21T10:30:00Z</time>
      </trkpt>
      <trkpt lat="46.021649977192283" lon="9.409243622794747">
        <ele>1611.3099999999999</ele>
        <time>2018-01-21T10:30:16Z</time>
      </trkpt>
      <trkpt lat="46.021655844524503" lon="9.40922761335969">
        <ele>1609.8599999999999</ele>
        <time>2018-01-21T10:30:38Z</time>
      </trkpt>
      <trkpt lat="46.021661544218659" lon="9.409230127930641">
        <ele>1609.8599999999999</ele>
        <time>2018-01-21T10:30:54Z</time>
      </trkpt>
      <trkpt lat="46.021662717685103" lon="9.409222584217787">
        <ele>1610.8299999999999</ele>
        <time>2018-01-21T10:31:14Z</time>
      </trkpt>
      <trkpt lat="46.021669004112482" lon="9.40923691727221">
        <ele>1610.3499999999999</ele>
        <time>2018-01-21T10:31:32Z</time>
      </trkpt>
      <trkpt lat="46.021655676886439" lon="9.409230463206768">
        <ele>1610.3499999999999</ele>
        <time>2018-01-21T10:31:48Z</time>
      </trkpt>
      <trkpt lat="46.021661125123501" lon="9.409267762675881">
        <ele>1610.8299999999999</ele>
        <time>2018-01-21T10:32:01Z</time>
      </trkpt>
      <trkpt lat="46.021615443751216" lon="9.409329956397414">
        <ele>1610.8299999999999</ele>
        <time>2018-01-21T10:32:09Z</time>
      </trkpt>
      <trkpt lat="46.021576803177595" lon="9.409350911155343">
        <ele>1612.27</ele>
        <time>2018-01-21T10:32:17Z</time>
      </trkpt>
      <trkpt lat="46.021566661074758" lon="9.409360969439149">
        <ele>1612.27</ele>
        <time>2018-01-21T10:32:26Z</time>
      </trkpt>
      <trkpt lat="46.021477309986949" lon="9.409413021057844">
        <ele>1613.23</ele>
        <time>2018-01-21T10:32:37Z</time>
      </trkpt>
      <trkpt lat="46.021431796252728" lon="9.409443698823452">
        <ele>1613.71</ele>
        <time>2018-01-21T10:32:42Z</time>
      </trkpt>
      <trkpt lat="46.021356442943215" lon="9.409494828432798">
        <ele>1615.6300000000001</ele>
        <time>2018-01-21T10:32:53Z</time>
      </trkpt>
      <trkpt lat="46.021289806813002" lon="9.409532798454166">
        <ele>1617.5599999999999</ele>
        <time>2018-01-21T10:33:04Z</time>
      </trkpt>
      <trkpt lat="46.021205820143223" lon="9.409566493704915">
        <ele>1619</ele>
        <time>2018-01-21T10:33:14Z</time>
      </trkpt>
      <trkpt lat="46.021151170134544" lon="9.409615779295564">
        <ele>1617.5599999999999</ele>
        <time>2018-01-21T10:33:25Z</time>
      </trkpt>
      <trkpt lat="46.021087970584631" lon="9.409687276929617">
        <ele>1619.48</ele>
        <time>2018-01-21T10:33:36Z</time>
      </trkpt>
      <trkpt lat="46.021047569811344" lon="9.409785177558661">
        <ele>1619.96</ele>
        <time>2018-01-21T10:33:46Z</time>
      </trkpt>
      <trkpt lat="46.021018316969275" lon="9.409868158400059">
        <ele>1621.4000000000001</ele>
        <time>2018-01-21T10:33:56Z</time>
      </trkpt>
      <trkpt lat="46.020988812670112" lon="9.409973518922925">
        <ele>1621.8800000000001</ele>
        <time>2018-01-21T10:34:07Z</time>
      </trkpt>
      <trkpt lat="46.020972467958927" lon="9.410029342398047">
        <ele>1622.3599999999999</ele>
        <time>2018-01-21T10:34:12Z</time>
      </trkpt>
      <trkpt lat="46.020930139347911" lon="9.410148533061147">
        <ele>1622.3599999999999</ele>
        <time>2018-01-21T10:34:23Z</time>
      </trkpt>
      <trkpt lat="46.02093106135726" lon="9.410157166421413">
        <ele>1623.8</ele>
        <time>2018-01-21T10:34:33Z</time>
      </trkpt>
      <trkpt lat="46.020915890112519" lon="9.410213073715568">
        <ele>1623.3199999999999</ele>
        <time>2018-01-21T10:34:45Z</time>
      </trkpt>
      <trkpt lat="46.020892253145576" lon="9.410303346812725">
        <ele>1625.25</ele>
        <time>2018-01-21T10:34:53Z</time>
      </trkpt>
      <trkpt lat="46.020856713876128" lon="9.410426560789347">
        <ele>1624.28</ele>
        <time>2018-01-21T10:35:04Z</time>
      </trkpt>
      <trkpt lat="46.020823353901505" lon="9.410544410347939">
        <ele>1626.6900000000001</ele>
        <time>2018-01-21T10:35:15Z</time>
      </trkpt>
      <trkpt lat="46.020804746076465" lon="9.410662679001689">
        <ele>1627.1700000000001</ele>
        <time>2018-01-21T10:35:25Z</time>
      </trkpt>
      <trkpt lat="46.020777923986316" lon="9.410782959312201">
        <ele>1629.5699999999999</ele>
        <time>2018-01-21T10:35:35Z</time>
      </trkpt>
      <trkpt lat="46.020761327818036" lon="9.410837944597006">
        <ele>1630.05</ele>
        <time>2018-01-21T10:35:40Z</time>
      </trkpt>
      <trkpt lat="46.020717993378639" lon="9.410954704508185">
        <ele>1631.01</ele>
        <time>2018-01-21T10:35:51Z</time>
      </trkpt>
      <trkpt lat="46.020692093297839" lon="9.411026872694492">
        <ele>1632.46</ele>
        <time>2018-01-21T10:36:00Z</time>
      </trkpt>
      <trkpt lat="46.020664852112532" lon="9.411143716424704">
        <ele>1633.9000000000001</ele>
        <time>2018-01-21T10:36:10Z</time>
      </trkpt>
      <trkpt lat="46.020628474652767" lon="9.411250334233046">
        <ele>1633.4200000000001</ele>
        <time>2018-01-21T10:36:21Z</time>
      </trkpt>
      <trkpt lat="46.020609196275473" lon="9.411342535167933">
        <ele>1634.8599999999999</ele>
        <time>2018-01-21T10:36:30Z</time>
      </trkpt>
      <trkpt lat="46.020591342821717" lon="9.411431550979614">
        <ele>1636.3</ele>
        <time>2018-01-21T10:36:40Z</time>
      </trkpt>
      <trkpt lat="46.020564353093505" lon="9.411560716107488">
        <ele>1636.78</ele>
        <time>2018-01-21T10:36:51Z</time>
      </trkpt>
      <trkpt lat="46.020556725561619" lon="9.411647636443377">
        <ele>1638.22</ele>
        <time>2018-01-21T10:37:01Z</time>
      </trkpt>
      <trkpt lat="46.020540632307529" lon="9.411764228716493">
        <ele>1639.1900000000001</ele>
        <time>2018-01-21T10:37:12Z</time>
      </trkpt>
      <trkpt lat="46.020519761368632" lon="9.411858692765236">
        <ele>1640.6300000000001</ele>
        <time>2018-01-21T10:37:22Z</time>
      </trkpt>
      <trkpt lat="46.020500734448433" lon="9.411999508738518">
        <ele>1642.0699999999999</ele>
        <time>2018-01-21T10:37:35Z</time>
      </trkpt>
      <trkpt lat="46.020480617880821" lon="9.412109479308128">
        <ele>1643.51</ele>
        <time>2018-01-21T10:37:45Z</time>
      </trkpt>
      <trkpt lat="46.02045807056129" lon="9.412191119045019">
        <ele>1644.47</ele>
        <time>2018-01-21T10:37:54Z</time>
      </trkpt>
      <trkpt lat="46.02044046856463" lon="9.412350039929152">
        <ele>1644.95</ele>
        <time>2018-01-21T10:38:07Z</time>
      </trkpt>
      <trkpt lat="46.020431416109204" lon="9.412449700757861">
        <ele>1645.9100000000001</ele>
        <time>2018-01-21T10:38:17Z</time>
      </trkpt>
      <trkpt lat="46.020407611504197" lon="9.412535363808274">
        <ele>1646.4000000000001</ele>
        <time>2018-01-21T10:38:26Z</time>
      </trkpt>
      <trkpt lat="46.020388249307871" lon="9.412545757368207">
        <ele>1646.4000000000001</ele>
        <time>2018-01-21T10:38:36Z</time>
      </trkpt>
      <trkpt lat="46.020385650917888" lon="9.412535615265369">
        <ele>1646.4000000000001</ele>
        <time>2018-01-21T10:38:46Z</time>
      </trkpt>
      <trkpt lat="46.020394116640091" lon="9.412538968026638">
        <ele>1646.8800000000001</ele>
        <time>2018-01-21T10:38:57Z</time>
      </trkpt>
      <trkpt lat="46.020393949002028" lon="9.412534022703767">
        <ele>1647.8399999999999</ele>
        <time>2018-01-21T10:39:07Z</time>
      </trkpt>
      <trkpt lat="46.020390763878822" lon="9.412528406828642">
        <ele>1647.3599999999999</ele>
        <time>2018-01-21T10:39:22Z</time>
      </trkpt>
      <trkpt lat="46.020394368097186" lon="9.41252589225769">
        <ele>1647.3599999999999</ele>
        <time>2018-01-21T10:39:32Z</time>
      </trkpt>
      <trkpt lat="46.020392691716552" lon="9.412519102916122">
        <ele>1647.3599999999999</ele>
        <time>2018-01-21T10:39:43Z</time>
      </trkpt>
      <trkpt lat="46.020412473008037" lon="9.412419442087412">
        <ele>1646.4000000000001</ele>
        <time>2018-01-21T10:39:54Z</time>
      </trkpt>
      <trkpt lat="46.020417418330908" lon="9.412442995235324">
        <ele>1645.9100000000001</ele>
        <time>2018-01-21T10:40:07Z</time>
      </trkpt>
      <trkpt lat="46.020406186580658" lon="9.412463195621967">
        <ele>1646.4000000000001</ele>
        <time>2018-01-21T10:40:19Z</time>
      </trkpt>
      <trkpt lat="46.020414149388671" lon="9.412451712414622">
        <ele>1646.4000000000001</ele>
        <time>2018-01-21T10:40:30Z</time>
      </trkpt>
      <trkpt lat="46.020417837426066" lon="9.412454562261701">
        <ele>1646.4000000000001</ele>
        <time>2018-01-21T10:40:41Z</time>
      </trkpt>
      <trkpt lat="46.020409539341927" lon="9.41243109293282">
        <ele>1646.8800000000001</ele>
        <time>2018-01-21T10:40:51Z</time>
      </trkpt>
      <trkpt lat="46.020404845476151" lon="9.412485575303435">
        <ele>1647.3599999999999</ele>
        <time>2018-01-21T10:41:01Z</time>
      </trkpt>
      <trkpt lat="46.020401576533914" lon="9.412485072389245">
        <ele>1648.3199999999999</ele>
        <time>2018-01-21T10:41:15Z</time>
      </trkpt>
      <trkpt lat="46.020413646474481" lon="9.412493454292417">
        <ele>1647.3599999999999</ele>
        <time>2018-01-21T10:41:31Z</time>
      </trkpt>
      <trkpt lat="46.020410377532244" lon="9.412491023540497">
        <ele>1647.8399999999999</ele>
        <time>2018-01-21T10:41:47Z</time>
      </trkpt>
      <trkpt lat="46.020402414724231" lon="9.412484653294087">
        <ele>1648.3199999999999</ele>
        <time>2018-01-21T10:42:04Z</time>
      </trkpt>
      <trkpt lat="46.02039797231555" lon="9.412490436807275">
        <ele>1647.3599999999999</ele>
        <time>2018-01-21T10:42:16Z</time>
      </trkpt>
      <trkpt lat="46.020397553220391" lon="9.412484066560864">
        <ele>1648.3199999999999</ele>
        <time>2018-01-21T10:42:31Z</time>
      </trkpt>
      <trkpt lat="46.020398810505867" lon="9.412533855065703">
        <ele>1647.8399999999999</ele>
        <time>2018-01-21T10:42:39Z</time>
      </trkpt>
      <trkpt lat="46.020401157438755" lon="9.412500075995922">
        <ele>1651.2</ele>
        <time>2018-01-21T10:42:52Z</time>
      </trkpt>
      <trkpt lat="46.020398056134582" lon="9.412500914186239">
        <ele>1651.2</ele>
        <time>2018-01-21T10:42:53Z</time>
      </trkpt>
      <trkpt lat="46.020384645089507" lon="9.412504602223635">
        <ele>1649.28</ele>
        <time>2018-01-21T10:43:10Z</time>
      </trkpt>
      <trkpt lat="46.020372910425067" lon="9.412508038803935">
        <ele>1648.8</ele>
        <time>2018-01-21T10:43:16Z</time>
      </trkpt>
      <trkpt lat="46.020328234881163" lon="9.412470236420631">
        <ele>1646.4000000000001</ele>
        <time>2018-01-21T10:43:21Z</time>
      </trkpt>
      <trkpt lat="46.020294791087508" lon="9.412458082661033">
        <ele>1644.47</ele>
        <time>2018-01-21T10:43:24Z</time>
      </trkpt>
      <trkpt lat="46.020288756117225" lon="9.412444336339831">
        <ele>1641.1099999999999</ele>
        <time>2018-01-21T10:43:32Z</time>
      </trkpt>
      <trkpt lat="46.020286828279495" lon="9.412440061569214">
        <ele>1643.51</ele>
        <time>2018-01-21T10:43:53Z</time>
      </trkpt>
      <trkpt lat="46.020304011180997" lon="9.412479205057025">
        <ele>1644.47</ele>
        <time>2018-01-21T10:44:02Z</time>
      </trkpt>
      <trkpt lat="46.020336784422398" lon="9.412516755983234">
        <ele>1643.03</ele>
        <time>2018-01-21T10:44:11Z</time>
      </trkpt>
      <trkpt lat="46.020355056971312" lon="9.412539806216955">
        <ele>1646.8800000000001</ele>
        <time>2018-01-21T10:44:17Z</time>
      </trkpt>
      <trkpt lat="46.020383974537253" lon="9.412564532831311">
        <ele>1648.8</ele>
        <time>2018-01-21T10:44:25Z</time>
      </trkpt>
      <trkpt lat="46.020382549613714" lon="9.412558916956186">
        <ele>1648.3199999999999</ele>
        <time>2018-01-21T10:44:39Z</time>
      </trkpt>
      <trkpt lat="46.020385734736919" lon="9.412576267495751">
        <ele>1647.8399999999999</ele>
        <time>2018-01-21T10:44:51Z</time>
      </trkpt>
      <trkpt lat="46.020380118861794" lon="9.412589594721794">
        <ele>1651.2</ele>
        <time>2018-01-21T10:45:00Z</time>
      </trkpt>
      <trkpt lat="46.020378777757287" lon="9.412586661055684">
        <ele>1651.2</ele>
        <time>2018-01-21T10:45:01Z</time>
      </trkpt>
      <trkpt lat="46.020382046699524" lon="9.412623625248671">
        <ele>1647.8399999999999</ele>
        <time>2018-01-21T10:45:10Z</time>
      </trkpt>
      <trkpt lat="46.02039210498333" lon="9.41261088475585">
        <ele>1648.8</ele>
        <time>2018-01-21T10:45:19Z</time>
      </trkpt>
      <trkpt lat="46.020393781363964" lon="9.412613064050674">
        <ele>1648.8</ele>
        <time>2018-01-21T10:45:30Z</time>
      </trkpt>
      <trkpt lat="46.020392440259457" lon="9.412609459832311">
        <ele>1647.3599999999999</ele>
        <time>2018-01-21T10:45:33Z</time>
      </trkpt>
      <trkpt lat="46.020392021164298" lon="9.412617841735482">
        <ele>1647.3599999999999</ele>
        <time>2018-01-21T10:45:40Z</time>
      </trkpt>
      <trkpt lat="46.020392440259457" lon="9.412604765966535">
        <ele>1648.8</ele>
        <time>2018-01-21T10:45:43Z</time>
      </trkpt>
      <trkpt lat="46.020403755828738" lon="9.41260501742363">
        <ele>1649.76</ele>
        <time>2018-01-21T10:45:53Z</time>
      </trkpt>
      <trkpt lat="46.020393194630742" lon="9.412581045180559">
        <ele>1648.8</ele>
        <time>2018-01-21T10:46:07Z</time>
      </trkpt>
      <trkpt lat="46.02039746940136" lon="9.41260845400393">
        <ele>1648.8</ele>
        <time>2018-01-21T10:46:25Z</time>
      </trkpt>
      <trkpt lat="46.020384561270475" lon="9.412614908069372">
        <ele>1648.3199999999999</ele>
        <time>2018-01-21T10:46:40Z</time>
      </trkpt>
      <trkpt lat="46.020378693938255" lon="9.412625301629305">
        <ele>1646.8800000000001</ele>
        <time>2018-01-21T10:46:49Z</time>
      </trkpt>
      <trkpt lat="46.020391602069139" lon="9.412622284144163">
        <ele>1649.76</ele>
        <time>2018-01-21T10:46:56Z</time>
      </trkpt>
      <trkpt lat="46.020393194630742" lon="9.412618177011609">
        <ele>1648.8</ele>
        <time>2018-01-21T10:46:57Z</time>
      </trkpt>
      <trkpt lat="46.020385064184666" lon="9.412562102079392">
        <ele>1650.24</ele>
        <time>2018-01-21T10:47:11Z</time>
      </trkpt>
      <trkpt lat="46.020378023386002" lon="9.412544248625636">
        <ele>1649.76</ele>
        <time>2018-01-21T10:47:25Z</time>
      </trkpt>
      <trkpt lat="46.02039746940136" lon="9.412528825923801">
        <ele>1649.76</ele>
        <time>2018-01-21T10:47:40Z</time>
      </trkpt>
      <trkpt lat="46.02040727622807" lon="9.412521030753851">
        <ele>1649.28</ele>
        <time>2018-01-21T10:47:58Z</time>
      </trkpt>
      <trkpt lat="46.020432002842426" lon="9.412536956369877">
        <ele>1649.28</ele>
        <time>2018-01-21T10:48:07Z</time>
      </trkpt>
      <trkpt lat="46.02042923681438" lon="9.412537375465035">
        <ele>1649.28</ele>
        <time>2018-01-21T10:48:22Z</time>
      </trkpt>
      <trkpt lat="46.020437702536583" lon="9.412554642185569">
        <ele>1650.24</ele>
        <time>2018-01-21T10:48:34Z</time>
      </trkpt>
      <trkpt lat="46.020443318411708" lon="9.412537543103099">
        <ele>1651.6800000000001</ele>
        <time>2018-01-21T10:48:58Z</time>
      </trkpt>
      <trkpt lat="46.020456561818719" lon="9.412581715732813">
        <ele>1650.24</ele>
        <time>2018-01-21T10:49:17Z</time>
      </trkpt>
      <trkpt lat="46.020461171865463" lon="9.412630666047335">
        <ele>1652.6400000000001</ele>
        <time>2018-01-21T10:49:37Z</time>
      </trkpt>
      <trkpt lat="46.020458992570639" lon="9.412641059607267">
        <ele>1652.6400000000001</ele>
        <time>2018-01-21T10:49:53Z</time>
      </trkpt>
      <trkpt lat="46.020460920408368" lon="9.412646675482392">
        <ele>1651.2</ele>
        <time>2018-01-21T10:49:56Z</time>
      </trkpt>
      <trkpt lat="46.020433008670807" lon="9.412712389603257">
        <ele>1652.1600000000001</ele>
        <time>2018-01-21T10:50:06Z</time>
      </trkpt>
      <trkpt lat="46.020362684503198" lon="9.412800734862685">
        <ele>1651.2</ele>
        <time>2018-01-21T10:50:17Z</time>
      </trkpt>
      <trkpt lat="46.020359918475151" lon="9.412792520597577">
        <ele>1652.1600000000001</ele>
        <time>2018-01-21T10:50:28Z</time>
      </trkpt>
      <trkpt lat="46.020353548228741" lon="9.412823617458344">
        <ele>1653.1199999999999</ele>
        <time>2018-01-21T10:50:31Z</time>
      </trkpt>
      <trkpt lat="46.020329995080829" lon="9.412908861413598">
        <ele>1653.5999999999999</ele>
        <time>2018-01-21T10:50:41Z</time>
      </trkpt>
      <trkpt lat="46.020302586257458" lon="9.412979269400239">
        <ele>1654.5699999999999</ele>
        <time>2018-01-21T10:50:50Z</time>
      </trkpt>
      <trkpt lat="46.020265035331249" lon="9.413076164200902">
        <ele>1655.53</ele>
        <time>2018-01-21T10:50:59Z</time>
      </trkpt>
      <trkpt lat="46.020248103886843" lon="9.413171969354153">
        <ele>1657.45</ele>
        <time>2018-01-21T10:51:10Z</time>
      </trkpt>
      <trkpt lat="46.020207786932588" lon="9.413242125883699">
        <ele>1656.97</ele>
        <time>2018-01-21T10:51:19Z</time>
      </trkpt>
      <trkpt lat="46.020134361460805" lon="9.413380259647965">
        <ele>1658.4100000000001</ele>
        <time>2018-01-21T10:51:31Z</time>
      </trkpt>
      <trkpt lat="46.020113490521908" lon="9.413432395085692">
        <ele>1660.3299999999999</ele>
        <time>2018-01-21T10:51:37Z</time>
      </trkpt>
      <trkpt lat="46.020107455551624" lon="9.413440944626927">
        <ele>1661.3</ele>
        <time>2018-01-21T10:51:38Z</time>
      </trkpt>
      <trkpt lat="46.020087674260139" lon="9.413505401462317">
        <ele>1660.8099999999999</ele>
        <time>2018-01-21T10:51:44Z</time>
      </trkpt>
      <trkpt lat="46.020065378397703" lon="9.413604894652963">
        <ele>1661.3</ele>
        <time>2018-01-21T10:51:55Z</time>
      </trkpt>
      <trkpt lat="46.020057499408722" lon="9.413686618208885">
        <ele>1662.26</ele>
        <time>2018-01-21T10:52:04Z</time>
      </trkpt>
      <trkpt lat="46.020052470266819" lon="9.413741435855627">
        <ele>1663.22</ele>
        <time>2018-01-21T10:52:10Z</time>
      </trkpt>
      <trkpt lat="46.020046770572662" lon="9.413772700354457">
        <ele>1661.78</ele>
        <time>2018-01-21T10:52:13Z</time>
      </trkpt>
      <trkpt lat="46.020032856613398" lon="9.413857525214553">
        <ele>1662.74</ele>
        <time>2018-01-21T10:52:23Z</time>
      </trkpt>
      <trkpt lat="46.019999664276838" lon="9.413998676463962">
        <ele>1664.6600000000001</ele>
        <time>2018-01-21T10:52:34Z</time>
      </trkpt>
      <trkpt lat="46.019964711740613" lon="9.414114765822887">
        <ele>1665.6199999999999</ele>
        <time>2018-01-21T10:52:45Z</time>
      </trkpt>
      <trkpt lat="46.019954737275839" lon="9.414185928180814">
        <ele>1668.02</ele>
        <time>2018-01-21T10:52:55Z</time>
      </trkpt>
      <trkpt lat="46.019939398393035" lon="9.41423462703824">
        <ele>1667.0599999999999</ele>
        <time>2018-01-21T10:53:00Z</time>
      </trkpt>
      <trkpt lat="46.01990545168519" lon="9.414358008652926">
        <ele>1666.5799999999999</ele>
        <time>2018-01-21T10:53:10Z</time>
      </trkpt>
      <trkpt lat="46.019889023154974" lon="9.414467476308346">
        <ele>1668.99</ele>
        <time>2018-01-21T10:53:20Z</time>
      </trkpt>
      <trkpt lat="46.019840575754642" lon="9.414615165442228">
        <ele>1667.0599999999999</ele>
        <time>2018-01-21T10:53:32Z</time>
      </trkpt>
      <trkpt lat="46.019801013171673" lon="9.414678448811173">
        <ele>1667.0599999999999</ele>
        <time>2018-01-21T10:53:41Z</time>
      </trkpt>
      <trkpt lat="46.019764551892877" lon="9.414785820990801">
        <ele>1666.0999999999999</ele>
        <time>2018-01-21T10:53:53Z</time>
      </trkpt>
      <trkpt lat="46.019734209403396" lon="9.414840470999479">
        <ele>1668.02</ele>
        <time>2018-01-21T10:53:57Z</time>
      </trkpt>
      <trkpt lat="46.019714176654816" lon="9.414879279211164">
        <ele>1669.95</ele>
        <time>2018-01-21T10:54:02Z</time>
      </trkpt>
      <trkpt lat="46.019670926034451" lon="9.414996709674597">
        <ele>1671.3900000000001</ele>
        <time>2018-01-21T10:54:14Z</time>
      </trkpt>
      <trkpt lat="46.019659023731947" lon="9.41503057256341">
        <ele>1669.95</ele>
        <time>2018-01-21T10:54:17Z</time>
      </trkpt>
      <trkpt lat="46.019640751183033" lon="9.415054712444544">
        <ele>1670.9100000000001</ele>
        <time>2018-01-21T10:54:19Z</time>
      </trkpt>
      <trkpt lat="46.01958685554564" lon="9.415142135694623">
        <ele>1671.3900000000001</ele>
        <time>2018-01-21T10:54:29Z</time>
      </trkpt>
      <trkpt lat="46.019537234678864" lon="9.415226960554719">
        <ele>1671.3900000000001</ele>
        <time>2018-01-21T10:54:38Z</time>
      </trkpt>
      <trkpt lat="46.019479231908917" lon="9.415327459573746">
        <ele>1672.3499999999999</ele>
        <time>2018-01-21T10:54:49Z</time>
      </trkpt>
      <trkpt lat="46.019403878599405" lon="9.415420163422823">
        <ele>1673.3099999999999</ele>
        <time>2018-01-21T10:55:00Z</time>
      </trkpt>
      <trkpt lat="46.019363477826118" lon="9.415540527552366">
        <ele>1674.27</ele>
        <time>2018-01-21T10:55:12Z</time>
      </trkpt>
      <trkpt lat="46.01936012506485" lon="9.415571456775069">
        <ele>1674.27</ele>
        <time>2018-01-21T10:55:15Z</time>
      </trkpt>
      <trkpt lat="46.019345205277205" lon="9.415697939693928">
        <ele>1673.3099999999999</ele>
        <time>2018-01-21T10:55:25Z</time>
      </trkpt>
      <trkpt lat="46.019324501976371" lon="9.415817717090249">
        <ele>1675.23</ele>
        <time>2018-01-21T10:55:35Z</time>
      </trkpt>
      <trkpt lat="46.019327519461513" lon="9.415881084278226">
        <ele>1675.23</ele>
        <time>2018-01-21T10:55:41Z</time>
      </trkpt>
      <trkpt lat="46.019298015162349" lon="9.415968004614115">
        <ele>1678.1199999999999</ele>
        <time>2018-01-21T10:55:49Z</time>
      </trkpt>
      <trkpt lat="46.01928636431694" lon="9.416039921343327">
        <ele>1678.5999999999999</ele>
        <time>2018-01-21T10:55:58Z</time>
      </trkpt>
      <trkpt lat="46.019257279112935" lon="9.416160956025124">
        <ele>1678.5999999999999</ele>
        <time>2018-01-21T10:56:08Z</time>
      </trkpt>
      <trkpt lat="46.019218135625124" lon="9.41628291271627">
        <ele>1677.1600000000001</ele>
        <time>2018-01-21T10:56:19Z</time>
      </trkpt>
      <trkpt lat="46.019198186695576" lon="9.416388692334294">
        <ele>1680.04</ele>
        <time>2018-01-21T10:56:29Z</time>
      </trkpt>
      <trkpt lat="46.019171783700585" lon="9.416514839977026">
        <ele>1681</ele>
        <time>2018-01-21T10:56:39Z</time>
      </trkpt>
      <trkpt lat="46.019149655476213" lon="9.416617434471846">
        <ele>1681.48</ele>
        <time>2018-01-21T10:56:49Z</time>
      </trkpt>
      <trkpt lat="46.019131718203425" lon="9.416719106957316">
        <ele>1681.48</ele>
        <time>2018-01-21T10:56:57Z</time>
      </trkpt>
      <trkpt lat="46.019107662141323" lon="9.416815498843789">
        <ele>1683.8900000000001</ele>
        <time>2018-01-21T10:57:07Z</time>
      </trkpt>
      <trkpt lat="46.019070027396083" lon="9.416950615122914">
        <ele>1684.3699999999999</ele>
        <time>2018-01-21T10:57:20Z</time>
      </trkpt>
      <trkpt lat="46.019052173942327" lon="9.417041391134262">
        <ele>1684.8499999999999</ele>
        <time>2018-01-21T10:57:29Z</time>
      </trkpt>
      <trkpt lat="46.019023256376386" lon="9.41714390181005">
        <ele>1686.29</ele>
        <time>2018-01-21T10:57:38Z</time>
      </trkpt>
      <trkpt lat="46.019006157293916" lon="9.417203916236758">
        <ele>1687.25</ele>
        <time>2018-01-21T10:57:44Z</time>
      </trkpt>
      <trkpt lat="46.01897849701345" lon="9.417319586500526">
        <ele>1685.8099999999999</ele>
        <time>2018-01-21T10:57:55Z</time>
      </trkpt>
      <trkpt lat="46.018963912501931" lon="9.417375661432743">
        <ele>1688.6900000000001</ele>
        <time>2018-01-21T10:57:59Z</time>
      </trkpt>
      <trkpt lat="46.018932648003101" lon="9.417432909831405">
        <ele>1691.5799999999999</ele>
        <time>2018-01-21T10:58:06Z</time>
      </trkpt>
      <trkpt lat="46.018928457051516" lon="9.417443051934242">
        <ele>1692.0599999999999</ele>
        <time>2018-01-21T10:58:07Z</time>
      </trkpt>
      <trkpt lat="46.01888126693666" lon="9.417592417448759">
        <ele>1690.6199999999999</ele>
        <time>2018-01-21T10:58:19Z</time>
      </trkpt>
      <trkpt lat="46.018840447068214" lon="9.417719403281808">
        <ele>1692.54</ele>
        <time>2018-01-21T10:58:30Z</time>
      </trkpt>
      <trkpt lat="46.018803901970387" lon="9.417815040796995">
        <ele>1689.1700000000001</ele>
        <time>2018-01-21T10:58:40Z</time>
      </trkpt>
      <trkpt lat="46.018768781796098" lon="9.417905984446406">
        <ele>1693.02</ele>
        <time>2018-01-21T10:58:49Z</time>
      </trkpt>
      <trkpt lat="46.01874397136271" lon="9.41801218315959">
        <ele>1694.46</ele>
        <time>2018-01-21T10:58:58Z</time>
      </trkpt>
      <trkpt lat="46.0187444742769" lon="9.418022828176618">
        <ele>1694.9400000000001</ele>
        <time>2018-01-21T10:58:59Z</time>
      </trkpt>
      <trkpt lat="46.018724692985415" lon="9.418088542297483">
        <ele>1694.9400000000001</ele>
        <time>2018-01-21T10:59:05Z</time>
      </trkpt>
      <trkpt lat="46.018693512305617" lon="9.418207565322518">
        <ele>1694.9400000000001</ele>
        <time>2018-01-21T10:59:16Z</time>
      </trkpt>
      <trkpt lat="46.01863257586956" lon="9.4183449447155">
        <ele>1693.98</ele>
        <time>2018-01-21T10:59:28Z</time>
      </trkpt>
      <trkpt lat="46.018627965822816" lon="9.418354500085115">
        <ele>1693.98</ele>
        <time>2018-01-21T10:59:29Z</time>
      </trkpt>
      <trkpt lat="46.018568789586425" lon="9.418426752090454">
        <ele>1692.54</ele>
        <time>2018-01-21T10:59:38Z</time>
      </trkpt>
      <trkpt lat="46.018512044101954" lon="9.41851400770247">
        <ele>1694.9400000000001</ele>
        <time>2018-01-21T10:59:47Z</time>
      </trkpt>
      <trkpt lat="46.018464686349034" lon="9.418577123433352">
        <ele>1695.4200000000001</ele>
        <time>2018-01-21T10:59:55Z</time>
      </trkpt>
      <trkpt lat="46.018404671922326" lon="9.418663373216987">
        <ele>1693.98</ele>
        <time>2018-01-21T11:00:05Z</time>
      </trkpt>
      <trkpt lat="46.018344908952713" lon="9.41874124109745">
        <ele>1693.5</ele>
        <time>2018-01-21T11:00:15Z</time>
      </trkpt>
      <trkpt lat="46.018284475430846" lon="9.418816342949867">
        <ele>1694.46</ele>
        <time>2018-01-21T11:00:25Z</time>
      </trkpt>
      <trkpt lat="46.018212977796793" lon="9.418882308527827">
        <ele>1695.4200000000001</ele>
        <time>2018-01-21T11:00:36Z</time>
      </trkpt>
      <trkpt lat="46.018198728561401" lon="9.418881637975574">
        <ele>1693.98</ele>
        <time>2018-01-21T11:00:44Z</time>
      </trkpt>
      <trkpt lat="46.018214905634522" lon="9.418900329619646">
        <ele>1694.9400000000001</ele>
        <time>2018-01-21T11:00:55Z</time>
      </trkpt>
      <trkpt lat="46.018197471275926" lon="9.418905107304454">
        <ele>1693.98</ele>
        <time>2018-01-21T11:01:06Z</time>
      </trkpt>
      <trkpt lat="46.018237872049212" lon="9.418901922181249">
        <ele>1696.3800000000001</ele>
        <time>2018-01-21T11:01:16Z</time>
      </trkpt>
      <trkpt lat="46.01823091506958" lon="9.418885912746191">
        <ele>1695.4200000000001</ele>
        <time>2018-01-21T11:01:30Z</time>
      </trkpt>
      <trkpt lat="46.018269639462233" lon="9.418882392346859">
        <ele>1696.3800000000001</ele>
        <time>2018-01-21T11:01:43Z</time>
      </trkpt>
      <trkpt lat="46.018323199823499" lon="9.418884236365557">
        <ele>1697.3399999999999</ele>
        <time>2018-01-21T11:01:51Z</time>
      </trkpt>
      <trkpt lat="46.018374329432845" lon="9.418883146718144">
        <ele>1700.71</ele>
        <time>2018-01-21T11:02:02Z</time>
      </trkpt>
      <trkpt lat="46.018390506505966" lon="9.418869316577911">
        <ele>1700.71</ele>
        <time>2018-01-21T11:02:13Z</time>
      </trkpt>
      <trkpt lat="46.018437948077917" lon="9.41886093467474">
        <ele>1701.1900000000001</ele>
        <time>2018-01-21T11:02:27Z</time>
      </trkpt>
      <trkpt lat="46.018471559509635" lon="9.418864035978913">
        <ele>1704.55</ele>
        <time>2018-01-21T11:02:32Z</time>
      </trkpt>
      <trkpt lat="46.018476337194443" lon="9.418859845027328">
        <ele>1703.5899999999999</ele>
        <time>2018-01-21T11:02:33Z</time>
      </trkpt>
      <trkpt lat="46.018529813736677" lon="9.418824473395944">
        <ele>1707.4400000000001</ele>
        <time>2018-01-21T11:02:41Z</time>
      </trkpt>
      <trkpt lat="46.018540291115642" lon="9.418822713196278">
        <ele>1707.4400000000001</ele>
        <time>2018-01-21T11:02:42Z</time>
      </trkpt>
      <trkpt lat="46.01861204020679" lon="9.418818857520819">
        <ele>1707.4400000000001</ele>
        <time>2018-01-21T11:02:54Z</time>
      </trkpt>
      <trkpt lat="46.018656715750694" lon="9.418795388191938">
        <ele>1705.52</ele>
        <time>2018-01-21T11:03:02Z</time>
      </trkpt>
      <trkpt lat="46.018733493983746" lon="9.418792119249702">
        <ele>1706.96</ele>
        <time>2018-01-21T11:03:13Z</time>
      </trkpt>
      <trkpt lat="46.018786886706948" lon="9.418833861127496">
        <ele>1709.8399999999999</ele>
        <time>2018-01-21T11:03:24Z</time>
      </trkpt>
      <trkpt lat="46.01876744069159" lon="9.418916841968894">
        <ele>1710.3199999999999</ele>
        <time>2018-01-21T11:03:35Z</time>
      </trkpt>
      <trkpt lat="46.018756376579404" lon="9.418940059840679">
        <ele>1708.8800000000001</ele>
        <time>2018-01-21T11:03:38Z</time>
      </trkpt>
      <trkpt lat="46.018728632479906" lon="9.419018849730492">
        <ele>1706</ele>
        <time>2018-01-21T11:03:48Z</time>
      </trkpt>
      <trkpt lat="46.018705330789089" lon="9.419047432020307">
        <ele>1709.8399999999999</ele>
        <time>2018-01-21T11:03:55Z</time>
      </trkpt>
      <trkpt lat="46.018695859238505" lon="9.419075511395931">
        <ele>1711.76</ele>
        <time>2018-01-21T11:03:59Z</time>
      </trkpt>
      <trkpt lat="46.018692338839173" lon="9.419085904955864">
        <ele>1713.6900000000001</ele>
        <time>2018-01-21T11:04:03Z</time>
      </trkpt>
      <trkpt lat="46.018681693822145" lon="9.419098477810621">
        <ele>1713.6900000000001</ele>
        <time>2018-01-21T11:04:05Z</time>
      </trkpt>
      <trkpt lat="46.018639449030161" lon="9.419195037335157">
        <ele>1713.6900000000001</ele>
        <time>2018-01-21T11:04:16Z</time>
      </trkpt>
      <trkpt lat="46.018613129854202" lon="9.419249687343836">
        <ele>1712.73</ele>
        <time>2018-01-21T11:04:28Z</time>
      </trkpt>
      <trkpt lat="46.018591588363051" lon="9.41929972730577">
        <ele>1714.1700000000001</ele>
        <time>2018-01-21T11:04:39Z</time>
      </trkpt>
      <trkpt lat="46.0185890737921" lon="9.419305929914117">
        <ele>1718.01</ele>
        <time>2018-01-21T11:04:41Z</time>
      </trkpt>
      <trkpt lat="46.018587732687593" lon="9.419308276847005">
        <ele>1718.01</ele>
        <time>2018-01-21T11:04:42Z</time>
      </trkpt>
      <trkpt lat="46.018581949174404" lon="9.419339541345835">
        <ele>1714.6500000000001</ele>
        <time>2018-01-21T11:04:48Z</time>
      </trkpt>
      <trkpt lat="46.018562000244856" lon="9.41939796321094">
        <ele>1716.0899999999999</ele>
        <time>2018-01-21T11:04:59Z</time>
      </trkpt>
      <trkpt lat="46.018556719645858" lon="9.419411038979888">
        <ele>1715.1300000000001</ele>
        <time>2018-01-21T11:05:01Z</time>
      </trkpt>
      <trkpt lat="46.018549846485257" lon="9.419426545500755">
        <ele>1718.01</ele>
        <time>2018-01-21T11:05:04Z</time>
      </trkpt>
      <trkpt lat="46.018538866192102" lon="9.419456049799919">
        <ele>1720.9000000000001</ele>
        <time>2018-01-21T11:05:10Z</time>
      </trkpt>
      <trkpt lat="46.018530400469899" lon="9.419485637918115">
        <ele>1720.9000000000001</ele>
        <time>2018-01-21T11:05:18Z</time>
      </trkpt>
      <trkpt lat="46.018504919484258" lon="9.419484632089734">
        <ele>1719.9400000000001</ele>
        <time>2018-01-21T11:05:26Z</time>
      </trkpt>
      <trkpt lat="46.018498549237847" lon="9.419547664001584">
        <ele>1720.9000000000001</ele>
        <time>2018-01-21T11:05:36Z</time>
      </trkpt>
      <trkpt lat="46.018482875078917" lon="9.419591082260013">
        <ele>1722.3399999999999</ele>
        <time>2018-01-21T11:05:46Z</time>
      </trkpt>
      <trkpt lat="46.018469799309969" lon="9.419614300131798">
        <ele>1724.26</ele>
        <time>2018-01-21T11:05:50Z</time>
      </trkpt>
      <trkpt lat="46.018444905057549" lon="9.419669536873698">
        <ele>1725.22</ele>
        <time>2018-01-21T11:06:00Z</time>
      </trkpt>
      <trkpt lat="46.018427722156048" lon="9.419723013415933">
        <ele>1725.22</ele>
        <time>2018-01-21T11:06:10Z</time>
      </trkpt>
      <trkpt lat="46.018411796540022" lon="9.419748913496733">
        <ele>1726.6700000000001</ele>
        <time>2018-01-21T11:06:14Z</time>
      </trkpt>
      <trkpt lat="46.01839411072433" lon="9.419791158288717">
        <ele>1726.1800000000001</ele>
        <time>2018-01-21T11:06:23Z</time>
      </trkpt>
      <trkpt lat="46.018382459878922" lon="9.419823009520769">
        <ele>1729.55</ele>
        <time>2018-01-21T11:06:30Z</time>
      </trkpt>
      <trkpt lat="46.018368881195784" lon="9.419853184372187">
        <ele>1732.9100000000001</ele>
        <time>2018-01-21T11:06:35Z</time>
      </trkpt>
      <trkpt lat="46.018364941701293" lon="9.419861063361168">
        <ele>1731.95</ele>
        <time>2018-01-21T11:06:36Z</time>
      </trkpt>
      <trkpt lat="46.018328899517655" lon="9.419895512983203">
        <ele>1732.4300000000001</ele>
        <time>2018-01-21T11:06:47Z</time>
      </trkpt>
      <trkpt lat="46.018292186781764" lon="9.419923173263669">
        <ele>1732.9100000000001</ele>
        <time>2018-01-21T11:06:57Z</time>
      </trkpt>
      <trkpt lat="46.018254719674587" lon="9.419941445812583">
        <ele>1735.3199999999999</ele>
        <time>2018-01-21T11:07:07Z</time>
      </trkpt>
      <trkpt lat="46.018227729946375" lon="9.419969776645303">
        <ele>1735.8</ele>
        <time>2018-01-21T11:07:13Z</time>
      </trkpt>
      <trkpt lat="46.018197135999799" lon="9.420006154105067">
        <ele>1736.76</ele>
        <time>2018-01-21T11:07:20Z</time>
      </trkpt>
      <trkpt lat="46.018159417435527" lon="9.42006197758019">
        <ele>1736.76</ele>
        <time>2018-01-21T11:07:30Z</time>
      </trkpt>
      <trkpt lat="46.018153382465243" lon="9.420071030035615">
        <ele>1736.76</ele>
        <time>2018-01-21T11:07:31Z</time>
      </trkpt>
      <trkpt lat="46.018126392737031" lon="9.420114448294044">
        <ele>1739.6400000000001</ele>
        <time>2018-01-21T11:07:36Z</time>
      </trkpt>
      <trkpt lat="46.018141396343708" lon="9.420091146603227">
        <ele>1737.72</ele>
        <time>2018-01-21T11:07:46Z</time>
      </trkpt>
      <trkpt lat="46.018143072724342" lon="9.42009374499321">
        <ele>1737.72</ele>
        <time>2018-01-21T11:07:54Z</time>
      </trkpt>
      <trkpt lat="46.018141396343708" lon="9.420097265392542">
        <ele>1736.28</ele>
        <time>2018-01-21T11:08:02Z</time>
      </trkpt>
      <trkpt lat="46.018144749104977" lon="9.420096594840288">
        <ele>1738.2</ele>
        <time>2018-01-21T11:08:06Z</time>
      </trkpt>
      <trkpt lat="46.018124632537365" lon="9.420089721679688">
        <ele>1735.3199999999999</ele>
        <time>2018-01-21T11:08:16Z</time>
      </trkpt>
      <trkpt lat="46.018119435757399" lon="9.420108078047633">
        <ele>1737.24</ele>
        <time>2018-01-21T11:08:19Z</time>
      </trkpt>
      <trkpt lat="46.018112981691957" lon="9.420122746378183">
        <ele>1738.2</ele>
        <time>2018-01-21T11:08:21Z</time>
      </trkpt>
      <trkpt lat="46.018105940893292" lon="9.42015778273344">
        <ele>1740.1199999999999</ele>
        <time>2018-01-21T11:08:26Z</time>
      </trkpt>
      <trkpt lat="46.018074844032526" lon="9.420229028910399">
        <ele>1739.6400000000001</ele>
        <time>2018-01-21T11:08:38Z</time>
      </trkpt>
      <trkpt lat="46.018065623939037" lon="9.420252582058311">
        <ele>1737.72</ele>
        <time>2018-01-21T11:08:41Z</time>
      </trkpt>
      <trkpt lat="46.018048943951726" lon="9.420293569564819">
        <ele>1739.6400000000001</ele>
        <time>2018-01-21T11:08:45Z</time>
      </trkpt>
      <trkpt lat="46.018044920638204" lon="9.420316033065319">
        <ele>1741.5699999999999</ele>
        <time>2018-01-21T11:08:48Z</time>
      </trkpt>
      <trkpt lat="46.018027318641543" lon="9.420368922874332">
        <ele>1743.01</ele>
        <time>2018-01-21T11:08:57Z</time>
      </trkpt>
      <trkpt lat="46.018029749393463" lon="9.420361546799541">
        <ele>1741.5699999999999</ele>
        <time>2018-01-21T11:09:16Z</time>
      </trkpt>
      <trkpt lat="46.018028156831861" lon="9.420370766893029">
        <ele>1742.53</ele>
        <time>2018-01-21T11:09:38Z</time>
      </trkpt>
      <trkpt lat="46.018003849312663" lon="9.420428434386849">
        <ele>1744.45</ele>
        <time>2018-01-21T11:09:47Z</time>
      </trkpt>
      <trkpt lat="46.017982559278607" lon="9.420495992526412">
        <ele>1741.5699999999999</ele>
        <time>2018-01-21T11:09:54Z</time>
      </trkpt>
      <trkpt lat="46.017984990030527" lon="9.420549720525742">
        <ele>1742.53</ele>
        <time>2018-01-21T11:10:00Z</time>
      </trkpt>
      <trkpt lat="46.017962526530027" lon="9.420583164319396">
        <ele>1744.9300000000001</ele>
        <time>2018-01-21T11:10:08Z</time>
      </trkpt>
      <trkpt lat="46.017947187647223" lon="9.420579727739096">
        <ele>1743.49</ele>
        <time>2018-01-21T11:10:18Z</time>
      </trkpt>
      <trkpt lat="46.017962442710996" lon="9.420604789629579">
        <ele>1745.8900000000001</ele>
        <time>2018-01-21T11:10:29Z</time>
      </trkpt>
      <trkpt lat="46.017963951453567" lon="9.420603532344103">
        <ele>1747.8099999999999</ele>
        <time>2018-01-21T11:10:34Z</time>
      </trkpt>
      <trkpt lat="46.017929837107658" lon="9.420590288937092">
        <ele>1749.26</ele>
        <time>2018-01-21T11:10:38Z</time>
      </trkpt>
      <trkpt lat="46.017917012795806" lon="9.420572351664305">
        <ele>1745.4100000000001</ele>
        <time>2018-01-21T11:10:48Z</time>
      </trkpt>
      <trkpt lat="46.017919695004821" lon="9.420572184026241">
        <ele>1745.8900000000001</ele>
        <time>2018-01-21T11:10:49Z</time>
      </trkpt>
      <trkpt lat="46.017926735803485" lon="9.420576794072986">
        <ele>1749.26</ele>
        <time>2018-01-21T11:10:50Z</time>
      </trkpt>
      <trkpt lat="46.017929334193468" lon="9.420579057186842">
        <ele>1749.26</ele>
        <time>2018-01-21T11:10:51Z</time>
      </trkpt>
      <trkpt lat="46.017936794087291" lon="9.420589953660965">
        <ele>1744.45</ele>
        <time>2018-01-21T11:10:54Z</time>
      </trkpt>
      <trkpt lat="46.01793478243053" lon="9.42059607245028">
        <ele>1744.9300000000001</ele>
        <time>2018-01-21T11:10:55Z</time>
      </trkpt>
      <trkpt lat="46.017908211797476" lon="9.420559694990516">
        <ele>1743.01</ele>
        <time>2018-01-21T11:11:03Z</time>
      </trkpt>
      <trkpt lat="46.017901925370097" lon="9.420552654191852">
        <ele>1741.0799999999999</ele>
        <time>2018-01-21T11:11:05Z</time>
      </trkpt>
      <trkpt lat="46.017901506274939" lon="9.420538237318397">
        <ele>1741.5699999999999</ele>
        <time>2018-01-21T11:11:14Z</time>
      </trkpt>
      <trkpt lat="46.017901757732034" lon="9.420537231490016">
        <ele>1743.49</ele>
        <time>2018-01-21T11:11:17Z</time>
      </trkpt>
      <trkpt lat="46.017899159342051" lon="9.420545361936092">
        <ele>1746.8499999999999</ele>
        <time>2018-01-21T11:11:26Z</time>
      </trkpt>
      <trkpt lat="46.01791231893003" lon="9.42056187428534">
        <ele>1750.7</ele>
        <time>2018-01-21T11:11:33Z</time>
      </trkpt>
      <trkpt lat="46.017912486568093" lon="9.420564388856292">
        <ele>1750.7</ele>
        <time>2018-01-21T11:11:34Z</time>
      </trkpt>
      <trkpt lat="46.017916593700647" lon="9.420561539009213">
        <ele>1746.3699999999999</ele>
        <time>2018-01-21T11:11:37Z</time>
      </trkpt>
      <trkpt lat="46.017918353900313" lon="9.42056187428534">
        <ele>1746.3699999999999</ele>
        <time>2018-01-21T11:11:38Z</time>
      </trkpt>
      <trkpt lat="46.017920197919011" lon="9.420554330572486">
        <ele>1748.29</ele>
        <time>2018-01-21T11:11:50Z</time>
      </trkpt>
      <trkpt lat="46.017916677519679" lon="9.420550726354122">
        <ele>1745.8900000000001</ele>
        <time>2018-01-21T11:11:59Z</time>
      </trkpt>
      <trkpt lat="46.017915671691298" lon="9.420548547059298">
        <ele>1746.3699999999999</ele>
        <time>2018-01-21T11:12:14Z</time>
      </trkpt>
      <trkpt lat="46.017911983653903" lon="9.42054963670671">
        <ele>1747.8099999999999</ele>
        <time>2018-01-21T11:12:17Z</time>
      </trkpt>
      <trkpt lat="46.01790888234973" lon="9.420548798516393">
        <ele>1749.74</ele>
        <time>2018-01-21T11:12:29Z</time>
      </trkpt>
      <trkpt lat="46.017914330586791" lon="9.420556090772152">
        <ele>1753.0999999999999</ele>
        <time>2018-01-21T11:12:39Z</time>
      </trkpt>
      <trkpt lat="46.017891364172101" lon="9.420543853193522">
        <ele>1749.26</ele>
        <time>2018-01-21T11:12:45Z</time>
      </trkpt>
      <trkpt lat="46.01789278909564" lon="9.420534381642938">
        <ele>1743.97</ele>
        <time>2018-01-21T11:12:52Z</time>
      </trkpt>
      <trkpt lat="46.017892370000482" lon="9.420534046366811">
        <ele>1743.97</ele>
        <time>2018-01-21T11:12:53Z</time>
      </trkpt>
      <trkpt lat="46.017887340858579" lon="9.420530861243606">
        <ele>1745.4100000000001</ele>
        <time>2018-01-21T11:12:54Z</time>
      </trkpt>
      <trkpt lat="46.017873678356409" lon="9.420523652806878">
        <ele>1746.3699999999999</ele>
        <time>2018-01-21T11:12:56Z</time>
      </trkpt>
      <trkpt lat="46.017866134643555" lon="9.42052474245429">
        <ele>1745.4100000000001</ele>
        <time>2018-01-21T11:12:57Z</time>
      </trkpt>
      <trkpt lat="46.017840234562755" lon="9.420528262853622">
        <ele>1742.53</ele>
        <time>2018-01-21T11:13:00Z</time>
      </trkpt>
      <trkpt lat="46.017836211249232" lon="9.420528346672654">
        <ele>1746.3699999999999</ele>
        <time>2018-01-21T11:13:02Z</time>
      </trkpt>
      <trkpt lat="46.017843587324023" lon="9.420532789081335">
        <ele>1749.74</ele>
        <time>2018-01-21T11:13:03Z</time>
      </trkpt>
      <trkpt lat="46.01784442551434" lon="9.420534381642938">
        <ele>1747.8099999999999</ele>
        <time>2018-01-21T11:13:04Z</time>
      </trkpt>
      <trkpt lat="46.017844593152404" lon="9.42053890787065">
        <ele>1745.4100000000001</ele>
        <time>2018-01-21T11:13:06Z</time>
      </trkpt>
      <trkpt lat="46.017848365008831" lon="9.420531028881669">
        <ele>1742.53</ele>
        <time>2018-01-21T11:13:11Z</time>
      </trkpt>
      <trkpt lat="46.017849370837212" lon="9.420537399128079">
        <ele>1740.5999999999999</ele>
        <time>2018-01-21T11:13:13Z</time>
      </trkpt>
      <trkpt lat="46.017849957570434" lon="9.420548044145107">
        <ele>1743.01</ele>
        <time>2018-01-21T11:13:18Z</time>
      </trkpt>
      <trkpt lat="46.017852891236544" lon="9.420542679727078">
        <ele>1745.4100000000001</ele>
        <time>2018-01-21T11:13:21Z</time>
      </trkpt>
      <trkpt lat="46.017857166007161" lon="9.420529352501035">
        <ele>1742.05</ele>
        <time>2018-01-21T11:13:28Z</time>
      </trkpt>
      <trkpt lat="46.017860015854239" lon="9.420531196519733">
        <ele>1738.6800000000001</ele>
        <time>2018-01-21T11:13:30Z</time>
      </trkpt>
      <trkpt lat="46.017860351130366" lon="9.420534214004874">
        <ele>1743.49</ele>
        <time>2018-01-21T11:13:32Z</time>
      </trkpt>
      <trkpt lat="46.017853142693639" lon="9.420542009174824">
        <ele>1740.1199999999999</ele>
        <time>2018-01-21T11:13:42Z</time>
      </trkpt>
      <trkpt lat="46.017853058874607" lon="9.420543350279331">
        <ele>1742.53</ele>
        <time>2018-01-21T11:13:43Z</time>
      </trkpt>
      <trkpt lat="46.017848867923021" lon="9.420545445755124">
        <ele>1747.3299999999999</ele>
        <time>2018-01-21T11:13:47Z</time>
      </trkpt>
      <trkpt lat="46.017850041389465" lon="9.420545194298029">
        <ele>1747.3299999999999</ele>
        <time>2018-01-21T11:13:48Z</time>
      </trkpt>
      <trkpt lat="46.017847107723355" lon="9.420570842921734">
        <ele>1743.97</ele>
        <time>2018-01-21T11:13:51Z</time>
      </trkpt>
      <trkpt lat="46.017831852659583" lon="9.420607220381498">
        <ele>1747.3299999999999</ele>
        <time>2018-01-21T11:13:55Z</time>
      </trkpt>
      <trkpt lat="46.017827996984124" lon="9.420618619769812">
        <ele>1746.3699999999999</ele>
        <time>2018-01-21T11:13:56Z</time>
      </trkpt>
      <trkpt lat="46.017825398594141" lon="9.420633036643267">
        <ele>1745.8900000000001</ele>
        <time>2018-01-21T11:13:57Z</time>
      </trkpt>
      <trkpt lat="46.017809975892305" lon="9.420681651681662">
        <ele>1748.29</ele>
        <time>2018-01-21T11:14:02Z</time>
      </trkpt>
      <trkpt lat="46.017800085246563" lon="9.420726075768471">
        <ele>1743.97</ele>
        <time>2018-01-21T11:14:07Z</time>
      </trkpt>
      <trkpt lat="46.017798576503992" lon="9.420732948929071">
        <ele>1744.45</ele>
        <time>2018-01-21T11:14:08Z</time>
      </trkpt>
      <trkpt lat="46.017782483249903" lon="9.420784497633576">
        <ele>1741.5699999999999</ele>
        <time>2018-01-21T11:14:13Z</time>
      </trkpt>
      <trkpt lat="46.017778543755412" lon="9.420795813202858">
        <ele>1741.5699999999999</ele>
        <time>2018-01-21T11:14:14Z</time>
      </trkpt>
      <trkpt lat="46.017744010314345" lon="9.420852391049266">
        <ele>1740.1199999999999</ele>
        <time>2018-01-21T11:14:19Z</time>
      </trkpt>
      <trkpt lat="46.017695562914014" lon="9.420910477638245">
        <ele>1737.72</ele>
        <time>2018-01-21T11:14:25Z</time>
      </trkpt>
      <trkpt lat="46.017671339213848" lon="9.420959176495671">
        <ele>1736.28</ele>
        <time>2018-01-21T11:14:29Z</time>
      </trkpt>
      <trkpt lat="46.01760252378881" lon="9.421068392693996">
        <ele>1734.3599999999999</ele>
        <time>2018-01-21T11:14:40Z</time>
      </trkpt>
      <trkpt lat="46.017542174085975" lon="9.421141734346747">
        <ele>1733.8800000000001</ele>
        <time>2018-01-21T11:14:49Z</time>
      </trkpt>
      <trkpt lat="46.017494648694992" lon="9.421211387962103">
        <ele>1733.3900000000001</ele>
        <time>2018-01-21T11:14:56Z</time>
      </trkpt>
      <trkpt lat="46.017416277900338" lon="9.421320520341396">
        <ele>1731.95</ele>
        <time>2018-01-21T11:15:08Z</time>
      </trkpt>
      <trkpt lat="46.017423821613193" lon="9.421339379623532">
        <ele>1732.4300000000001</ele>
        <time>2018-01-21T11:15:24Z</time>
      </trkpt>
      <trkpt lat="46.017423486337066" lon="9.42134072072804">
        <ele>1732.9100000000001</ele>
        <time>2018-01-21T11:15:25Z</time>
      </trkpt>
      <trkpt lat="46.01736699230969" lon="9.421410458162427">
        <ele>1730.99</ele>
        <time>2018-01-21T11:15:35Z</time>
      </trkpt>
      <trkpt lat="46.017338996753097" lon="9.421450858935714">
        <ele>1730.51</ele>
        <time>2018-01-21T11:15:40Z</time>
      </trkpt>
      <trkpt lat="46.017327178269625" lon="9.421462258324027">
        <ele>1729.55</ele>
        <time>2018-01-21T11:15:43Z</time>
      </trkpt>
      <trkpt lat="46.017299182713032" lon="9.421472400426865">
        <ele>1729.55</ele>
        <time>2018-01-21T11:15:57Z</time>
      </trkpt>
      <trkpt lat="46.017220141366124" lon="9.421516992151737">
        <ele>1729.0699999999999</ele>
        <time>2018-01-21T11:16:07Z</time>
      </trkpt>
      <trkpt lat="46.017182841897011" lon="9.421526212245226">
        <ele>1727.1500000000001</ele>
        <time>2018-01-21T11:16:11Z</time>
      </trkpt>
      <trkpt lat="46.01708460599184" lon="9.421559823676944">
        <ele>1728.1099999999999</ele>
        <time>2018-01-21T11:16:20Z</time>
      </trkpt>
      <trkpt lat="46.017022244632244" lon="9.421588825061917">
        <ele>1727.6300000000001</ele>
        <time>2018-01-21T11:16:27Z</time>
      </trkpt>
      <trkpt lat="46.017003804445267" lon="9.42159628495574">
        <ele>1727.1500000000001</ele>
        <time>2018-01-21T11:16:29Z</time>
      </trkpt>
      <trkpt lat="46.016965080052614" lon="9.421612462028861">
        <ele>1724.26</ele>
        <time>2018-01-21T11:16:34Z</time>
      </trkpt>
      <trkpt lat="46.016885116696358" lon="9.421653281897306">
        <ele>1723.3</ele>
        <time>2018-01-21T11:16:43Z</time>
      </trkpt>
      <trkpt lat="46.016798950731754" lon="9.421693850308657">
        <ele>1722.3399999999999</ele>
        <time>2018-01-21T11:16:53Z</time>
      </trkpt>
      <trkpt lat="46.016761232167482" lon="9.421728299930692">
        <ele>1718.97</ele>
        <time>2018-01-21T11:16:58Z</time>
      </trkpt>
      <trkpt lat="46.01670540869236" lon="9.421772891655564">
        <ele>1717.53</ele>
        <time>2018-01-21T11:17:04Z</time>
      </trkpt>
      <trkpt lat="46.016687555238605" lon="9.421788481995463">
        <ele>1716.5699999999999</ele>
        <time>2018-01-21T11:17:06Z</time>
      </trkpt>
      <trkpt lat="46.016601473093033" lon="9.421888813376427">
        <ele>1714.1700000000001</ele>
        <time>2018-01-21T11:17:16Z</time>
      </trkpt>
      <trkpt lat="46.016521090641618" lon="9.421989228576422">
        <ele>1712.25</ele>
        <time>2018-01-21T11:17:26Z</time>
      </trkpt>
      <trkpt lat="46.016512624919415" lon="9.421998951584101">
        <ele>1712.25</ele>
        <time>2018-01-21T11:17:27Z</time>
      </trkpt>
      <trkpt lat="46.016492675989866" lon="9.422015128657222">
        <ele>1711.76</ele>
        <time>2018-01-21T11:17:29Z</time>
      </trkpt>
      <trkpt lat="46.016469709575176" lon="9.422038597986102">
        <ele>1711.76</ele>
        <time>2018-01-21T11:17:32Z</time>
      </trkpt>
      <trkpt lat="46.016439283266664" lon="9.422069946303964">
        <ele>1711.76</ele>
        <time>2018-01-21T11:17:36Z</time>
      </trkpt>
      <trkpt lat="46.016359068453312" lon="9.42213524132967">
        <ele>1712.25</ele>
        <time>2018-01-21T11:17:45Z</time>
      </trkpt>
      <trkpt lat="46.01633844897151" lon="9.422144796699286">
        <ele>1712.25</ele>
        <time>2018-01-21T11:17:47Z</time>
      </trkpt>
      <trkpt lat="46.016302909702063" lon="9.422161309048533">
        <ele>1712.73</ele>
        <time>2018-01-21T11:17:51Z</time>
      </trkpt>
      <trkpt lat="46.016285140067339" lon="9.422180000692606">
        <ele>1713.6900000000001</ele>
        <time>2018-01-21T11:17:54Z</time>
      </trkpt>
      <trkpt lat="46.016252366825938" lon="9.422197937965393">
        <ele>1714.1700000000001</ele>
        <time>2018-01-21T11:17:58Z</time>
      </trkpt>
      <trkpt lat="46.016214312985539" lon="9.42218947224319">
        <ele>1713.21</ele>
        <time>2018-01-21T11:18:08Z</time>
      </trkpt>
      <trkpt lat="46.016226969659328" lon="9.42215770483017">
        <ele>1713.6900000000001</ele>
        <time>2018-01-21T11:18:16Z</time>
      </trkpt>
      <trkpt lat="46.016226718202233" lon="9.422136247158051">
        <ele>1711.28</ele>
        <time>2018-01-21T11:18:27Z</time>
      </trkpt>
      <trkpt lat="46.016226382926106" lon="9.422118477523327">
        <ele>1711.28</ele>
        <time>2018-01-21T11:18:40Z</time>
      </trkpt>
      <trkpt lat="46.016227472573519" lon="9.422119399532676">
        <ele>1714.6500000000001</ele>
        <time>2018-01-21T11:18:42Z</time>
      </trkpt>
      <trkpt lat="46.016221102327108" lon="9.42212451249361">
        <ele>1714.1700000000001</ele>
        <time>2018-01-21T11:18:43Z</time>
      </trkpt>
      <trkpt lat="46.01622068323195" lon="9.422148652374744">
        <ele>1715.6099999999999</ele>
        <time>2018-01-21T11:18:53Z</time>
      </trkpt>
      <trkpt lat="46.016222611069679" lon="9.422159213572741">
        <ele>1714.1700000000001</ele>
        <time>2018-01-21T11:19:08Z</time>
      </trkpt>
      <trkpt lat="46.016207607463002" lon="9.422155106440187">
        <ele>1712.73</ele>
        <time>2018-01-21T11:19:21Z</time>
      </trkpt>
      <trkpt lat="46.01620752364397" lon="9.422153597697616">
        <ele>1712.73</ele>
        <time>2018-01-21T11:19:36Z</time>
      </trkpt>
      <trkpt lat="46.016204003244638" lon="9.422132978215814">
        <ele>1712.73</ele>
        <time>2018-01-21T11:19:46Z</time>
      </trkpt>
      <trkpt lat="46.016213307157159" lon="9.422095511108637">
        <ele>1711.28</ele>
        <time>2018-01-21T11:19:57Z</time>
      </trkpt>
      <trkpt lat="46.016228226944804" lon="9.422101629897952">
        <ele>1710.3199999999999</ele>
        <time>2018-01-21T11:20:08Z</time>
      </trkpt>
      <trkpt lat="46.016217414289713" lon="9.422106659039855">
        <ele>1713.6900000000001</ele>
        <time>2018-01-21T11:20:12Z</time>
      </trkpt>
      <trkpt lat="46.01622168906033" lon="9.422122249379754">
        <ele>1710.8</ele>
        <time>2018-01-21T11:20:26Z</time>
      </trkpt>
      <trkpt lat="46.016227640211582" lon="9.422112107276917">
        <ele>1712.25</ele>
        <time>2018-01-21T11:20:39Z</time>
      </trkpt>
      <trkpt lat="46.01622018031776" lon="9.422120153903961">
        <ele>1708.4000000000001</ele>
        <time>2018-01-21T11:22:46Z</time>
      </trkpt>
      <trkpt lat="46.016221018508077" lon="9.422123339027166">
        <ele>1713.21</ele>
        <time>2018-01-21T11:22:47Z</time>
      </trkpt>
      <trkpt lat="46.016221437603235" lon="9.422122752293944">
        <ele>1711.28</ele>
        <time>2018-01-21T11:22:48Z</time>
      </trkpt>
      <trkpt lat="46.016216408461332" lon="9.422134151682258">
        <ele>1709.8399999999999</ele>
        <time>2018-01-21T11:23:03Z</time>
      </trkpt>
      <trkpt lat="46.016218839213252" lon="9.422125769779086">
        <ele>1709.3599999999999</ele>
        <time>2018-01-21T11:23:13Z</time>
      </trkpt>
      <trkpt lat="46.016230406239629" lon="9.422126188874245">
        <ele>1707.9200000000001</ele>
        <time>2018-01-21T11:23:30Z</time>
      </trkpt>
      <trkpt lat="46.016235435381532" lon="9.422126272693276">
        <ele>1707.4400000000001</ele>
        <time>2018-01-21T11:23:44Z</time>
      </trkpt>
      <trkpt lat="46.016227221116424" lon="9.422122417017818">
        <ele>1706.96</ele>
        <time>2018-01-21T11:23:57Z</time>
      </trkpt>
      <trkpt lat="46.016212971881032" lon="9.422135995700955">
        <ele>1707.4400000000001</ele>
        <time>2018-01-21T11:24:11Z</time>
      </trkpt>
      <trkpt lat="46.016204422339797" lon="9.422142785042524">
        <ele>1706</ele>
        <time>2018-01-21T11:24:22Z</time>
      </trkpt>
      <trkpt lat="46.01620408706367" lon="9.422139767557383">
        <ele>1710.8</ele>
        <time>2018-01-21T11:24:30Z</time>
      </trkpt>
      <trkpt lat="46.016198052093387" lon="9.422144126147032">
        <ele>1706.48</ele>
        <time>2018-01-21T11:24:34Z</time>
      </trkpt>
      <trkpt lat="46.016197800636292" lon="9.422145886346698">
        <ele>1706.48</ele>
        <time>2018-01-21T11:24:35Z</time>
      </trkpt>
      <trkpt lat="46.016192268580198" lon="9.422139851376414">
        <ele>1709.3599999999999</ele>
        <time>2018-01-21T11:24:44Z</time>
      </trkpt>
      <trkpt lat="46.016203416511416" lon="9.422139432281256">
        <ele>1706.96</ele>
        <time>2018-01-21T11:24:56Z</time>
      </trkpt>
      <trkpt lat="46.016202326864004" lon="9.422140270471573">
        <ele>1706.96</ele>
        <time>2018-01-21T11:25:10Z</time>
      </trkpt>
      <trkpt lat="46.016199896112084" lon="9.422142701223493">
        <ele>1707.9200000000001</ele>
        <time>2018-01-21T11:25:18Z</time>
      </trkpt>
      <trkpt lat="46.01620014756918" lon="9.422140438109636">
        <ele>1708.8800000000001</ele>
        <time>2018-01-21T11:25:20Z</time>
      </trkpt>
      <trkpt lat="46.016183467581868" lon="9.422121327370405">
        <ele>1706</ele>
        <time>2018-01-21T11:25:27Z</time>
      </trkpt>
      <trkpt lat="46.016186401247978" lon="9.422114789485931">
        <ele>1704.0699999999999</ele>
        <time>2018-01-21T11:25:39Z</time>
      </trkpt>
      <trkpt lat="46.016176342964172" lon="9.422109425067902">
        <ele>1703.5899999999999</ele>
        <time>2018-01-21T11:25:40Z</time>
      </trkpt>
      <trkpt lat="46.016155304387212" lon="9.422076651826501">
        <ele>1702.1500000000001</ele>
        <time>2018-01-21T11:25:47Z</time>
      </trkpt>
      <trkpt lat="46.016157735139132" lon="9.422083692625165">
        <ele>1705.04</ele>
        <time>2018-01-21T11:25:55Z</time>
      </trkpt>
      <trkpt lat="46.016157316043973" lon="9.422091320157051">
        <ele>1703.5899999999999</ele>
        <time>2018-01-21T11:26:00Z</time>
      </trkpt>
      <trkpt lat="46.01616159081459" lon="9.422104647383094">
        <ele>1706</ele>
        <time>2018-01-21T11:26:03Z</time>
      </trkpt>
      <trkpt lat="46.016163267195225" lon="9.422142114490271">
        <ele>1709.8399999999999</ele>
        <time>2018-01-21T11:26:07Z</time>
      </trkpt>
      <trkpt lat="46.016160249710083" lon="9.422152005136013">
        <ele>1710.3199999999999</ele>
        <time>2018-01-21T11:26:08Z</time>
      </trkpt>
      <trkpt lat="46.016147593036294" lon="9.422176731750369">
        <ele>1708.8800000000001</ele>
        <time>2018-01-21T11:26:11Z</time>
      </trkpt>
      <trkpt lat="46.016130493953824" lon="9.422190897166729">
        <ele>1707.4400000000001</ele>
        <time>2018-01-21T11:26:13Z</time>
      </trkpt>
      <trkpt lat="46.016078945249319" lon="9.42225543782115">
        <ele>1707.9200000000001</ele>
        <time>2018-01-21T11:26:22Z</time>
      </trkpt>
      <trkpt lat="46.016058158129454" lon="9.422288462519646">
        <ele>1709.3599999999999</ele>
        <time>2018-01-21T11:26:28Z</time>
      </trkpt>
      <trkpt lat="46.015999065712094" lon="9.422366581857204">
        <ele>1710.8</ele>
        <time>2018-01-21T11:26:39Z</time>
      </trkpt>
      <trkpt lat="46.015953216701746" lon="9.422440929338336">
        <ele>1709.8399999999999</ele>
        <time>2018-01-21T11:26:49Z</time>
      </trkpt>
      <trkpt lat="46.01590795442462" lon="9.422492897138">
        <ele>1712.73</ele>
        <time>2018-01-21T11:26:59Z</time>
      </trkpt>
      <trkpt lat="46.015853807330132" lon="9.422548804432154">
        <ele>1713.6900000000001</ele>
        <time>2018-01-21T11:27:10Z</time>
      </trkpt>
      <trkpt lat="46.015829499810934" lon="9.422604963183403">
        <ele>1716.5699999999999</ele>
        <time>2018-01-21T11:27:16Z</time>
      </trkpt>
      <trkpt lat="46.015787674114108" lon="9.422670258209109">
        <ele>1718.01</ele>
        <time>2018-01-21T11:27:26Z</time>
      </trkpt>
      <trkpt lat="46.015726318582892" lon="9.422742091119289">
        <ele>1718.01</ele>
        <time>2018-01-21T11:27:38Z</time>
      </trkpt>
      <trkpt lat="46.015700837597251" lon="9.422757681459189">
        <ele>1717.53</ele>
        <time>2018-01-21T11:27:44Z</time>
      </trkpt>
      <trkpt lat="46.015662616118789" lon="9.422764889895916">
        <ele>1719.46</ele>
        <time>2018-01-21T11:27:51Z</time>
      </trkpt>
      <trkpt lat="46.015666220337152" lon="9.422799842432141">
        <ele>1717.53</ele>
        <time>2018-01-21T11:28:00Z</time>
      </trkpt>
      <trkpt lat="46.015663286671042" lon="9.422809649258852">
        <ele>1717.53</ele>
        <time>2018-01-21T11:28:01Z</time>
      </trkpt>
      <trkpt lat="46.015647696331143" lon="9.422821551561356">
        <ele>1719.9400000000001</ele>
        <time>2018-01-21T11:28:03Z</time>
      </trkpt>
      <trkpt lat="46.015596315264702" lon="9.422880979254842">
        <ele>1718.97</ele>
        <time>2018-01-21T11:28:12Z</time>
      </trkpt>
      <trkpt lat="46.015589023008943" lon="9.422880141064525">
        <ele>1719.46</ele>
        <time>2018-01-21T11:28:13Z</time>
      </trkpt>
      <trkpt lat="46.015546359121799" lon="9.422856504097581">
        <ele>1721.8599999999999</ele>
        <time>2018-01-21T11:28:18Z</time>
      </trkpt>
      <trkpt lat="46.015486596152186" lon="9.422832950949669">
        <ele>1721.8599999999999</ele>
        <time>2018-01-21T11:28:27Z</time>
      </trkpt>
      <trkpt lat="46.015488691627979" lon="9.422841751947999">
        <ele>1720.9000000000001</ele>
        <time>2018-01-21T11:28:40Z</time>
      </trkpt>
      <trkpt lat="46.015458684414625" lon="9.422813672572374">
        <ele>1722.3399999999999</ele>
        <time>2018-01-21T11:28:45Z</time>
      </trkpt>
      <trkpt lat="46.015462959185243" lon="9.422798752784729">
        <ele>1725.7</ele>
        <time>2018-01-21T11:28:54Z</time>
      </trkpt>
      <trkpt lat="46.015456672757864" lon="9.422771679237485">
        <ele>1723.78</ele>
        <time>2018-01-21T11:28:59Z</time>
      </trkpt>
      <trkpt lat="46.015458097681403" lon="9.422770589590073">
        <ele>1722.8199999999999</ele>
        <time>2018-01-21T11:29:02Z</time>
      </trkpt>
      <trkpt lat="46.015460779890418" lon="9.422773271799088">
        <ele>1719.46</ele>
        <time>2018-01-21T11:29:07Z</time>
      </trkpt>
      <trkpt lat="46.015459941700101" lon="9.422784587368369">
        <ele>1723.78</ele>
        <time>2018-01-21T11:29:18Z</time>
      </trkpt>
      <trkpt lat="46.015459019690752" lon="9.422785677015781">
        <ele>1723.3</ele>
        <time>2018-01-21T11:29:19Z</time>
      </trkpt>
      <trkpt lat="46.015456505119801" lon="9.422783916816115">
        <ele>1725.22</ele>
        <time>2018-01-21T11:29:27Z</time>
      </trkpt>
      <trkpt lat="46.015452230349183" lon="9.422791711986065">
        <ele>1721.8599999999999</ele>
        <time>2018-01-21T11:29:35Z</time>
      </trkpt>
      <trkpt lat="46.015452230349183" lon="9.42279146052897">
        <ele>1721.3800000000001</ele>
        <time>2018-01-21T11:29:36Z</time>
      </trkpt>
      <trkpt lat="46.015450889244676" lon="9.422790287062526">
        <ele>1719.9400000000001</ele>
        <time>2018-01-21T11:29:39Z</time>
      </trkpt>
      <trkpt lat="46.015446111559868" lon="9.422793807461858">
        <ele>1718.97</ele>
        <time>2018-01-21T11:29:47Z</time>
      </trkpt>
      <trkpt lat="46.015456086024642" lon="9.422778971493244">
        <ele>1717.53</ele>
        <time>2018-01-21T11:30:03Z</time>
      </trkpt>
      <trkpt lat="46.01545499637723" lon="9.422762459143996">
        <ele>1718.49</ele>
        <time>2018-01-21T11:30:16Z</time>
      </trkpt>
      <trkpt lat="46.01544669829309" lon="9.422764889895916">
        <ele>1719.46</ele>
        <time>2018-01-21T11:30:30Z</time>
      </trkpt>
      <trkpt lat="46.015441250056028" lon="9.422788694500923">
        <ele>1715.1300000000001</ele>
        <time>2018-01-21T11:30:42Z</time>
      </trkpt>
      <trkpt lat="46.0154461953789" lon="9.422786515206099">
        <ele>1716.5699999999999</ele>
        <time>2018-01-21T11:30:45Z</time>
      </trkpt>
      <trkpt lat="46.015451895073056" lon="9.422789365053177">
        <ele>1719.46</ele>
        <time>2018-01-21T11:30:47Z</time>
      </trkpt>
      <trkpt lat="46.015455080196261" lon="9.422785006463528">
        <ele>1722.8199999999999</ele>
        <time>2018-01-21T11:30:48Z</time>
      </trkpt>
      <trkpt lat="46.015463881194592" lon="9.422768913209438">
        <ele>1723.78</ele>
        <time>2018-01-21T11:30:50Z</time>
      </trkpt>
      <trkpt lat="46.015478549525142" lon="9.42276799120009">
        <ele>1721.8599999999999</ele>
        <time>2018-01-21T11:30:53Z</time>
      </trkpt>
      <trkpt lat="46.015488775447011" lon="9.422788610681891">
        <ele>1721.8599999999999</ele>
        <time>2018-01-21T11:31:07Z</time>
      </trkpt>
      <trkpt lat="46.01548676379025" lon="9.422772517427802">
        <ele>1723.3</ele>
        <time>2018-01-21T11:31:13Z</time>
      </trkpt>
      <trkpt lat="46.015482908114791" lon="9.422764806076884">
        <ele>1722.8199999999999</ele>
        <time>2018-01-21T11:31:29Z</time>
      </trkpt>
      <trkpt lat="46.015489948913455" lon="9.422765308991075">
        <ele>1726.1800000000001</ele>
        <time>2018-01-21T11:31:38Z</time>
      </trkpt>
      <trkpt lat="46.015484584495425" lon="9.422770505771041">
        <ele>1723.3</ele>
        <time>2018-01-21T11:31:44Z</time>
      </trkpt>
      <trkpt lat="46.015479471534491" lon="9.422772517427802">
        <ele>1726.6700000000001</ele>
        <time>2018-01-21T11:31:51Z</time>
      </trkpt>
      <trkpt lat="46.015481734648347" lon="9.422773355618119">
        <ele>1724.74</ele>
        <time>2018-01-21T11:31:56Z</time>
      </trkpt>
      <trkpt lat="46.015485087409616" lon="9.422764051705599">
        <ele>1721.8599999999999</ele>
        <time>2018-01-21T11:32:07Z</time>
      </trkpt>
      <trkpt lat="46.015476956963539" lon="9.422750389203429">
        <ele>1721.8599999999999</ele>
        <time>2018-01-21T11:32:14Z</time>
      </trkpt>
      <trkpt lat="46.015474023297429" lon="9.422745276242495">
        <ele>1724.74</ele>
        <time>2018-01-21T11:32:22Z</time>
      </trkpt>
      <trkpt lat="46.015473939478397" lon="9.422745024785399">
        <ele>1722.8199999999999</ele>
        <time>2018-01-21T11:32:24Z</time>
      </trkpt>
      <trkpt lat="46.01546673104167" lon="9.422752736136317">
        <ele>1720.9000000000001</ele>
        <time>2018-01-21T11:32:34Z</time>
      </trkpt>
      <trkpt lat="46.015461031347513" lon="9.422747623175383">
        <ele>1717.53</ele>
        <time>2018-01-21T11:32:38Z</time>
      </trkpt>
      <trkpt lat="46.015474945306778" lon="9.422745192423463">
        <ele>1716.5699999999999</ele>
        <time>2018-01-21T11:32:40Z</time>
      </trkpt>
      <trkpt lat="46.01549070328474" lon="9.422746282070875">
        <ele>1719.46</ele>
        <time>2018-01-21T11:32:42Z</time>
      </trkpt>
      <trkpt lat="46.015510065481067" lon="9.422738905996084">
        <ele>1714.1700000000001</ele>
        <time>2018-01-21T11:32:46Z</time>
      </trkpt>
      <trkpt lat="46.015527164563537" lon="9.422740582376719">
        <ele>1720.9000000000001</ele>
        <time>2018-01-21T11:32:48Z</time>
      </trkpt>
      <trkpt lat="46.01553269661963" lon="9.422746449708939">
        <ele>1718.97</ele>
        <time>2018-01-21T11:32:49Z</time>
      </trkpt>
      <trkpt lat="46.015558009967208" lon="9.422767069190741">
        <ele>1722.3399999999999</ele>
        <time>2018-01-21T11:32:56Z</time>
      </trkpt>
      <trkpt lat="46.015557171776891" lon="9.422768577933312">
        <ele>1722.3399999999999</ele>
        <time>2018-01-21T11:32:57Z</time>
      </trkpt>
      <trkpt lat="46.015556333586574" lon="9.422769248485565">
        <ele>1719.46</ele>
        <time>2018-01-21T11:33:00Z</time>
      </trkpt>
      <trkpt lat="46.015553399920464" lon="9.422768745571375">
        <ele>1717.53</ele>
        <time>2018-01-21T11:33:02Z</time>
      </trkpt>
      <trkpt lat="46.015551555901766" lon="9.422761788591743">
        <ele>1715.1300000000001</ele>
        <time>2018-01-21T11:33:06Z</time>
      </trkpt>
      <trkpt lat="46.015549208968878" lon="9.422780312597752">
        <ele>1718.97</ele>
        <time>2018-01-21T11:33:12Z</time>
      </trkpt>
      <trkpt lat="46.015549125149846" lon="9.422780983150005">
        <ele>1718.97</ele>
        <time>2018-01-21T11:33:13Z</time>
      </trkpt>
      <trkpt lat="46.015550969168544" lon="9.422781905159354">
        <ele>1716.0899999999999</ele>
        <time>2018-01-21T11:33:16Z</time>
      </trkpt>
      <trkpt lat="46.01555029861629" lon="9.422767488285899">
        <ele>1718.01</ele>
        <time>2018-01-21T11:33:24Z</time>
      </trkpt>
      <trkpt lat="46.01554686203599" lon="9.422762710601091">
        <ele>1722.3399999999999</ele>
        <time>2018-01-21T11:33:26Z</time>
      </trkpt>
      <trkpt lat="46.015545185655355" lon="9.422759022563696">
        <ele>1722.3399999999999</ele>
        <time>2018-01-21T11:33:27Z</time>
      </trkpt>
      <trkpt lat="46.015544766560197" lon="9.422754999250174">
        <ele>1717.05</ele>
        <time>2018-01-21T11:33:29Z</time>
      </trkpt>
      <trkpt lat="46.015546778216958" lon="9.422752903774381">
        <ele>1720.4200000000001</ele>
        <time>2018-01-21T11:33:33Z</time>
      </trkpt>
      <trkpt lat="46.015544263646007" lon="9.422753071412444">
        <ele>1722.3399999999999</ele>
        <time>2018-01-21T11:33:36Z</time>
      </trkpt>
      <trkpt lat="46.015543173998594" lon="9.422751059755683">
        <ele>1729.55</ele>
        <time>2018-01-21T11:33:38Z</time>
      </trkpt>
      <trkpt lat="46.015542503446341" lon="9.422748126089573">
        <ele>1731.95</ele>
        <time>2018-01-21T11:33:40Z</time>
      </trkpt>
      <trkpt lat="46.015542754903436" lon="9.422739911824465">
        <ele>1728.1099999999999</ele>
        <time>2018-01-21T11:33:54Z</time>
      </trkpt>
      <trkpt lat="46.015543593093753" lon="9.422739241272211">
        <ele>1726.6700000000001</ele>
        <time>2018-01-21T11:34:03Z</time>
      </trkpt>
      <trkpt lat="46.015551891177893" lon="9.422742174938321">
        <ele>1723.3</ele>
        <time>2018-01-21T11:34:11Z</time>
      </trkpt>
      <trkpt lat="46.015551220625639" lon="9.422744857147336">
        <ele>1719.9400000000001</ele>
        <time>2018-01-21T11:34:15Z</time>
      </trkpt>
      <trkpt lat="46.015549963340163" lon="9.422742929309607">
        <ele>1721.8599999999999</ele>
        <time>2018-01-21T11:34:18Z</time>
      </trkpt>
      <trkpt lat="46.015546442940831" lon="9.422750137746334">
        <ele>1725.22</ele>
        <time>2018-01-21T11:34:24Z</time>
      </trkpt>
      <trkpt lat="46.015548957511783" lon="9.422752568498254">
        <ele>1722.8199999999999</ele>
        <time>2018-01-21T11:34:27Z</time>
      </trkpt>
      <trkpt lat="46.015556333586574" lon="9.422723231837153">
        <ele>1723.78</ele>
        <time>2018-01-21T11:34:52Z</time>
      </trkpt>
      <trkpt lat="46.01555516012013" lon="9.422720298171043">
        <ele>1721.3800000000001</ele>
        <time>2018-01-21T11:34:55Z</time>
      </trkpt>
      <trkpt lat="46.015557423233986" lon="9.422748293727636">
        <ele>1722.8199999999999</ele>
        <time>2018-01-21T11:34:59Z</time>
      </trkpt>
      <trkpt lat="46.015545353293419" lon="9.422769751399756">
        <ele>1725.7</ele>
        <time>2018-01-21T11:35:13Z</time>
      </trkpt>
      <trkpt lat="46.01554786786437" lon="9.422769835218787">
        <ele>1728.5899999999999</ele>
        <time>2018-01-21T11:35:17Z</time>
      </trkpt>
      <trkpt lat="46.015540743246675" lon="9.422743851318955">
        <ele>1729.0699999999999</ele>
        <time>2018-01-21T11:35:25Z</time>
      </trkpt>
      <trkpt lat="46.015540240332484" lon="9.422738822177053">
        <ele>1730.99</ele>
        <time>2018-01-21T11:35:27Z</time>
      </trkpt>
      <trkpt lat="46.015544179826975" lon="9.422740833833814">
        <ele>1727.1500000000001</ele>
        <time>2018-01-21T11:35:29Z</time>
      </trkpt>
      <trkpt lat="46.01555080153048" lon="9.422747455537319">
        <ele>1723.78</ele>
        <time>2018-01-21T11:35:33Z</time>
      </trkpt>
      <trkpt lat="46.01555272936821" lon="9.422749551013112">
        <ele>1718.97</ele>
        <time>2018-01-21T11:35:41Z</time>
      </trkpt>
      <trkpt lat="46.01555616594851" lon="9.422750389203429">
        <ele>1720.9000000000001</ele>
        <time>2018-01-21T11:35:42Z</time>
      </trkpt>
      <trkpt lat="46.015559183433652" lon="9.422744605690241">
        <ele>1721.8599999999999</ele>
        <time>2018-01-21T11:35:48Z</time>
      </trkpt>
      <trkpt lat="46.015560189262033" lon="9.422740079462528">
        <ele>1721.8599999999999</ele>
        <time>2018-01-21T11:35:49Z</time>
      </trkpt>
      <trkpt lat="46.015594555065036" lon="9.422669755294919">
        <ele>1719.46</ele>
        <time>2018-01-21T11:35:55Z</time>
      </trkpt>
      <trkpt lat="46.015598746016622" lon="9.422658523544669">
        <ele>1718.49</ele>
        <time>2018-01-21T11:35:57Z</time>
      </trkpt>
      <trkpt lat="46.01560989394784" lon="9.422643100842834">
        <ele>1717.05</ele>
        <time>2018-01-21T11:36:00Z</time>
      </trkpt>
      <trkpt lat="46.015635710209608" lon="9.422589959576726">
        <ele>1716.5699999999999</ele>
        <time>2018-01-21T11:36:05Z</time>
      </trkpt>
      <trkpt lat="46.015655156224966" lon="9.422545284032822">
        <ele>1715.1300000000001</ele>
        <time>2018-01-21T11:36:09Z</time>
      </trkpt>
      <trkpt lat="46.015715841203928" lon="9.422495160251856">
        <ele>1714.6500000000001</ele>
        <time>2018-01-21T11:36:18Z</time>
      </trkpt>
      <trkpt lat="46.015722379088402" lon="9.422472612932324">
        <ele>1714.6500000000001</ele>
        <time>2018-01-21T11:36:20Z</time>
      </trkpt>
      <trkpt lat="46.015784656628966" lon="9.422377394512296">
        <ele>1712.25</ele>
        <time>2018-01-21T11:36:29Z</time>
      </trkpt>
      <trkpt lat="46.015819776803255" lon="9.422345962375403">
        <ele>1712.25</ele>
        <time>2018-01-21T11:36:34Z</time>
      </trkpt>
      <trkpt lat="46.015822626650333" lon="9.422334730625153">
        <ele>1711.76</ele>
        <time>2018-01-21T11:36:35Z</time>
      </trkpt>
      <trkpt lat="46.015850873664021" lon="9.422295419499278">
        <ele>1715.6099999999999</ele>
        <time>2018-01-21T11:36:39Z</time>
      </trkpt>
      <trkpt lat="46.0158796235919" lon="9.422255186364055">
        <ele>1711.76</ele>
        <time>2018-01-21T11:36:43Z</time>
      </trkpt>
      <trkpt lat="46.015913402661681" lon="9.42223833873868">
        <ele>1713.21</ele>
        <time>2018-01-21T11:36:48Z</time>
      </trkpt>
      <trkpt lat="46.01592069491744" lon="9.422229453921318">
        <ele>1712.25</ele>
        <time>2018-01-21T11:36:49Z</time>
      </trkpt>
      <trkpt lat="46.015941901132464" lon="9.422211432829499">
        <ele>1711.76</ele>
        <time>2018-01-21T11:36:51Z</time>
      </trkpt>
      <trkpt lat="46.015981044620275" lon="9.422196680679917">
        <ele>1712.25</ele>
        <time>2018-01-21T11:36:56Z</time>
      </trkpt>
      <trkpt lat="46.016052206978202" lon="9.422152927145362">
        <ele>1712.73</ele>
        <time>2018-01-21T11:37:04Z</time>
      </trkpt>
      <trkpt lat="46.016090093180537" lon="9.42214454524219">
        <ele>1710.8</ele>
        <time>2018-01-21T11:37:08Z</time>
      </trkpt>
      <trkpt lat="46.016108030453324" lon="9.42214990966022">
        <ele>1709.8399999999999</ele>
        <time>2018-01-21T11:37:10Z</time>
      </trkpt>
      <trkpt lat="46.016133595257998" lon="9.422130547463894">
        <ele>1707.4400000000001</ele>
        <time>2018-01-21T11:37:14Z</time>
      </trkpt>
      <trkpt lat="46.016171397641301" lon="9.422103809192777">
        <ele>1708.8800000000001</ele>
        <time>2018-01-21T11:37:18Z</time>
      </trkpt>
      <trkpt lat="46.016194280236959" lon="9.422101965174079">
        <ele>1707.9200000000001</ele>
        <time>2018-01-21T11:37:25Z</time>
      </trkpt>
      <trkpt lat="46.016183383762836" lon="9.42210934124887">
        <ele>1709.3599999999999</ele>
        <time>2018-01-21T11:37:35Z</time>
      </trkpt>
      <trkpt lat="46.016179192811251" lon="9.42210691049695">
        <ele>1710.8</ele>
        <time>2018-01-21T11:37:39Z</time>
      </trkpt>
      <trkpt lat="46.016175085678697" lon="9.42210397683084">
        <ele>1708.4000000000001</ele>
        <time>2018-01-21T11:37:45Z</time>
      </trkpt>
      <trkpt lat="46.016168296337128" lon="9.422108167782426">
        <ele>1707.9200000000001</ele>
        <time>2018-01-21T11:38:02Z</time>
      </trkpt>
      <trkpt lat="46.016168296337128" lon="9.422108922153711">
        <ele>1709.3599999999999</ele>
        <time>2018-01-21T11:38:06Z</time>
      </trkpt>
      <trkpt lat="46.016176762059331" lon="9.422118393704295">
        <ele>1712.73</ele>
        <time>2018-01-21T11:38:20Z</time>
      </trkpt>
      <trkpt lat="46.016175420954823" lon="9.422120656818152">
        <ele>1711.76</ele>
        <time>2018-01-21T11:38:25Z</time>
      </trkpt>
      <trkpt lat="46.016174666583538" lon="9.422114789485931">
        <ele>1713.21</ele>
        <time>2018-01-21T11:38:33Z</time>
      </trkpt>
      <trkpt lat="46.016180869191885" lon="9.422108419239521">
        <ele>1710.3199999999999</ele>
        <time>2018-01-21T11:38:37Z</time>
      </trkpt>
      <trkpt lat="46.016173996031284" lon="9.422102719545364">
        <ele>1709.8399999999999</ele>
        <time>2018-01-21T11:38:50Z</time>
      </trkpt>
      <trkpt lat="46.016175840049982" lon="9.42210104316473">
        <ele>1712.73</ele>
        <time>2018-01-21T11:38:56Z</time>
      </trkpt>
      <trkpt lat="46.016199812293053" lon="9.42205997183919">
        <ele>1709.8399999999999</ele>
        <time>2018-01-21T11:39:00Z</time>
      </trkpt>
      <trkpt lat="46.016235183924437" lon="9.42199501208961">
        <ele>1707.9200000000001</ele>
        <time>2018-01-21T11:39:05Z</time>
      </trkpt>
      <trkpt lat="46.016257228329778" lon="9.421953773126006">
        <ele>1707.4400000000001</ele>
        <time>2018-01-21T11:39:08Z</time>
      </trkpt>
      <trkpt lat="46.016302239149809" lon="9.421864505857229">
        <ele>1703.1099999999999</ele>
        <time>2018-01-21T11:39:15Z</time>
      </trkpt>
      <trkpt lat="46.016306346282363" lon="9.421851262450218">
        <ele>1703.5899999999999</ele>
        <time>2018-01-21T11:39:16Z</time>
      </trkpt>
      <trkpt lat="46.016320427879691" lon="9.421827206388116">
        <ele>1703.1099999999999</ele>
        <time>2018-01-21T11:39:18Z</time>
      </trkpt>
      <trkpt lat="46.016357140615582" lon="9.421710697934032">
        <ele>1702.1500000000001</ele>
        <time>2018-01-21T11:39:26Z</time>
      </trkpt>
      <trkpt lat="46.016384214162827" lon="9.421626543626189">
        <ele>1705.52</ele>
        <time>2018-01-21T11:39:31Z</time>
      </trkpt>
      <trkpt lat="46.016398631036282" lon="9.421581029891968">
        <ele>1703.5899999999999</ele>
        <time>2018-01-21T11:39:34Z</time>
      </trkpt>
      <trkpt lat="46.016426375135779" lon="9.421507101505995">
        <ele>1699.27</ele>
        <time>2018-01-21T11:39:39Z</time>
      </trkpt>
      <trkpt lat="46.016453616321087" lon="9.421412218362093">
        <ele>1698.79</ele>
        <time>2018-01-21T11:39:45Z</time>
      </trkpt>
      <trkpt lat="46.016501057893038" lon="9.421251453459263">
        <ele>1696.8599999999999</ele>
        <time>2018-01-21T11:39:56Z</time>
      </trkpt>
      <trkpt lat="46.016517989337444" lon="9.421216668561101">
        <ele>1696.3800000000001</ele>
        <time>2018-01-21T11:39:59Z</time>
      </trkpt>
      <trkpt lat="46.016544727608562" lon="9.421191271394491">
        <ele>1696.8599999999999</ele>
        <time>2018-01-21T11:40:06Z</time>
      </trkpt>
      <trkpt lat="46.016550930216908" lon="9.421162437647581">
        <ele>1696.3800000000001</ele>
        <time>2018-01-21T11:40:08Z</time>
      </trkpt>
      <trkpt lat="46.016571465879679" lon="9.42112036049366">
        <ele>1695.4200000000001</ele>
        <time>2018-01-21T11:40:11Z</time>
      </trkpt>
      <trkpt lat="46.016605580225587" lon="9.421056658029556">
        <ele>1694.9400000000001</ele>
        <time>2018-01-21T11:40:16Z</time>
      </trkpt>
      <trkpt lat="46.016618488356471" lon="9.421028662472963">
        <ele>1693.5</ele>
        <time>2018-01-21T11:40:18Z</time>
      </trkpt>
      <trkpt lat="46.016664924100041" lon="9.420946268364787">
        <ele>1694.9400000000001</ele>
        <time>2018-01-21T11:40:25Z</time>
      </trkpt>
      <trkpt lat="46.016666349023581" lon="9.420936042442918">
        <ele>1695.4200000000001</ele>
        <time>2018-01-21T11:40:26Z</time>
      </trkpt>
      <trkpt lat="46.016686465591192" lon="9.420917183160782">
        <ele>1693.5</ele>
        <time>2018-01-21T11:40:35Z</time>
      </trkpt>
      <trkpt lat="46.016679843887687" lon="9.420913327485323">
        <ele>1694.9400000000001</ele>
        <time>2018-01-21T11:40:49Z</time>
      </trkpt>
      <trkpt lat="46.016708007082343" lon="9.420926403254271">
        <ele>1693.5</ele>
        <time>2018-01-21T11:41:06Z</time>
      </trkpt>
      <trkpt lat="46.016701217740774" lon="9.420912824571133">
        <ele>1696.3800000000001</ele>
        <time>2018-01-21T11:41:20Z</time>
      </trkpt>
      <trkpt lat="46.016708929091692" lon="9.420924726873636">
        <ele>1699.75</ele>
        <time>2018-01-21T11:41:35Z</time>
      </trkpt>
      <trkpt lat="46.016706833615899" lon="9.420925062149763">
        <ele>1699.75</ele>
        <time>2018-01-21T11:41:36Z</time>
      </trkpt>
      <trkpt lat="46.016700211912394" lon="9.420914920046926">
        <ele>1701.6700000000001</ele>
        <time>2018-01-21T11:41:51Z</time>
      </trkpt>
      <trkpt lat="46.01670247502625" lon="9.420917266979814">
        <ele>1698.3099999999999</ele>
        <time>2018-01-21T11:42:02Z</time>
      </trkpt>
      <trkpt lat="46.016699373722076" lon="9.420909974724054">
        <ele>1699.75</ele>
        <time>2018-01-21T11:42:05Z</time>
      </trkpt>
      <trkpt lat="46.016697697341442" lon="9.42082523368299">
        <ele>1698.79</ele>
        <time>2018-01-21T11:42:14Z</time>
      </trkpt>
      <trkpt lat="46.016713622957468" lon="9.420777289196849">
        <ele>1698.3099999999999</ele>
        <time>2018-01-21T11:42:18Z</time>
      </trkpt>
      <trkpt lat="46.016728291288018" lon="9.420726746320725">
        <ele>1698.3099999999999</ele>
        <time>2018-01-21T11:42:27Z</time>
      </trkpt>
      <trkpt lat="46.01673667319119" lon="9.420723058283329">
        <ele>1696.3800000000001</ele>
        <time>2018-01-21T11:42:41Z</time>
      </trkpt>
      <trkpt lat="46.01673667319119" lon="9.420725489035249">
        <ele>1696.3800000000001</ele>
        <time>2018-01-21T11:42:56Z</time>
      </trkpt>
      <trkpt lat="46.016727034002542" lon="9.42072506994009">
        <ele>1695.9000000000001</ele>
        <time>2018-01-21T11:43:10Z</time>
      </trkpt>
      <trkpt lat="46.016735080629587" lon="9.4207280036062">
        <ele>1695.9000000000001</ele>
        <time>2018-01-21T11:43:19Z</time>
      </trkpt>
      <trkpt lat="46.01673717610538" lon="9.420714173465967">
        <ele>1696.3800000000001</ele>
        <time>2018-01-21T11:43:35Z</time>
      </trkpt>
      <trkpt lat="46.016724184155464" lon="9.420706126838923">
        <ele>1693.5</ele>
        <time>2018-01-21T11:43:47Z</time>
      </trkpt>
      <trkpt lat="46.016724519431591" lon="9.420699253678322">
        <ele>1697.3399999999999</ele>
        <time>2018-01-21T11:43:51Z</time>
      </trkpt>
      <trkpt lat="46.01672644726932" lon="9.420699924230576">
        <ele>1700.71</ele>
        <time>2018-01-21T11:43:53Z</time>
      </trkpt>
      <trkpt lat="46.016729464754462" lon="9.420705959200859">
        <ele>1704.55</ele>
        <time>2018-01-21T11:43:55Z</time>
      </trkpt>
      <trkpt lat="46.016733152791858" lon="9.420719789341092">
        <ele>1701.1900000000001</ele>
        <time>2018-01-21T11:43:59Z</time>
      </trkpt>
      <trkpt lat="46.016734996810555" lon="9.420711994171143">
        <ele>1698.3099999999999</ele>
        <time>2018-01-21T11:44:02Z</time>
      </trkpt>
      <trkpt lat="46.016741953790188" lon="9.420710317790508">
        <ele>1694.9400000000001</ele>
        <time>2018-01-21T11:44:05Z</time>
      </trkpt>
      <trkpt lat="46.016737427562475" lon="9.420704869553447">
        <ele>1693.02</ele>
        <time>2018-01-21T11:44:10Z</time>
      </trkpt>
      <trkpt lat="46.016738433390856" lon="9.420705121010542">
        <ele>1696.3800000000001</ele>
        <time>2018-01-21T11:44:22Z</time>
      </trkpt>
      <trkpt lat="46.016742624342442" lon="9.420708892866969">
        <ele>1693.98</ele>
        <time>2018-01-21T11:44:34Z</time>
      </trkpt>
      <trkpt lat="46.016738433390856" lon="9.420700678601861">
        <ele>1693.98</ele>
        <time>2018-01-21T11:44:38Z</time>
      </trkpt>
      <trkpt lat="46.016724519431591" lon="9.420659774914384">
        <ele>1694.46</ele>
        <time>2018-01-21T11:44:41Z</time>
      </trkpt>
      <trkpt lat="46.016745306551456" lon="9.420578805729747">
        <ele>1695.9000000000001</ele>
        <time>2018-01-21T11:44:49Z</time>
      </trkpt>
      <trkpt lat="46.016756622120738" lon="9.420539997518063">
        <ele>1697.3399999999999</ele>
        <time>2018-01-21T11:44:57Z</time>
      </trkpt>
      <trkpt lat="46.016772966831923" lon="9.420549301430583">
        <ele>1698.3099999999999</ele>
        <time>2018-01-21T11:45:08Z</time>
      </trkpt>
      <trkpt lat="46.016785204410553" lon="9.420548211783171">
        <ele>1694.9400000000001</ele>
        <time>2018-01-21T11:45:21Z</time>
      </trkpt>
      <trkpt lat="46.01678654551506" lon="9.420537315309048">
        <ele>1697.8299999999999</ele>
        <time>2018-01-21T11:45:25Z</time>
      </trkpt>
      <trkpt lat="46.016778834164143" lon="9.420546451583505">
        <ele>1695.4200000000001</ele>
        <time>2018-01-21T11:45:27Z</time>
      </trkpt>
      <trkpt lat="46.016781264916062" lon="9.420551061630249">
        <ele>1692.54</ele>
        <time>2018-01-21T11:45:33Z</time>
      </trkpt>
      <trkpt lat="46.016785958781838" lon="9.420547373592854">
        <ele>1694.9400000000001</ele>
        <time>2018-01-21T11:45:50Z</time>
      </trkpt>
      <trkpt lat="46.016781851649284" lon="9.420525245368481">
        <ele>1694.46</ele>
        <time>2018-01-21T11:46:07Z</time>
      </trkpt>
      <trkpt lat="46.016764584928751" lon="9.420518288388848">
        <ele>1695.9000000000001</ele>
        <time>2018-01-21T11:46:29Z</time>
      </trkpt>
      <trkpt lat="46.016796687617898" lon="9.420506805181503">
        <ele>1695.4200000000001</ele>
        <time>2018-01-21T11:46:38Z</time>
      </trkpt>
      <trkpt lat="46.016898108646274" lon="9.420476211234927">
        <ele>1699.27</ele>
        <time>2018-01-21T11:46:50Z</time>
      </trkpt>
      <trkpt lat="46.016909759491682" lon="9.420470846816897">
        <ele>1699.75</ele>
        <time>2018-01-21T11:46:52Z</time>
      </trkpt>
      <trkpt lat="46.016945717856288" lon="9.420464225113392">
        <ele>1702.1500000000001</ele>
        <time>2018-01-21T11:46:57Z</time>
      </trkpt>
      <trkpt lat="46.016977904364467" lon="9.420460537075996">
        <ele>1703.5899999999999</ele>
        <time>2018-01-21T11:47:04Z</time>
      </trkpt>
      <trkpt lat="46.016997685655951" lon="9.420466739684343">
        <ele>1702.6300000000001</ele>
        <time>2018-01-21T11:47:15Z</time>
      </trkpt>
      <trkpt lat="46.017002044245601" lon="9.420469924807549">
        <ele>1702.6300000000001</ele>
        <time>2018-01-21T11:47:26Z</time>
      </trkpt>
      <trkpt lat="46.017014030367136" lon="9.420495321974158">
        <ele>1702.1500000000001</ele>
        <time>2018-01-21T11:47:37Z</time>
      </trkpt>
      <trkpt lat="46.017014868557453" lon="9.420496243983507">
        <ele>1702.1500000000001</ele>
        <time>2018-01-21T11:47:52Z</time>
      </trkpt>
      <trkpt lat="46.016998691484332" lon="9.420465817674995">
        <ele>1703.1099999999999</ele>
        <time>2018-01-21T11:48:01Z</time>
      </trkpt>
      <trkpt lat="46.016996847465634" lon="9.420452322810888">
        <ele>1702.6300000000001</ele>
        <time>2018-01-21T11:48:03Z</time>
      </trkpt>
      <trkpt lat="46.017037583515048" lon="9.420369174331427">
        <ele>1702.1500000000001</ele>
        <time>2018-01-21T11:48:11Z</time>
      </trkpt>
      <trkpt lat="46.017055856063962" lon="9.42032097838819">
        <ele>1703.5899999999999</ele>
        <time>2018-01-21T11:48:15Z</time>
      </trkpt>
      <trkpt lat="46.017062058672309" lon="9.420219892635942">
        <ele>1703.5899999999999</ele>
        <time>2018-01-21T11:48:26Z</time>
      </trkpt>
      <trkpt lat="46.017058370634913" lon="9.420215366408229">
        <ele>1703.1099999999999</ele>
        <time>2018-01-21T11:48:34Z</time>
      </trkpt>
      <trkpt lat="46.017066752538085" lon="9.420202542096376">
        <ele>1700.23</ele>
        <time>2018-01-21T11:48:39Z</time>
      </trkpt>
      <trkpt lat="46.017066584900022" lon="9.420200614258647">
        <ele>1700.71</ele>
        <time>2018-01-21T11:48:40Z</time>
      </trkpt>
      <trkpt lat="46.0170694347471" lon="9.420201284810901">
        <ele>1703.1099999999999</ele>
        <time>2018-01-21T11:48:43Z</time>
      </trkpt>
      <trkpt lat="46.017068596556783" lon="9.42020514048636">
        <ele>1706</ele>
        <time>2018-01-21T11:48:46Z</time>
      </trkpt>
      <trkpt lat="46.017067842185497" lon="9.42021394148469">
        <ele>1709.3599999999999</ele>
        <time>2018-01-21T11:48:50Z</time>
      </trkpt>
      <trkpt lat="46.017066752538085" lon="9.420228442177177">
        <ele>1708.8800000000001</ele>
        <time>2018-01-21T11:48:54Z</time>
      </trkpt>
      <trkpt lat="46.016997769474983" lon="9.420172283425927">
        <ele>1705.04</ele>
        <time>2018-01-21T11:48:58Z</time>
      </trkpt>
      <trkpt lat="46.016976647078991" lon="9.420156609266996">
        <ele>1704.55</ele>
        <time>2018-01-21T11:48:59Z</time>
      </trkpt>
      <trkpt lat="46.016955859959126" lon="9.420145796611905">
        <ele>1703.5899999999999</ele>
        <time>2018-01-21T11:49:00Z</time>
      </trkpt>
      <trkpt lat="46.016880422830582" lon="9.420080250129104">
        <ele>1698.79</ele>
        <time>2018-01-21T11:49:05Z</time>
      </trkpt>
      <trkpt lat="46.01685251109302" lon="9.42006734199822">
        <ele>1698.79</ele>
        <time>2018-01-21T11:49:07Z</time>
      </trkpt>
      <trkpt lat="46.016822000965476" lon="9.42008008249104">
        <ele>1696.3800000000001</ele>
        <time>2018-01-21T11:49:11Z</time>
      </trkpt>
      <trkpt lat="46.01680951192975" lon="9.420080585405231">
        <ele>1697.3399999999999</ele>
        <time>2018-01-21T11:49:17Z</time>
      </trkpt>
      <trkpt lat="46.016819318756461" lon="9.42010598257184">
        <ele>1695.4200000000001</ele>
        <time>2018-01-21T11:49:20Z</time>
      </trkpt>
      <trkpt lat="46.016820492222905" lon="9.42011377774179">
        <ele>1696.3800000000001</ele>
        <time>2018-01-21T11:49:22Z</time>
      </trkpt>
      <trkpt lat="46.016816301271319" lon="9.420109754428268">
        <ele>1696.3800000000001</ele>
        <time>2018-01-21T11:49:27Z</time>
      </trkpt>
      <trkpt lat="46.016826191917062" lon="9.42010791040957">
        <ele>1694.46</ele>
        <time>2018-01-21T11:49:30Z</time>
      </trkpt>
      <trkpt lat="46.01684806868434" lon="9.420107994228602">
        <ele>1690.1400000000001</ele>
        <time>2018-01-21T11:49:42Z</time>
      </trkpt>
      <trkpt lat="46.016848739236593" lon="9.420109754428268">
        <ele>1690.1400000000001</ele>
        <time>2018-01-21T11:49:43Z</time>
      </trkpt>
      <trkpt lat="46.0168397706002" lon="9.420093409717083">
        <ele>1692.54</ele>
        <time>2018-01-21T11:49:49Z</time>
      </trkpt>
      <trkpt lat="46.016827030107379" lon="9.420081004500389">
        <ele>1696.3800000000001</ele>
        <time>2018-01-21T11:50:00Z</time>
      </trkpt>
      <trkpt lat="46.01682853884995" lon="9.420098103582859">
        <ele>1695.9000000000001</ele>
        <time>2018-01-21T11:50:07Z</time>
      </trkpt>
      <trkpt lat="46.016835998743773" lon="9.42009030841291">
        <ele>1693.02</ele>
        <time>2018-01-21T11:50:15Z</time>
      </trkpt>
      <trkpt lat="46.01682954467833" lon="9.420088464394212">
        <ele>1693.5</ele>
        <time>2018-01-21T11:50:26Z</time>
      </trkpt>
      <trkpt lat="46.016804985702038" lon="9.420089721679688">
        <ele>1694.46</ele>
        <time>2018-01-21T11:50:43Z</time>
      </trkpt>
      <trkpt lat="46.016810014843941" lon="9.420100785791874">
        <ele>1693.02</ele>
        <time>2018-01-21T11:50:56Z</time>
      </trkpt>
      <trkpt lat="46.016808757558465" lon="9.420077903196216">
        <ele>1692.54</ele>
        <time>2018-01-21T11:51:10Z</time>
      </trkpt>
      <trkpt lat="46.016819486394525" lon="9.420072706416249">
        <ele>1692.0599999999999</ele>
        <time>2018-01-21T11:51:24Z</time>
      </trkpt>
      <trkpt lat="46.016795178875327" lon="9.420073460787535">
        <ele>1693.98</ele>
        <time>2018-01-21T11:51:38Z</time>
      </trkpt>
      <trkpt lat="46.016794759780169" lon="9.4200424477458">
        <ele>1694.46</ele>
        <time>2018-01-21T11:51:50Z</time>
      </trkpt>
      <trkpt lat="46.016801381483674" lon="9.42002191208303">
        <ele>1691.5799999999999</ele>
        <time>2018-01-21T11:51:52Z</time>
      </trkpt>
      <trkpt lat="46.016809847205877" lon="9.41999651491642">
        <ele>1691.5799999999999</ele>
        <time>2018-01-21T11:52:01Z</time>
      </trkpt>
      <trkpt lat="46.016816301271319" lon="9.419989557936788">
        <ele>1693.02</ele>
        <time>2018-01-21T11:52:06Z</time>
      </trkpt>
      <trkpt lat="46.016853516921401" lon="9.42002777941525">
        <ele>1694.9400000000001</ele>
        <time>2018-01-21T11:52:11Z</time>
      </trkpt>
      <trkpt lat="46.016870196908712" lon="9.420046638697386">
        <ele>1694.9400000000001</ele>
        <time>2018-01-21T11:52:19Z</time>
      </trkpt>
      <trkpt lat="46.016888888552785" lon="9.420053344219923">
        <ele>1695.4200000000001</ele>
        <time>2018-01-21T11:52:28Z</time>
      </trkpt>
      <trkpt lat="46.016881596297026" lon="9.420042112469673">
        <ele>1694.46</ele>
        <time>2018-01-21T11:52:32Z</time>
      </trkpt>
      <trkpt lat="46.016870280727744" lon="9.420015458017588">
        <ele>1695.4200000000001</ele>
        <time>2018-01-21T11:52:35Z</time>
      </trkpt>
      <trkpt lat="46.01683541201055" lon="9.419955275952816">
        <ele>1693.5</ele>
        <time>2018-01-21T11:52:40Z</time>
      </trkpt>
      <trkpt lat="46.016845302656293" lon="9.419962568208575">
        <ele>1693.5</ele>
        <time>2018-01-21T11:52:48Z</time>
      </trkpt>
      <trkpt lat="46.016853097826242" lon="9.41996525041759">
        <ele>1693.5</ele>
        <time>2018-01-21T11:52:51Z</time>
      </trkpt>
      <trkpt lat="46.016848739236593" lon="9.419988803565502">
        <ele>1693.5</ele>
        <time>2018-01-21T11:52:59Z</time>
      </trkpt>
      <trkpt lat="46.016847481951118" lon="9.419992323964834">
        <ele>1693.5</ele>
        <time>2018-01-21T11:53:01Z</time>
      </trkpt>
      <trkpt lat="46.01685737259686" lon="9.41995301283896">
        <ele>1693.02</ele>
        <time>2018-01-21T11:53:07Z</time>
      </trkpt>
      <trkpt lat="46.016854774206877" lon="9.419983774423599">
        <ele>1694.46</ele>
        <time>2018-01-21T11:53:16Z</time>
      </trkpt>
      <trkpt lat="46.016849828884006" lon="9.420007998123765">
        <ele>1695.4200000000001</ele>
        <time>2018-01-21T11:53:37Z</time>
      </trkpt>
      <trkpt lat="46.016864748671651" lon="9.419989893212915">
        <ele>1693.98</ele>
        <time>2018-01-21T11:53:54Z</time>
      </trkpt>
      <trkpt lat="46.016854019835591" lon="9.419979499652982">
        <ele>1694.9400000000001</ele>
        <time>2018-01-21T11:54:05Z</time>
      </trkpt>
      <trkpt lat="46.016856031492352" lon="9.41993398591876">
        <ele>1693.02</ele>
        <time>2018-01-21T11:54:16Z</time>
      </trkpt>
      <trkpt lat="46.016882602125406" lon="9.419837677851319">
        <ele>1693.02</ele>
        <time>2018-01-21T11:54:22Z</time>
      </trkpt>
      <trkpt lat="46.016895929351449" lon="9.419807586818934">
        <ele>1693.02</ele>
        <time>2018-01-21T11:54:24Z</time>
      </trkpt>
      <trkpt lat="46.01693557575345" lon="9.419719157740474">
        <ele>1692.54</ele>
        <time>2018-01-21T11:54:31Z</time>
      </trkpt>
      <trkpt lat="46.016951082274318" lon="9.419698119163513">
        <ele>1693.5</ele>
        <time>2018-01-21T11:54:33Z</time>
      </trkpt>
      <trkpt lat="46.016967678442597" lon="9.419654617086053">
        <ele>1693.5</ele>
        <time>2018-01-21T11:54:36Z</time>
      </trkpt>
      <trkpt lat="46.016989639028907" lon="9.419615305960178">
        <ele>1692.54</ele>
        <time>2018-01-21T11:54:39Z</time>
      </trkpt>
      <trkpt lat="46.01702693849802" lon="9.419554620981216">
        <ele>1692.54</ele>
        <time>2018-01-21T11:54:45Z</time>
      </trkpt>
      <trkpt lat="46.017051665112376" lon="9.419518662616611">
        <ele>1692.54</ele>
        <time>2018-01-21T11:54:49Z</time>
      </trkpt>
      <trkpt lat="46.017131377011538" lon="9.419415900483728">
        <ele>1690.1400000000001</ele>
        <time>2018-01-21T11:55:00Z</time>
      </trkpt>
      <trkpt lat="46.017166832461953" lon="9.41936862654984">
        <ele>1691.5799999999999</ele>
        <time>2018-01-21T11:55:05Z</time>
      </trkpt>
      <trkpt lat="46.017187116667628" lon="9.419353706762195">
        <ele>1691.5799999999999</ele>
        <time>2018-01-21T11:55:07Z</time>
      </trkpt>
      <trkpt lat="46.017212346196175" lon="9.419330824166536">
        <ele>1692.0599999999999</ele>
        <time>2018-01-21T11:55:10Z</time>
      </trkpt>
      <trkpt lat="46.017238665372133" lon="9.4193050917238">
        <ele>1693.02</ele>
        <time>2018-01-21T11:55:13Z</time>
      </trkpt>
      <trkpt lat="46.017329106107354" lon="9.419241221621633">
        <ele>1691.0999999999999</ele>
        <time>2018-01-21T11:55:23Z</time>
      </trkpt>
      <trkpt lat="46.017350312322378" lon="9.419225044548512">
        <ele>1690.1400000000001</ele>
        <time>2018-01-21T11:55:25Z</time>
      </trkpt>
      <trkpt lat="46.017403118312359" lon="9.419203670695424">
        <ele>1689.6500000000001</ele>
        <time>2018-01-21T11:55:31Z</time>
      </trkpt>
      <trkpt lat="46.017423318699002" lon="9.419198809191585">
        <ele>1689.6500000000001</ele>
        <time>2018-01-21T11:55:33Z</time>
      </trkpt>
      <trkpt lat="46.017474951222539" lon="9.419186236336827">
        <ele>1687.73</ele>
        <time>2018-01-21T11:55:38Z</time>
      </trkpt>
      <trkpt lat="46.017528595402837" lon="9.419193863868713">
        <ele>1690.1400000000001</ele>
        <time>2018-01-21T11:55:43Z</time>
      </trkpt>
      <trkpt lat="46.017551813274622" lon="9.419193109497428">
        <ele>1691.0999999999999</ele>
        <time>2018-01-21T11:55:45Z</time>
      </trkpt>
      <trkpt lat="46.01758492179215" lon="9.419176429510117">
        <ele>1692.54</ele>
        <time>2018-01-21T11:55:48Z</time>
      </trkpt>
      <trkpt lat="46.01761476136744" lon="9.419167628511787">
        <ele>1693.5</ele>
        <time>2018-01-21T11:55:51Z</time>
      </trkpt>
      <trkpt lat="46.017642756924033" lon="9.419160671532154">
        <ele>1692.54</ele>
        <time>2018-01-21T11:55:54Z</time>
      </trkpt>
      <trkpt lat="46.017684079706669" lon="9.419139046221972">
        <ele>1692.0599999999999</ele>
        <time>2018-01-21T11:55:58Z</time>
      </trkpt>
      <trkpt lat="46.017704615369439" lon="9.419128736481071">
        <ele>1691.0999999999999</ele>
        <time>2018-01-21T11:56:00Z</time>
      </trkpt>
      <trkpt lat="46.017789943143725" lon="9.419087497517467">
        <ele>1690.1400000000001</ele>
        <time>2018-01-21T11:56:09Z</time>
      </trkpt>
      <trkpt lat="46.017801007255912" lon="9.419078696519136">
        <ele>1690.1400000000001</ele>
        <time>2018-01-21T11:56:10Z</time>
      </trkpt>
      <trkpt lat="46.017822297289968" lon="9.419067464768887">
        <ele>1690.1400000000001</ele>
        <time>2018-01-21T11:56:12Z</time>
      </trkpt>
      <trkpt lat="46.017944924533367" lon="9.419005019590259">
        <ele>1690.1400000000001</ele>
        <time>2018-01-21T11:56:24Z</time>
      </trkpt>
      <trkpt lat="46.018055900931358" lon="9.418939808383584">
        <ele>1689.6500000000001</ele>
        <time>2018-01-21T11:56:36Z</time>
      </trkpt>
      <trkpt lat="46.018074844032526" lon="9.418936036527157">
        <ele>1690.1400000000001</ele>
        <time>2018-01-21T11:56:38Z</time>
      </trkpt>
      <trkpt lat="46.018113736063242" lon="9.418911980465055">
        <ele>1690.1400000000001</ele>
        <time>2018-01-21T11:56:42Z</time>
      </trkpt>
      <trkpt lat="46.018135445192456" lon="9.418901167809963">
        <ele>1690.1400000000001</ele>
        <time>2018-01-21T11:56:44Z</time>
      </trkpt>
      <trkpt lat="46.018195208162069" lon="9.418865544721484">
        <ele>1689.6500000000001</ele>
        <time>2018-01-21T11:56:50Z</time>
      </trkpt>
      <trkpt lat="46.018221862614155" lon="9.418845931068063">
        <ele>1688.21</ele>
        <time>2018-01-21T11:56:53Z</time>
      </trkpt>
      <trkpt lat="46.018251283094287" lon="9.41881500184536">
        <ele>1688.6900000000001</ele>
        <time>2018-01-21T11:56:57Z</time>
      </trkpt>
      <trkpt lat="46.018311213701963" lon="9.418739480897784">
        <ele>1689.1700000000001</ele>
        <time>2018-01-21T11:57:05Z</time>
      </trkpt>
      <trkpt lat="46.018326887860894" lon="9.418720789253712">
        <ele>1689.1700000000001</ele>
        <time>2018-01-21T11:57:07Z</time>
      </trkpt>
      <trkpt lat="46.018361002206802" lon="9.418675778433681">
        <ele>1688.6900000000001</ele>
        <time>2018-01-21T11:57:12Z</time>
      </trkpt>
      <trkpt lat="46.01838338188827" lon="9.418643927201629">
        <ele>1688.6900000000001</ele>
        <time>2018-01-21T11:57:15Z</time>
      </trkpt>
      <trkpt lat="46.018411964178085" lon="9.418609393760562">
        <ele>1688.6900000000001</ele>
        <time>2018-01-21T11:57:19Z</time>
      </trkpt>
      <trkpt lat="46.018442055210471" lon="9.418559689074755">
        <ele>1687.73</ele>
        <time>2018-01-21T11:57:24Z</time>
      </trkpt>
      <trkpt lat="46.018460327759385" lon="9.41852817311883">
        <ele>1687.25</ele>
        <time>2018-01-21T11:57:27Z</time>
      </trkpt>
      <trkpt lat="46.018491676077247" lon="9.418485844507814">
        <ele>1686.77</ele>
        <time>2018-01-21T11:57:31Z</time>
      </trkpt>
      <trkpt lat="46.018521934747696" lon="9.418427255004644">
        <ele>1686.29</ele>
        <time>2018-01-21T11:57:37Z</time>
      </trkpt>
      <trkpt lat="46.018552025780082" lon="9.41839138045907">
        <ele>1685.3299999999999</ele>
        <time>2018-01-21T11:57:41Z</time>
      </trkpt>
      <trkpt lat="46.018575998023152" lon="9.418361624702811">
        <ele>1685.3299999999999</ele>
        <time>2018-01-21T11:57:44Z</time>
      </trkpt>
      <trkpt lat="46.018601059913635" lon="9.418327761813998">
        <ele>1684.8499999999999</ele>
        <time>2018-01-21T11:57:47Z</time>
      </trkpt>
      <trkpt lat="46.018619248643517" lon="9.41829121671617">
        <ele>1683.8900000000001</ele>
        <time>2018-01-21T11:57:50Z</time>
      </trkpt>
      <trkpt lat="46.0186374373734" lon="9.418259868398309">
        <ele>1683.8900000000001</ele>
        <time>2018-01-21T11:57:53Z</time>
      </trkpt>
      <trkpt lat="46.01865797303617" lon="9.418223658576608">
        <ele>1684.8499999999999</ele>
        <time>2018-01-21T11:57:56Z</time>
      </trkpt>
      <trkpt lat="46.018668953329325" lon="9.418169260025024">
        <ele>1685.3299999999999</ele>
        <time>2018-01-21T11:58:00Z</time>
      </trkpt>
      <trkpt lat="46.01870440877974" lon="9.418043699115515">
        <ele>1684.8499999999999</ele>
        <time>2018-01-21T11:58:10Z</time>
      </trkpt>
      <trkpt lat="46.01870340295136" lon="9.418027941137552">
        <ele>1684.8499999999999</ele>
        <time>2018-01-21T11:58:11Z</time>
      </trkpt>
      <trkpt lat="46.018713628873229" lon="9.418005645275116">
        <ele>1684.3699999999999</ele>
        <time>2018-01-21T11:58:22Z</time>
      </trkpt>
      <trkpt lat="46.0187117010355" lon="9.418001789599657">
        <ele>1684.3699999999999</ele>
        <time>2018-01-21T11:58:23Z</time>
      </trkpt>
      <trkpt lat="46.018721424043179" lon="9.417960634455085">
        <ele>1684.3699999999999</ele>
        <time>2018-01-21T11:58:26Z</time>
      </trkpt>
      <trkpt lat="46.01873617619276" lon="9.417895842343569">
        <ele>1684.3699999999999</ele>
        <time>2018-01-21T11:58:30Z</time>
      </trkpt>
      <trkpt lat="46.018745983019471" lon="9.417868852615356">
        <ele>1684.3699999999999</ele>
        <time>2018-01-21T11:58:32Z</time>
      </trkpt>
      <trkpt lat="46.018782276660204" lon="9.417757289484143">
        <ele>1682.9300000000001</ele>
        <time>2018-01-21T11:58:40Z</time>
      </trkpt>
      <trkpt lat="46.018815552815795" lon="9.41764916293323">
        <ele>1681.96</ele>
        <time>2018-01-21T11:58:48Z</time>
      </trkpt>
      <trkpt lat="46.018858887255192" lon="9.417530056089163">
        <ele>1684.3699999999999</ele>
        <time>2018-01-21T11:58:58Z</time>
      </trkpt>
      <trkpt lat="46.018862742930651" lon="9.417519075796008">
        <ele>1684.8499999999999</ele>
        <time>2018-01-21T11:58:59Z</time>
      </trkpt>
      <trkpt lat="46.018877914175391" lon="9.41747129894793">
        <ele>1686.77</ele>
        <time>2018-01-21T11:59:03Z</time>
      </trkpt>
      <trkpt lat="46.0188930016011" lon="9.417425952851772">
        <ele>1681.48</ele>
        <time>2018-01-21T11:59:07Z</time>
      </trkpt>
      <trkpt lat="46.018894426524639" lon="9.417415978386998">
        <ele>1681.48</ele>
        <time>2018-01-21T11:59:08Z</time>
      </trkpt>
      <trkpt lat="46.018927786499262" lon="9.417344564571977">
        <ele>1681</ele>
        <time>2018-01-21T11:59:14Z</time>
      </trkpt>
      <trkpt lat="46.018937258049846" lon="9.417316317558289">
        <ele>1680.52</ele>
        <time>2018-01-21T11:59:16Z</time>
      </trkpt>
      <trkpt lat="46.018951423466206" lon="9.417273988947272">
        <ele>1679.5599999999999</ele>
        <time>2018-01-21T11:59:19Z</time>
      </trkpt>
      <trkpt lat="46.018978916108608" lon="9.41716929897666">
        <ele>1681</ele>
        <time>2018-01-21T11:59:27Z</time>
      </trkpt>
      <trkpt lat="46.018991321325302" lon="9.417106183245778">
        <ele>1681</ele>
        <time>2018-01-21T11:59:32Z</time>
      </trkpt>
      <trkpt lat="46.019003642722964" lon="9.417044911533594">
        <ele>1681.48</ele>
        <time>2018-01-21T11:59:36Z</time>
      </trkpt>
      <trkpt lat="46.019037002697587" lon="9.416904849931598">
        <ele>1677.6400000000001</ele>
        <time>2018-01-21T11:59:46Z</time>
      </trkpt>
      <trkpt lat="46.0190484020859" lon="9.416859336197376">
        <ele>1677.1600000000001</ele>
        <time>2018-01-21T11:59:49Z</time>
      </trkpt>
      <trkpt lat="46.019066926091909" lon="9.416801920160651">
        <ele>1677.1600000000001</ele>
        <time>2018-01-21T11:59:53Z</time>
      </trkpt>
      <trkpt lat="46.01910162717104" lon="9.41667283885181">
        <ele>1675.72</ele>
        <time>2018-01-21T12:00:02Z</time>
      </trkpt>
      <trkpt lat="46.019112607464194" lon="9.416559850797057">
        <ele>1675.23</ele>
        <time>2018-01-21T12:00:09Z</time>
      </trkpt>
      <trkpt lat="46.019139010459185" lon="9.416433116421104">
        <ele>1675.72</ele>
        <time>2018-01-21T12:00:17Z</time>
      </trkpt>
      <trkpt lat="46.019144291058183" lon="9.416399421170354">
        <ele>1677.1600000000001</ele>
        <time>2018-01-21T12:00:28Z</time>
      </trkpt>
      <trkpt lat="46.019149487838149" lon="9.416402941569686">
        <ele>1678.1199999999999</ele>
        <time>2018-01-21T12:00:40Z</time>
      </trkpt>
      <trkpt lat="46.019185110926628" lon="9.41637578420341">
        <ele>1679.0799999999999</ele>
        <time>2018-01-21T12:00:45Z</time>
      </trkpt>
      <trkpt lat="46.019213441759348" lon="9.416339239105582">
        <ele>1680.52</ele>
        <time>2018-01-21T12:00:50Z</time>
      </trkpt>
      <trkpt lat="46.01924629881978" lon="9.416310992091894">
        <ele>1681.96</ele>
        <time>2018-01-21T12:00:55Z</time>
      </trkpt>
      <trkpt lat="46.019271779805422" lon="9.416315434500575">
        <ele>1683.4100000000001</ele>
        <time>2018-01-21T12:00:58Z</time>
      </trkpt>
      <trkpt lat="46.019298853352666" lon="9.416308728978038">
        <ele>1683.8900000000001</ele>
        <time>2018-01-21T12:01:08Z</time>
      </trkpt>
      <trkpt lat="46.019301954656839" lon="9.416306717321277">
        <ele>1680.04</ele>
        <time>2018-01-21T12:01:10Z</time>
      </trkpt>
      <trkpt lat="46.01929516531527" lon="9.416307220235467">
        <ele>1682.9300000000001</ele>
        <time>2018-01-21T12:01:13Z</time>
      </trkpt>
      <trkpt lat="46.019299859181046" lon="9.41630688495934">
        <ele>1680.52</ele>
        <time>2018-01-21T12:01:16Z</time>
      </trkpt>
      <trkpt lat="46.019285526126623" lon="9.416341250762343">
        <ele>1681.48</ele>
        <time>2018-01-21T12:01:20Z</time>
      </trkpt>
      <trkpt lat="46.019220817834139" lon="9.416408976539969">
        <ele>1678.1199999999999</ele>
        <time>2018-01-21T12:01:28Z</time>
      </trkpt>
      <trkpt lat="46.019211933016777" lon="9.41643244586885">
        <ele>1677.1600000000001</ele>
        <time>2018-01-21T12:01:30Z</time>
      </trkpt>
      <trkpt lat="46.019197180867195" lon="9.416516181081533">
        <ele>1678.5999999999999</ele>
        <time>2018-01-21T12:01:39Z</time>
      </trkpt>
      <trkpt lat="46.019191984087229" lon="9.416518276557326">
        <ele>1679.0799999999999</ele>
        <time>2018-01-21T12:01:47Z</time>
      </trkpt>
      <trkpt lat="46.019177231937647" lon="9.416518276557326">
        <ele>1679.5599999999999</ele>
        <time>2018-01-21T12:02:02Z</time>
      </trkpt>
      <trkpt lat="46.019176812842488" lon="9.416516097262502">
        <ele>1679.5599999999999</ele>
        <time>2018-01-21T12:02:13Z</time>
      </trkpt>
      <trkpt lat="46.019170777872205" lon="9.416569657623768">
        <ele>1678.5999999999999</ele>
        <time>2018-01-21T12:02:25Z</time>
      </trkpt>
      <trkpt lat="46.019175220280886" lon="9.416562030091882">
        <ele>1678.1199999999999</ele>
        <time>2018-01-21T12:02:36Z</time>
      </trkpt>
      <trkpt lat="46.019174801185727" lon="9.416541829705238">
        <ele>1680.04</ele>
        <time>2018-01-21T12:02:47Z</time>
      </trkpt>
      <trkpt lat="46.01919055916369" lon="9.416510481387377">
        <ele>1680.52</ele>
        <time>2018-01-21T12:02:59Z</time>
      </trkpt>
      <trkpt lat="46.019210172817111" lon="9.416501261293888">
        <ele>1678.5999999999999</ele>
        <time>2018-01-21T12:03:03Z</time>
      </trkpt>
      <trkpt lat="46.019245376810431" lon="9.41650184802711">
        <ele>1681.96</ele>
        <time>2018-01-21T12:03:10Z</time>
      </trkpt>
      <trkpt lat="46.019277647137642" lon="9.416575273498893">
        <ele>1684.8499999999999</ele>
        <time>2018-01-21T12:03:19Z</time>
      </trkpt>
      <trkpt lat="46.019277479499578" lon="9.416586672887206">
        <ele>1684.8499999999999</ele>
        <time>2018-01-21T12:03:20Z</time>
      </trkpt>
      <trkpt lat="46.01928879506886" lon="9.416592791676521">
        <ele>1686.77</ele>
        <time>2018-01-21T12:03:30Z</time>
      </trkpt>
      <trkpt lat="46.01929415948689" lon="9.416561694815755">
        <ele>1686.77</ele>
        <time>2018-01-21T12:03:41Z</time>
      </trkpt>
      <trkpt lat="46.019280999898911" lon="9.416560018435121">
        <ele>1684.8499999999999</ele>
        <time>2018-01-21T12:03:44Z</time>
      </trkpt>
      <trkpt lat="46.019234983250499" lon="9.416559683158994">
        <ele>1680.52</ele>
        <time>2018-01-21T12:03:49Z</time>
      </trkpt>
      <trkpt lat="46.019223919138312" lon="9.416541997343302">
        <ele>1679.5599999999999</ele>
        <time>2018-01-21T12:03:51Z</time>
      </trkpt>
      <trkpt lat="46.019198354333639" lon="9.416497573256493">
        <ele>1678.5999999999999</ele>
        <time>2018-01-21T12:03:59Z</time>
      </trkpt>
      <trkpt lat="46.01921645924449" lon="9.416518695652485">
        <ele>1680.04</ele>
        <time>2018-01-21T12:04:13Z</time>
      </trkpt>
      <trkpt lat="46.019213106483221" lon="9.416515426710248">
        <ele>1683.4100000000001</ele>
        <time>2018-01-21T12:04:19Z</time>
      </trkpt>
      <trkpt lat="46.019203048199415" lon="9.416551887989044">
        <ele>1686.77</ele>
        <time>2018-01-21T12:04:30Z</time>
      </trkpt>
      <trkpt lat="46.019207825884223" lon="9.416559180244803">
        <ele>1682.4400000000001</ele>
        <time>2018-01-21T12:04:33Z</time>
      </trkpt>
      <trkpt lat="46.019204892218113" lon="9.416556498035789">
        <ele>1681.96</ele>
        <time>2018-01-21T12:04:34Z</time>
      </trkpt>
      <trkpt lat="46.019201539456844" lon="9.416542332619429">
        <ele>1680.04</ele>
        <time>2018-01-21T12:04:39Z</time>
      </trkpt>
      <trkpt lat="46.019203215837479" lon="9.416548954322934">
        <ele>1683.4100000000001</ele>
        <time>2018-01-21T12:04:43Z</time>
      </trkpt>
      <trkpt lat="46.019200617447495" lon="9.416557587683201">
        <ele>1683.4100000000001</ele>
        <time>2018-01-21T12:04:44Z</time>
      </trkpt>
      <trkpt lat="46.0191934928298" lon="9.416555408388376">
        <ele>1682.4400000000001</ele>
        <time>2018-01-21T12:04:47Z</time>
      </trkpt>
      <trkpt lat="46.019194582477212" lon="9.416544009000063">
        <ele>1681.96</ele>
        <time>2018-01-21T12:04:57Z</time>
      </trkpt>
      <trkpt lat="46.01918469183147" lon="9.416546942666173">
        <ele>1680.04</ele>
        <time>2018-01-21T12:05:02Z</time>
      </trkpt>
      <trkpt lat="46.019194750115275" lon="9.416547613218427">
        <ele>1682.9300000000001</ele>
        <time>2018-01-21T12:05:10Z</time>
      </trkpt>
      <trkpt lat="46.019209753721952" lon="9.416550127789378">
        <ele>1681.48</ele>
        <time>2018-01-21T12:05:13Z</time>
      </trkpt>
      <trkpt lat="46.019213860854506" lon="9.416557755321264">
        <ele>1682.9300000000001</ele>
        <time>2018-01-21T12:05:17Z</time>
      </trkpt>
      <trkpt lat="46.019214782863855" lon="9.416563455015421">
        <ele>1679.0799999999999</ele>
        <time>2018-01-21T12:05:19Z</time>
      </trkpt>
      <trkpt lat="46.019214699044824" lon="9.416562784463167">
        <ele>1678.1199999999999</ele>
        <time>2018-01-21T12:05:21Z</time>
      </trkpt>
      <trkpt lat="46.019218722358346" lon="9.416553983464837">
        <ele>1676.2</ele>
        <time>2018-01-21T12:05:26Z</time>
      </trkpt>
      <trkpt lat="46.019221991300583" lon="9.416548116132617">
        <ele>1677.1600000000001</ele>
        <time>2018-01-21T12:05:28Z</time>
      </trkpt>
      <trkpt lat="46.019203886389732" lon="9.416536465287209">
        <ele>1680.04</ele>
        <time>2018-01-21T12:05:35Z</time>
      </trkpt>
      <trkpt lat="46.019194079563022" lon="9.416553229093552">
        <ele>1681.96</ele>
        <time>2018-01-21T12:05:41Z</time>
      </trkpt>
      <trkpt lat="46.019188547506928" lon="9.416552558541298">
        <ele>1678.5999999999999</ele>
        <time>2018-01-21T12:05:52Z</time>
      </trkpt>
      <trkpt lat="46.019156947731972" lon="9.416515761986375">
        <ele>1678.5999999999999</ele>
        <time>2018-01-21T12:05:58Z</time>
      </trkpt>
      <trkpt lat="46.019145464524627" lon="9.416516767814755">
        <ele>1677.6400000000001</ele>
        <time>2018-01-21T12:06:08Z</time>
      </trkpt>
      <trkpt lat="46.019142530858517" lon="9.416534034535289">
        <ele>1678.5999999999999</ele>
        <time>2018-01-21T12:06:23Z</time>
      </trkpt>
      <trkpt lat="46.019136495888233" lon="9.416527496650815">
        <ele>1677.1600000000001</ele>
        <time>2018-01-21T12:06:25Z</time>
      </trkpt>
      <trkpt lat="46.019147811457515" lon="9.416521210223436">
        <ele>1681</ele>
        <time>2018-01-21T12:06:36Z</time>
      </trkpt>
      <trkpt lat="46.019147392362356" lon="9.416519701480866">
        <ele>1681.48</ele>
        <time>2018-01-21T12:06:37Z</time>
      </trkpt>
      <trkpt lat="46.019162898883224" lon="9.416506038978696">
        <ele>1680.04</ele>
        <time>2018-01-21T12:06:41Z</time>
      </trkpt>
      <trkpt lat="46.019157199189067" lon="9.416486844420433">
        <ele>1683.4100000000001</ele>
        <time>2018-01-21T12:06:51Z</time>
      </trkpt>
      <trkpt lat="46.019166335463524" lon="9.416481982916594">
        <ele>1681.48</ele>
        <time>2018-01-21T12:07:07Z</time>
      </trkpt>
      <trkpt lat="46.019168011844158" lon="9.416493466123939">
        <ele>1679.5599999999999</ele>
        <time>2018-01-21T12:07:18Z</time>
      </trkpt>
      <trkpt lat="46.019171783700585" lon="9.416484078392386">
        <ele>1676.6800000000001</ele>
        <time>2018-01-21T12:07:29Z</time>
      </trkpt>
      <trkpt lat="46.019153678789735" lon="9.416468739509583">
        <ele>1674.27</ele>
        <time>2018-01-21T12:07:39Z</time>
      </trkpt>
      <trkpt lat="46.019144207239151" lon="9.416455831378698">
        <ele>1673.79</ele>
        <time>2018-01-21T12:07:54Z</time>
      </trkpt>
      <trkpt lat="46.019155271351337" lon="9.416489023715258">
        <ele>1673.79</ele>
        <time>2018-01-21T12:08:18Z</time>
      </trkpt>
      <trkpt lat="46.019163820892572" lon="9.416490532457829">
        <ele>1675.23</ele>
        <time>2018-01-21T12:08:35Z</time>
      </trkpt>
      <trkpt lat="46.019167760387063" lon="9.416498662903905">
        <ele>1679.0799999999999</ele>
        <time>2018-01-21T12:08:44Z</time>
      </trkpt>
      <trkpt lat="46.019167676568031" lon="9.416496986523271">
        <ele>1679.0799999999999</ele>
        <time>2018-01-21T12:08:45Z</time>
      </trkpt>
      <trkpt lat="46.019177315756679" lon="9.41648961044848">
        <ele>1676.2</ele>
        <time>2018-01-21T12:08:51Z</time>
      </trkpt>
      <trkpt lat="46.019160216674209" lon="9.41650427877903">
        <ele>1676.2</ele>
        <time>2018-01-21T12:08:59Z</time>
      </trkpt>
      <trkpt lat="46.019150409847498" lon="9.416509727016091">
        <ele>1673.3099999999999</ele>
        <time>2018-01-21T12:09:05Z</time>
      </trkpt>
      <trkpt lat="46.019146637991071" lon="9.416520707309246">
        <ele>1678.5999999999999</ele>
        <time>2018-01-21T12:09:13Z</time>
      </trkpt>
      <trkpt lat="46.019148230552673" lon="9.416524730622768">
        <ele>1677.6400000000001</ele>
        <time>2018-01-21T12:09:14Z</time>
      </trkpt>
      <trkpt lat="46.019140770658851" lon="9.416531352326274">
        <ele>1673.3099999999999</ele>
        <time>2018-01-21T12:09:20Z</time>
      </trkpt>
      <trkpt lat="46.019149906933308" lon="9.416508888825774">
        <ele>1671.3900000000001</ele>
        <time>2018-01-21T12:09:25Z</time>
      </trkpt>
      <trkpt lat="46.019153259694576" lon="9.416447281837463">
        <ele>1674.27</ele>
        <time>2018-01-21T12:09:29Z</time>
      </trkpt>
      <trkpt lat="46.019161138683558" lon="9.416412077844143">
        <ele>1672.8299999999999</ele>
        <time>2018-01-21T12:09:31Z</time>
      </trkpt>
      <trkpt lat="46.019167257472873" lon="9.41633471287787">
        <ele>1670.4300000000001</ele>
        <time>2018-01-21T12:09:37Z</time>
      </trkpt>
      <trkpt lat="46.019167844206095" lon="9.416319709271193">
        <ele>1670.4300000000001</ele>
        <time>2018-01-21T12:09:38Z</time>
      </trkpt>
      <trkpt lat="46.01918033324182" lon="9.416257767006755">
        <ele>1671.3900000000001</ele>
        <time>2018-01-21T12:09:42Z</time>
      </trkpt>
      <trkpt lat="46.019222997128963" lon="9.416178306564689">
        <ele>1672.8299999999999</ele>
        <time>2018-01-21T12:09:50Z</time>
      </trkpt>
      <trkpt lat="46.019237330183387" lon="9.416090464219451">
        <ele>1671.3900000000001</ele>
        <time>2018-01-21T12:09:57Z</time>
      </trkpt>
      <trkpt lat="46.019250154495239" lon="9.41603422164917">
        <ele>1671.3900000000001</ele>
        <time>2018-01-21T12:10:01Z</time>
      </trkpt>
      <trkpt lat="46.019286196678877" lon="9.415919221937656">
        <ele>1671.8699999999999</ele>
        <time>2018-01-21T12:10:10Z</time>
      </trkpt>
      <trkpt lat="46.01930296048522" lon="9.415773125365377">
        <ele>1668.51</ele>
        <time>2018-01-21T12:10:20Z</time>
      </trkpt>
      <trkpt lat="46.019325591623783" lon="9.415657203644514">
        <ele>1668.99</ele>
        <time>2018-01-21T12:10:28Z</time>
      </trkpt>
      <trkpt lat="46.019329279661179" lon="9.41562476567924">
        <ele>1668.99</ele>
        <time>2018-01-21T12:10:30Z</time>
      </trkpt>
      <trkpt lat="46.019353000447154" lon="9.41548160277307">
        <ele>1668.99</ele>
        <time>2018-01-21T12:10:40Z</time>
      </trkpt>
      <trkpt lat="46.01940019056201" lon="9.415404824540019">
        <ele>1669.47</ele>
        <time>2018-01-21T12:10:49Z</time>
      </trkpt>
      <trkpt lat="46.019414523616433" lon="9.415427455678582">
        <ele>1669.95</ele>
        <time>2018-01-21T12:11:00Z</time>
      </trkpt>
      <trkpt lat="46.019435813650489" lon="9.415371548384428">
        <ele>1669.95</ele>
        <time>2018-01-21T12:11:13Z</time>
      </trkpt>
      <trkpt lat="46.019498258829117" lon="9.415232073515654">
        <ele>1670.4300000000001</ele>
        <time>2018-01-21T12:11:23Z</time>
      </trkpt>
      <trkpt lat="46.019513346254826" lon="9.415209693834186">
        <ele>1669.95</ele>
        <time>2018-01-21T12:11:25Z</time>
      </trkpt>
      <trkpt lat="46.019523153081536" lon="9.415181027725339">
        <ele>1668.51</ele>
        <time>2018-01-21T12:11:27Z</time>
      </trkpt>
      <trkpt lat="46.019542431458831" lon="9.415143895894289">
        <ele>1667.54</ele>
        <time>2018-01-21T12:11:30Z</time>
      </trkpt>
      <trkpt lat="46.019589705392718" lon="9.415055466815829">
        <ele>1666.0999999999999</ele>
        <time>2018-01-21T12:11:38Z</time>
      </trkpt>
      <trkpt lat="46.019651480019093" lon="9.41493920981884">
        <ele>1665.1400000000001</ele>
        <time>2018-01-21T12:11:48Z</time>
      </trkpt>
      <trkpt lat="46.019676374271512" lon="9.414867041632533">
        <ele>1664.6600000000001</ele>
        <time>2018-01-21T12:11:53Z</time>
      </trkpt>
      <trkpt lat="46.019687354564667" lon="9.414844829589129">
        <ele>1667.0599999999999</ele>
        <time>2018-01-21T12:11:55Z</time>
      </trkpt>
      <trkpt lat="46.0197529848665" lon="9.414710132405162">
        <ele>1664.1800000000001</ele>
        <time>2018-01-21T12:12:05Z</time>
      </trkpt>
      <trkpt lat="46.019807131960988" lon="9.414601335301995">
        <ele>1663.22</ele>
        <time>2018-01-21T12:12:14Z</time>
      </trkpt>
      <trkpt lat="46.019818698987365" lon="9.414573842659593">
        <ele>1664.1800000000001</ele>
        <time>2018-01-21T12:12:16Z</time>
      </trkpt>
      <trkpt lat="46.019863458350301" lon="9.414415424689651">
        <ele>1664.1800000000001</ele>
        <time>2018-01-21T12:12:27Z</time>
      </trkpt>
      <trkpt lat="46.019884580746293" lon="9.414300341159105">
        <ele>1663.7</ele>
        <time>2018-01-21T12:12:35Z</time>
      </trkpt>
      <trkpt lat="46.019920790567994" lon="9.414181988686323">
        <ele>1663.7</ele>
        <time>2018-01-21T12:12:44Z</time>
      </trkpt>
      <trkpt lat="46.019944259896874" lon="9.414113592356443">
        <ele>1662.74</ele>
        <time>2018-01-21T12:12:49Z</time>
      </trkpt>
      <trkpt lat="46.019988181069493" lon="9.413991384208202">
        <ele>1660.8099999999999</ele>
        <time>2018-01-21T12:12:57Z</time>
      </trkpt>
      <trkpt lat="46.019997233524919" lon="9.413933716714382">
        <ele>1660.3299999999999</ele>
        <time>2018-01-21T12:13:01Z</time>
      </trkpt>
      <trkpt lat="46.020017769187689" lon="9.413774376735091">
        <ele>1658.4100000000001</ele>
        <time>2018-01-21T12:13:11Z</time>
      </trkpt>
      <trkpt lat="46.02002807892859" lon="9.41370589658618">
        <ele>1657.9300000000001</ele>
        <time>2018-01-21T12:13:15Z</time>
      </trkpt>
      <trkpt lat="46.020045345649123" lon="9.413644792512059">
        <ele>1656.97</ele>
        <time>2018-01-21T12:13:19Z</time>
      </trkpt>
      <trkpt lat="46.020060852169991" lon="9.413551753386855">
        <ele>1656.01</ele>
        <time>2018-01-21T12:13:25Z</time>
      </trkpt>
      <trkpt lat="46.020077196881175" lon="9.41348603926599">
        <ele>1656.49</ele>
        <time>2018-01-21T12:13:29Z</time>
      </trkpt>
      <trkpt lat="46.02010820992291" lon="9.413412781432271">
        <ele>1654.5699999999999</ele>
        <time>2018-01-21T12:13:34Z</time>
      </trkpt>
      <trkpt lat="46.020117765292525" lon="9.413385456427932">
        <ele>1655.05</ele>
        <time>2018-01-21T12:13:36Z</time>
      </trkpt>
      <trkpt lat="46.020134864374995" lon="9.413343127816916">
        <ele>1654.0899999999999</ele>
        <time>2018-01-21T12:13:39Z</time>
      </trkpt>
      <trkpt lat="46.020148191601038" lon="9.413304487243295">
        <ele>1653.1199999999999</ele>
        <time>2018-01-21T12:13:42Z</time>
      </trkpt>
      <trkpt lat="46.020209714770317" lon="9.413169454783201">
        <ele>1650.24</ele>
        <time>2018-01-21T12:13:52Z</time>
      </trkpt>
      <trkpt lat="46.020235028117895" lon="9.41310633905232">
        <ele>1648.3199999999999</ele>
        <time>2018-01-21T12:13:56Z</time>
      </trkpt>
      <trkpt lat="46.020249780267477" lon="9.413063507527113">
        <ele>1648.8</ele>
        <time>2018-01-21T12:13:59Z</time>
      </trkpt>
      <trkpt lat="46.02028607390821" lon="9.412930738180876">
        <ele>1646.8800000000001</ele>
        <time>2018-01-21T12:14:07Z</time>
      </trkpt>
      <trkpt lat="46.020345333963633" lon="9.412759328261018">
        <ele>1644.95</ele>
        <time>2018-01-21T12:14:19Z</time>
      </trkpt>
      <trkpt lat="46.020350530743599" lon="9.412743067368865">
        <ele>1644.95</ele>
        <time>2018-01-21T12:14:20Z</time>
      </trkpt>
      <trkpt lat="46.02037156932056" lon="9.412554977461696">
        <ele>1641.5899999999999</ele>
        <time>2018-01-21T12:14:32Z</time>
      </trkpt>
      <trkpt lat="46.020408784970641" lon="9.412435535341501">
        <ele>1640.6300000000001</ele>
        <time>2018-01-21T12:14:40Z</time>
      </trkpt>
      <trkpt lat="46.020414400845766" lon="9.412390692159534">
        <ele>1640.1500000000001</ele>
        <time>2018-01-21T12:14:43Z</time>
      </trkpt>
      <trkpt lat="46.020419346168637" lon="9.412362445145845">
        <ele>1640.6300000000001</ele>
        <time>2018-01-21T12:14:45Z</time>
      </trkpt>
      <trkpt lat="46.020436529070139" lon="9.412205703556538">
        <ele>1638.22</ele>
        <time>2018-01-21T12:14:55Z</time>
      </trkpt>
      <trkpt lat="46.020445413887501" lon="9.412158513441682">
        <ele>1637.74</ele>
        <time>2018-01-21T12:14:58Z</time>
      </trkpt>
      <trkpt lat="46.020464776083827" lon="9.412028593942523">
        <ele>1637.26</ele>
        <time>2018-01-21T12:15:06Z</time>
      </trkpt>
      <trkpt lat="46.020488413050771" lon="9.411857016384602">
        <ele>1635.8199999999999</ele>
        <time>2018-01-21T12:15:17Z</time>
      </trkpt>
      <trkpt lat="46.020516827702522" lon="9.41171133890748">
        <ele>1635.3399999999999</ele>
        <time>2018-01-21T12:15:27Z</time>
      </trkpt>
      <trkpt lat="46.02052646689117" lon="9.411652497947216">
        <ele>1634.8599999999999</ele>
        <time>2018-01-21T12:15:31Z</time>
      </trkpt>
      <trkpt lat="46.020543146878481" lon="9.411561219021678">
        <ele>1633.9000000000001</ele>
        <time>2018-01-21T12:15:37Z</time>
      </trkpt>
      <trkpt lat="46.020567370578647" lon="9.411406572908163">
        <ele>1632.9400000000001</ele>
        <time>2018-01-21T12:15:47Z</time>
      </trkpt>
      <trkpt lat="46.020600227639079" lon="9.411256285384297">
        <ele>1631.98</ele>
        <time>2018-01-21T12:15:57Z</time>
      </trkpt>
      <trkpt lat="46.020603412762284" lon="9.411241197958589">
        <ele>1631.98</ele>
        <time>2018-01-21T12:15:58Z</time>
      </trkpt>
      <trkpt lat="46.02063593454659" lon="9.411090323701501">
        <ele>1629.5699999999999</ele>
        <time>2018-01-21T12:16:08Z</time>
      </trkpt>
      <trkpt lat="46.020656134933233" lon="9.41101455129683">
        <ele>1628.6099999999999</ele>
        <time>2018-01-21T12:16:13Z</time>
      </trkpt>
      <trkpt lat="46.020694440230727" lon="9.410934839397669">
        <ele>1628.1300000000001</ele>
        <time>2018-01-21T12:16:19Z</time>
      </trkpt>
      <trkpt lat="46.020704247057438" lon="9.410909358412027">
        <ele>1628.1300000000001</ele>
        <time>2018-01-21T12:16:21Z</time>
      </trkpt>
      <trkpt lat="46.020745234563947" lon="9.410791089758277">
        <ele>1626.21</ele>
        <time>2018-01-21T12:16:32Z</time>
      </trkpt>
      <trkpt lat="46.020765015855432" lon="9.410734679549933">
        <ele>1626.21</ele>
        <time>2018-01-21T12:16:41Z</time>
      </trkpt>
      <trkpt lat="46.020762082189322" lon="9.410725543275476">
        <ele>1626.21</ele>
        <time>2018-01-21T12:16:49Z</time>
      </trkpt>
      <trkpt lat="46.020754454657435" lon="9.410681454464793">
        <ele>1624.77</ele>
        <time>2018-01-21T12:16:58Z</time>
      </trkpt>
      <trkpt lat="46.020760238170624" lon="9.410684807226062">
        <ele>1623.8</ele>
        <time>2018-01-21T12:17:06Z</time>
      </trkpt>
      <trkpt lat="46.020764177665114" lon="9.410679694265127">
        <ele>1624.77</ele>
        <time>2018-01-21T12:17:19Z</time>
      </trkpt>
      <trkpt lat="46.02074733003974" lon="9.41068178974092">
        <ele>1623.3199999999999</ele>
        <time>2018-01-21T12:17:22Z</time>
      </trkpt>
      <trkpt lat="46.020744061097503" lon="9.410676844418049">
        <ele>1625.73</ele>
        <time>2018-01-21T12:17:34Z</time>
      </trkpt>
      <trkpt lat="46.020743809640408" lon="9.410676090046763">
        <ele>1624.28</ele>
        <time>2018-01-21T12:17:36Z</time>
      </trkpt>
      <trkpt lat="46.020744312554598" lon="9.410675838589668">
        <ele>1622.8399999999999</ele>
        <time>2018-01-21T12:17:39Z</time>
      </trkpt>
      <trkpt lat="46.020749593153596" lon="9.410665864124894">
        <ele>1622.8399999999999</ele>
        <time>2018-01-21T12:18:04Z</time>
      </trkpt>
      <trkpt lat="46.020745737478137" lon="9.410674748942256">
        <ele>1622.3599999999999</ele>
        <time>2018-01-21T12:18:18Z</time>
      </trkpt>
      <trkpt lat="46.020753867924213" lon="9.41068128682673">
        <ele>1620.9200000000001</ele>
        <time>2018-01-21T12:18:23Z</time>
      </trkpt>
      <trkpt lat="46.020761243999004" lon="9.410688327625394">
        <ele>1622.8399999999999</ele>
        <time>2018-01-21T12:18:26Z</time>
      </trkpt>
      <trkpt lat="46.020767949521542" lon="9.410703498870134">
        <ele>1622.3599999999999</ele>
        <time>2018-01-21T12:18:38Z</time>
      </trkpt>
      <trkpt lat="46.02078890427947" lon="9.410686064511538">
        <ele>1621.8800000000001</ele>
        <time>2018-01-21T12:18:51Z</time>
      </trkpt>
      <trkpt lat="46.020781863480806" lon="9.410692602396011">
        <ele>1623.8</ele>
        <time>2018-01-21T12:19:05Z</time>
      </trkpt>
      <trkpt lat="46.020780941471457" lon="9.410674162209034">
        <ele>1623.8</ele>
        <time>2018-01-21T12:19:15Z</time>
      </trkpt>
      <trkpt lat="46.020766189321876" lon="9.410677095875144">
        <ele>1623.3199999999999</ele>
        <time>2018-01-21T12:19:23Z</time>
      </trkpt>
      <trkpt lat="46.020748084411025" lon="9.410694446414709">
        <ele>1622.3599999999999</ele>
        <time>2018-01-21T12:19:32Z</time>
      </trkpt>
      <trkpt lat="46.020768284797668" lon="9.410719173029065">
        <ele>1620.4400000000001</ele>
        <time>2018-01-21T12:19:43Z</time>
      </trkpt>
      <trkpt lat="46.020775744691491" lon="9.410745576024056">
        <ele>1621.4000000000001</ele>
        <time>2018-01-21T12:20:03Z</time>
      </trkpt>
      <trkpt lat="46.020772056654096" lon="9.410734344273806">
        <ele>1620.9200000000001</ele>
        <time>2018-01-21T12:20:22Z</time>
      </trkpt>
      <trkpt lat="46.020776079967618" lon="9.410706264898181">
        <ele>1619.96</ele>
        <time>2018-01-21T12:20:40Z</time>
      </trkpt>
      <trkpt lat="46.020786138251424" lon="9.410712886601687">
        <ele>1619.96</ele>
        <time>2018-01-21T12:21:05Z</time>
      </trkpt>
      <trkpt lat="46.020787982270122" lon="9.410716323181987">
        <ele>1619.48</ele>
        <time>2018-01-21T12:21:19Z</time>
      </trkpt>
      <trkpt lat="46.020788988098502" lon="9.410711461678147">
        <ele>1619.48</ele>
        <time>2018-01-21T12:21:38Z</time>
      </trkpt>
      <trkpt lat="46.020787144079804" lon="9.410717496648431">
        <ele>1622.8399999999999</ele>
        <time>2018-01-21T12:21:59Z</time>
      </trkpt>
      <trkpt lat="46.020784880965948" lon="9.410707857459784">
        <ele>1620.4400000000001</ele>
        <time>2018-01-21T12:22:25Z</time>
      </trkpt>
      <trkpt lat="46.020785048604012" lon="9.410711377859116">
        <ele>1620.9200000000001</ele>
        <time>2018-01-21T12:22:50Z</time>
      </trkpt>
      <trkpt lat="46.020780690014362" lon="9.410715568810701">
        <ele>1619.48</ele>
        <time>2018-01-21T12:23:21Z</time>
      </trkpt>
      <trkpt lat="46.020782869309187" lon="9.410731494426727">
        <ele>1621.8800000000001</ele>
        <time>2018-01-21T12:23:47Z</time>
      </trkpt>
      <trkpt lat="46.020775577053428" lon="9.410721687600017">
        <ele>1621.4000000000001</ele>
        <time>2018-01-21T12:24:12Z</time>
      </trkpt>
      <trkpt lat="46.020779348909855" lon="9.410737864673138">
        <ele>1620.4400000000001</ele>
        <time>2018-01-21T12:24:31Z</time>
      </trkpt>
      <trkpt lat="46.020779181271791" lon="9.410738199949265">
        <ele>1621.8800000000001</ele>
        <time>2018-01-21T12:25:02Z</time>
      </trkpt>
      <trkpt lat="46.020778845995665" lon="9.410713724792004">
        <ele>1621.8800000000001</ele>
        <time>2018-01-21T12:25:31Z</time>
      </trkpt>
      <trkpt lat="46.020780690014362" lon="9.410710539668798">
        <ele>1621.4000000000001</ele>
        <time>2018-01-21T12:25:57Z</time>
      </trkpt>
      <trkpt lat="46.020789910107851" lon="9.410688495263457">
        <ele>1620.4400000000001</ele>
        <time>2018-01-21T12:26:27Z</time>
      </trkpt>
      <trkpt lat="46.020789658650756" lon="9.410699810832739">
        <ele>1619.48</ele>
        <time>2018-01-21T12:26:55Z</time>
      </trkpt>
      <trkpt lat="46.020784545689821" lon="9.410707522183657">
        <ele>1619.96</ele>
        <time>2018-01-21T12:27:27Z</time>
      </trkpt>
      <trkpt lat="46.020784294232726" lon="9.410721436142921">
        <ele>1623.3199999999999</ele>
        <time>2018-01-21T12:27:45Z</time>
      </trkpt>
      <trkpt lat="46.020783791318536" lon="9.410723112523556">
        <ele>1624.77</ele>
        <time>2018-01-21T12:27:48Z</time>
      </trkpt>
      <trkpt lat="46.020785048604012" lon="9.410716239362955">
        <ele>1624.28</ele>
        <time>2018-01-21T12:28:24Z</time>
      </trkpt>
      <trkpt lat="46.020788652822375" lon="9.410698050633073">
        <ele>1623.8</ele>
        <time>2018-01-21T12:28:52Z</time>
      </trkpt>
      <trkpt lat="46.020784880965948" lon="9.410708528012037">
        <ele>1620.9200000000001</ele>
        <time>2018-01-21T12:29:25Z</time>
      </trkpt>
      <trkpt lat="46.020786389708519" lon="9.410726130008698">
        <ele>1621.4000000000001</ele>
        <time>2018-01-21T12:29:52Z</time>
      </trkpt>
      <trkpt lat="46.020776918157935" lon="9.41071841865778">
        <ele>1623.8</ele>
        <time>2018-01-21T12:30:18Z</time>
      </trkpt>
      <trkpt lat="46.020778594538569" lon="9.410712299868465">
        <ele>1623.3199999999999</ele>
        <time>2018-01-21T12:30:28Z</time>
      </trkpt>
      <trkpt lat="46.020783539861441" lon="9.410714814439416">
        <ele>1623.8</ele>
        <time>2018-01-21T12:30:34Z</time>
      </trkpt>
      <trkpt lat="46.020780773833394" lon="9.410709198564291">
        <ele>1624.77</ele>
        <time>2018-01-21T12:30:39Z</time>
      </trkpt>
      <trkpt lat="46.020781109109521" lon="9.410711210221052">
        <ele>1625.73</ele>
        <time>2018-01-21T12:31:12Z</time>
      </trkpt>
      <trkpt lat="46.020785300061107" lon="9.410703079774976">
        <ele>1624.28</ele>
        <time>2018-01-21T12:31:16Z</time>
      </trkpt>
      <trkpt lat="46.020787982270122" lon="9.410697128623724">
        <ele>1624.77</ele>
        <time>2018-01-21T12:31:17Z</time>
      </trkpt>
      <trkpt lat="46.020763507112861" lon="9.410690339282155">
        <ele>1625.25</ele>
        <time>2018-01-21T12:31:24Z</time>
      </trkpt>
      <trkpt lat="46.02076199837029" lon="9.410683214664459">
        <ele>1627.1700000000001</ele>
        <time>2018-01-21T12:31:28Z</time>
      </trkpt>
      <trkpt lat="46.020758058875799" lon="9.410684471949935">
        <ele>1625.25</ele>
        <time>2018-01-21T12:31:41Z</time>
      </trkpt>
      <trkpt lat="46.020763507112861" lon="9.41067349165678">
        <ele>1625.73</ele>
        <time>2018-01-21T12:31:52Z</time>
      </trkpt>
      <trkpt lat="46.020772727206349" lon="9.410669803619385">
        <ele>1624.28</ele>
        <time>2018-01-21T12:32:08Z</time>
      </trkpt>
      <trkpt lat="46.020749844610691" lon="9.410661421716213">
        <ele>1625.73</ele>
        <time>2018-01-21T12:32:23Z</time>
      </trkpt>
      <trkpt lat="46.020749676972628" lon="9.410667205229402">
        <ele>1623.8</ele>
        <time>2018-01-21T12:32:35Z</time>
      </trkpt>
      <trkpt lat="46.020752023905516" lon="9.410669216886163">
        <ele>1621.8800000000001</ele>
        <time>2018-01-21T12:32:53Z</time>
      </trkpt>
      <trkpt lat="46.020744312554598" lon="9.410652033984661">
        <ele>1623.8</ele>
        <time>2018-01-21T12:33:05Z</time>
      </trkpt>
      <trkpt lat="46.020741797983646" lon="9.410650609061122">
        <ele>1621.4000000000001</ele>
        <time>2018-01-21T12:33:19Z</time>
      </trkpt>
      <trkpt lat="46.020746408030391" lon="9.41063342615962">
        <ele>1622.8399999999999</ele>
        <time>2018-01-21T12:33:38Z</time>
      </trkpt>
      <trkpt lat="46.020764177665114" lon="9.410666283220053">
        <ele>1626.21</ele>
        <time>2018-01-21T12:33:48Z</time>
      </trkpt>
      <trkpt lat="46.020766021683812" lon="9.410658571869135">
        <ele>1623.8</ele>
        <time>2018-01-21T12:34:02Z</time>
      </trkpt>
      <trkpt lat="46.020769877359271" lon="9.410646837204695">
        <ele>1624.77</ele>
        <time>2018-01-21T12:34:16Z</time>
      </trkpt>
      <trkpt lat="46.020774319767952" lon="9.410667959600687">
        <ele>1623.8</ele>
        <time>2018-01-21T12:34:29Z</time>
      </trkpt>
      <trkpt lat="46.020759148523211" lon="9.410646921023727">
        <ele>1624.28</ele>
        <time>2018-01-21T12:34:42Z</time>
      </trkpt>
      <trkpt lat="46.020763507112861" lon="9.410666199401021">
        <ele>1624.28</ele>
        <time>2018-01-21T12:34:58Z</time>
      </trkpt>
      <trkpt lat="46.020766859874129" lon="9.410665025934577">
        <ele>1624.28</ele>
        <time>2018-01-21T12:35:15Z</time>
      </trkpt>
      <trkpt lat="46.020768284797668" lon="9.410668127238751">
        <ele>1623.8</ele>
        <time>2018-01-21T12:35:35Z</time>
      </trkpt>
      <trkpt lat="46.02077323012054" lon="9.410651614889503">
        <ele>1625.25</ele>
        <time>2018-01-21T12:35:54Z</time>
      </trkpt>
      <trkpt lat="46.020766608417034" lon="9.410640634596348">
        <ele>1627.6500000000001</ele>
        <time>2018-01-21T12:36:09Z</time>
      </trkpt>
      <trkpt lat="46.020764512941241" lon="9.410662846639752">
        <ele>1627.1700000000001</ele>
        <time>2018-01-21T12:36:27Z</time>
      </trkpt>
      <trkpt lat="46.020752107724547" lon="9.410623535513878">
        <ele>1626.21</ele>
        <time>2018-01-21T12:36:39Z</time>
      </trkpt>
      <trkpt lat="46.020766859874129" lon="9.410553462803364">
        <ele>1624.77</ele>
        <time>2018-01-21T12:36:47Z</time>
      </trkpt>
      <trkpt lat="46.020780019462109" lon="9.410531921312213">
        <ele>1623.3199999999999</ele>
        <time>2018-01-21T12:37:00Z</time>
      </trkpt>
      <trkpt lat="46.020794101059437" lon="9.410505266860127">
        <ele>1622.3599999999999</ele>
        <time>2018-01-21T12:37:12Z</time>
      </trkpt>
      <trkpt lat="46.020801644772291" lon="9.410486994311214">
        <ele>1621.4000000000001</ele>
        <time>2018-01-21T12:37:25Z</time>
      </trkpt>
      <trkpt lat="46.020810110494494" lon="9.410430332645774">
        <ele>1621.8800000000001</ele>
        <time>2018-01-21T12:37:32Z</time>
      </trkpt>
      <trkpt lat="46.02081916294992" lon="9.41033243201673">
        <ele>1619.96</ele>
        <time>2018-01-21T12:37:40Z</time>
      </trkpt>
      <trkpt lat="46.020857719704509" lon="9.410256575793028">
        <ele>1618.52</ele>
        <time>2018-01-21T12:37:47Z</time>
      </trkpt>
      <trkpt lat="46.020861407741904" lon="9.410229418426752">
        <ele>1618.52</ele>
        <time>2018-01-21T12:37:49Z</time>
      </trkpt>
      <trkpt lat="46.02090080268681" lon="9.410095475614071">
        <ele>1617.5599999999999</ele>
        <time>2018-01-21T12:37:59Z</time>
      </trkpt>
      <trkpt lat="46.020906837657094" lon="9.410067731514573">
        <ele>1617.5599999999999</ele>
        <time>2018-01-21T12:38:01Z</time>
      </trkpt>
      <trkpt lat="46.02095109410584" lon="9.409871678799391">
        <ele>1615.1500000000001</ele>
        <time>2018-01-21T12:38:13Z</time>
      </trkpt>
      <trkpt lat="46.020999541506171" lon="9.409734215587378">
        <ele>1614.6700000000001</ele>
        <time>2018-01-21T12:38:22Z</time>
      </trkpt>
      <trkpt lat="46.021041870117187" lon="9.409648468717933">
        <ele>1615.1500000000001</ele>
        <time>2018-01-21T12:38:28Z</time>
      </trkpt>
      <trkpt lat="46.021057795733213" lon="9.409630782902241">
        <ele>1614.1900000000001</ele>
        <time>2018-01-21T12:38:30Z</time>
      </trkpt>
      <trkpt lat="46.021138429641724" lon="9.409533720463514">
        <ele>1612.75</ele>
        <time>2018-01-21T12:38:39Z</time>
      </trkpt>
      <trkpt lat="46.021167598664761" lon="9.409511256963015">
        <ele>1612.27</ele>
        <time>2018-01-21T12:38:42Z</time>
      </trkpt>
      <trkpt lat="46.021187715232372" lon="9.409502539783716">
        <ele>1611.79</ele>
        <time>2018-01-21T12:38:44Z</time>
      </trkpt>
      <trkpt lat="46.021210346370935" lon="9.40948560833931">
        <ele>1613.23</ele>
        <time>2018-01-21T12:38:46Z</time>
      </trkpt>
      <trkpt lat="46.021234067156911" lon="9.409476388245821">
        <ele>1613.71</ele>
        <time>2018-01-21T12:38:48Z</time>
      </trkpt>
      <trkpt lat="46.021242029964924" lon="9.409468173980713">
        <ele>1613.71</ele>
        <time>2018-01-21T12:38:49Z</time>
      </trkpt>
      <trkpt lat="46.021279329434037" lon="9.409439424052835">
        <ele>1612.27</ele>
        <time>2018-01-21T12:38:53Z</time>
      </trkpt>
      <trkpt lat="46.021301373839378" lon="9.409436909481883">
        <ele>1610.8299999999999</ele>
        <time>2018-01-21T12:38:55Z</time>
      </trkpt>
      <trkpt lat="46.02135225199163" lon="9.409407824277878">
        <ele>1609.3800000000001</ele>
        <time>2018-01-21T12:39:00Z</time>
      </trkpt>
      <trkpt lat="46.021374128758907" lon="9.409388713538647">
        <ele>1606.5</ele>
        <time>2018-01-21T12:39:03Z</time>
      </trkpt>
      <trkpt lat="46.021401034668088" lon="9.409370189532638">
        <ele>1606.02</ele>
        <time>2018-01-21T12:39:06Z</time>
      </trkpt>
      <trkpt lat="46.021511256694794" lon="9.409310258924961">
        <ele>1606.98</ele>
        <time>2018-01-21T12:39:17Z</time>
      </trkpt>
      <trkpt lat="46.021596668288112" lon="9.409272540360689">
        <ele>1606.02</ele>
        <time>2018-01-21T12:39:24Z</time>
      </trkpt>
      <trkpt lat="46.02160781621933" lon="9.40926818177104">
        <ele>1606.02</ele>
        <time>2018-01-21T12:39:25Z</time>
      </trkpt>
      <trkpt lat="46.021624999120831" lon="9.409249406307936">
        <ele>1606.98</ele>
        <time>2018-01-21T12:39:27Z</time>
      </trkpt>
      <trkpt lat="46.021652827039361" lon="9.409209843724966">
        <ele>1604.0999999999999</ele>
        <time>2018-01-21T12:39:31Z</time>
      </trkpt>
      <trkpt lat="46.021668333560228" lon="9.409113368019462">
        <ele>1601.21</ele>
        <time>2018-01-21T12:39:38Z</time>
      </trkpt>
      <trkpt lat="46.021677386015654" lon="9.409091658890247">
        <ele>1601.6900000000001</ele>
        <time>2018-01-21T12:39:40Z</time>
      </trkpt>
      <trkpt lat="46.021691802889109" lon="9.40901312045753">
        <ele>1600.25</ele>
        <time>2018-01-21T12:39:45Z</time>
      </trkpt>
      <trkpt lat="46.021729353815317" lon="9.408852104097605">
        <ele>1597.3699999999999</ele>
        <time>2018-01-21T12:39:56Z</time>
      </trkpt>
      <trkpt lat="46.021786937490106" lon="9.408758478239179">
        <ele>1596.8900000000001</ele>
        <time>2018-01-21T12:40:05Z</time>
      </trkpt>
      <trkpt lat="46.021815603598952" lon="9.40871405415237">
        <ele>1598.8099999999999</ele>
        <time>2018-01-21T12:40:09Z</time>
      </trkpt>
      <trkpt lat="46.021829517558217" lon="9.408693518489599">
        <ele>1599.77</ele>
        <time>2018-01-21T12:40:11Z</time>
      </trkpt>
      <trkpt lat="46.021848795935512" lon="9.408679939806461">
        <ele>1599.29</ele>
        <time>2018-01-21T12:40:13Z</time>
      </trkpt>
      <trkpt lat="46.02190688252449" lon="9.408544236794114">
        <ele>1596.4100000000001</ele>
        <time>2018-01-21T12:40:23Z</time>
      </trkpt>
      <trkpt lat="46.021911157295108" lon="9.408530993387103">
        <ele>1596.4100000000001</ele>
        <time>2018-01-21T12:40:24Z</time>
      </trkpt>
      <trkpt lat="46.021965807303786" lon="9.408359248191118">
        <ele>1594</ele>
        <time>2018-01-21T12:40:36Z</time>
      </trkpt>
      <trkpt lat="46.022025821730494" lon="9.408233352005482">
        <ele>1591.1199999999999</ele>
        <time>2018-01-21T12:40:46Z</time>
      </trkpt>
      <trkpt lat="46.022047614678741" lon="9.40808717161417">
        <ele>1589.6800000000001</ele>
        <time>2018-01-21T12:40:55Z</time>
      </trkpt>
      <trkpt lat="46.022056080400944" lon="9.407987929880619">
        <ele>1588.72</ele>
        <time>2018-01-21T12:41:03Z</time>
      </trkpt>
      <trkpt lat="46.022060522809625" lon="9.407934118062258">
        <ele>1587.75</ele>
        <time>2018-01-21T12:41:07Z</time>
      </trkpt>
      <trkpt lat="46.022075694054365" lon="9.407863961532712">
        <ele>1586.3099999999999</ele>
        <time>2018-01-21T12:41:12Z</time>
      </trkpt>
      <trkpt lat="46.022078124806285" lon="9.407814089208841">
        <ele>1586.3099999999999</ele>
        <time>2018-01-21T12:41:15Z</time>
      </trkpt>
      <trkpt lat="46.022087428718805" lon="9.407749129459262">
        <ele>1585.3499999999999</ele>
        <time>2018-01-21T12:41:20Z</time>
      </trkpt>
      <trkpt lat="46.022086255252361" lon="9.407718200236559">
        <ele>1584.8699999999999</ele>
        <time>2018-01-21T12:41:22Z</time>
      </trkpt>
      <trkpt lat="46.022088183090091" lon="9.407690120860934">
        <ele>1584.3900000000001</ele>
        <time>2018-01-21T12:41:24Z</time>
      </trkpt>
      <trkpt lat="46.022087596356869" lon="9.407662376761437">
        <ele>1583.9100000000001</ele>
        <time>2018-01-21T12:41:26Z</time>
      </trkpt>
      <trkpt lat="46.022085417062044" lon="9.407493062317371">
        <ele>1581.03</ele>
        <time>2018-01-21T12:41:39Z</time>
      </trkpt>
      <trkpt lat="46.022084159776568" lon="9.407465904951096">
        <ele>1580.54</ele>
        <time>2018-01-21T12:41:41Z</time>
      </trkpt>
      <trkpt lat="46.022073095664382" lon="9.407360376790166">
        <ele>1579.5799999999999</ele>
        <time>2018-01-21T12:41:50Z</time>
      </trkpt>
      <trkpt lat="46.022064462304115" lon="9.407331207767129">
        <ele>1578.1400000000001</ele>
        <time>2018-01-21T12:41:52Z</time>
      </trkpt>
      <trkpt lat="46.022045686841011" lon="9.407197013497353">
        <ele>1577.1800000000001</ele>
        <time>2018-01-21T12:42:02Z</time>
      </trkpt>
      <trkpt lat="46.022043423727155" lon="9.40713825635612">
        <ele>1576.7</ele>
        <time>2018-01-21T12:42:06Z</time>
      </trkpt>
      <trkpt lat="46.022065551951528" lon="9.407058460637927">
        <ele>1577.1800000000001</ele>
        <time>2018-01-21T12:42:12Z</time>
      </trkpt>
      <trkpt lat="46.022110059857368" lon="9.40698285587132">
        <ele>1574.78</ele>
        <time>2018-01-21T12:42:19Z</time>
      </trkpt>
      <trkpt lat="46.022121794521809" lon="9.406964834779501">
        <ele>1575.26</ele>
        <time>2018-01-21T12:42:21Z</time>
      </trkpt>
      <trkpt lat="46.02219614200294" lon="9.406941365450621">
        <ele>1572.3699999999999</ele>
        <time>2018-01-21T12:42:28Z</time>
      </trkpt>
      <trkpt lat="46.022218186408281" lon="9.406929714605212">
        <ele>1569.01</ele>
        <time>2018-01-21T12:42:30Z</time>
      </trkpt>
      <trkpt lat="46.022230926901102" lon="9.40692376345396">
        <ele>1569.97</ele>
        <time>2018-01-21T12:42:31Z</time>
      </trkpt>
      <trkpt lat="46.022246349602938" lon="9.406923931092024">
        <ele>1565.6400000000001</ele>
        <time>2018-01-21T12:42:33Z</time>
      </trkpt>
      <trkpt lat="46.022252636030316" lon="9.406921165063977">
        <ele>1569.97</ele>
        <time>2018-01-21T12:42:34Z</time>
      </trkpt>
      <trkpt lat="46.022258587181568" lon="9.406913537532091">
        <ele>1574.3</ele>
        <time>2018-01-21T12:42:35Z</time>
      </trkpt>
      <trkpt lat="46.022280966863036" lon="9.406913705170155">
        <ele>1567.5699999999999</ele>
        <time>2018-01-21T12:42:37Z</time>
      </trkpt>
      <trkpt lat="46.022290354594588" lon="9.406912699341774">
        <ele>1570.9300000000001</ele>
        <time>2018-01-21T12:42:38Z</time>
      </trkpt>
      <trkpt lat="46.022309297695756" lon="9.406912280246615">
        <ele>1568.05</ele>
        <time>2018-01-21T12:42:40Z</time>
      </trkpt>
      <trkpt lat="46.022341568022966" lon="9.406910436227918">
        <ele>1569.01</ele>
        <time>2018-01-21T12:42:44Z</time>
      </trkpt>
      <trkpt lat="46.022369395941496" lon="9.406900964677334">
        <ele>1572.8499999999999</ele>
        <time>2018-01-21T12:42:47Z</time>
      </trkpt>
      <trkpt lat="46.022399570792913" lon="9.406897695735097">
        <ele>1569.97</ele>
        <time>2018-01-21T12:42:50Z</time>
      </trkpt>
      <trkpt lat="46.022421950474381" lon="9.406895264983177">
        <ele>1572.3699999999999</ele>
        <time>2018-01-21T12:42:52Z</time>
      </trkpt>
      <trkpt lat="46.02244483307004" lon="9.406895264983177">
        <ele>1561.8</ele>
        <time>2018-01-21T12:42:54Z</time>
      </trkpt>
      <trkpt lat="46.022466709837317" lon="9.406904233619571">
        <ele>1563.72</ele>
        <time>2018-01-21T12:42:56Z</time>
      </trkpt>
      <trkpt lat="46.022509122267365" lon="9.406915465369821">
        <ele>1558.9200000000001</ele>
        <time>2018-01-21T12:43:00Z</time>
      </trkpt>
      <trkpt lat="46.02261146530509" lon="9.406913788989186">
        <ele>1556.03</ele>
        <time>2018-01-21T12:43:09Z</time>
      </trkpt>
      <trkpt lat="46.022638203576207" lon="9.406918566673994">
        <ele>1557.47</ele>
        <time>2018-01-21T12:43:12Z</time>
      </trkpt>
      <trkpt lat="46.022731913253665" lon="9.406934157013893">
        <ele>1557.47</ele>
        <time>2018-01-21T12:43:21Z</time>
      </trkpt>
      <trkpt lat="46.022743145003915" lon="9.406938515603542">
        <ele>1557.47</ele>
        <time>2018-01-21T12:43:22Z</time>
      </trkpt>
      <trkpt lat="46.022764602676034" lon="9.406946310773492">
        <ele>1557.95</ele>
        <time>2018-01-21T12:43:24Z</time>
      </trkpt>
      <trkpt lat="46.022841464728117" lon="9.406959051266313">
        <ele>1555.55</ele>
        <time>2018-01-21T12:43:31Z</time>
      </trkpt>
      <trkpt lat="46.02285185828805" lon="9.406963996589184">
        <ele>1555.55</ele>
        <time>2018-01-21T12:43:32Z</time>
      </trkpt>
      <trkpt lat="46.022901646792889" lon="9.40695502795279">
        <ele>1555.0699999999999</ele>
        <time>2018-01-21T12:43:37Z</time>
      </trkpt>
      <trkpt lat="46.022928971797228" lon="9.406935246661305">
        <ele>1552.1900000000001</ele>
        <time>2018-01-21T12:43:41Z</time>
      </trkpt>
      <trkpt lat="46.022949339821935" lon="9.406966175884008">
        <ele>1556.03</ele>
        <time>2018-01-21T12:43:50Z</time>
      </trkpt>
      <trkpt lat="46.022962583228946" lon="9.40694329328835">
        <ele>1552.1900000000001</ele>
        <time>2018-01-21T12:43:53Z</time>
      </trkpt>
      <trkpt lat="46.02297498844564" lon="9.406939269974828">
        <ele>1555.0699999999999</ele>
        <time>2018-01-21T12:43:57Z</time>
      </trkpt>
      <trkpt lat="46.022986052557826" lon="9.406948322430253">
        <ele>1555.0699999999999</ele>
        <time>2018-01-21T12:44:07Z</time>
      </trkpt>
      <trkpt lat="46.022981610149145" lon="9.406956788152456">
        <ele>1551.71</ele>
        <time>2018-01-21T12:44:20Z</time>
      </trkpt>
      <trkpt lat="46.022991752251983" lon="9.406955866143107">
        <ele>1551.22</ele>
        <time>2018-01-21T12:44:21Z</time>
      </trkpt>
      <trkpt lat="46.023037014529109" lon="9.406937677413225">
        <ele>1549.3</ele>
        <time>2018-01-21T12:44:24Z</time>
      </trkpt>
      <trkpt lat="46.023048078641295" lon="9.406935665756464">
        <ele>1550.26</ele>
        <time>2018-01-21T12:44:25Z</time>
      </trkpt>
      <trkpt lat="46.023099878802896" lon="9.406949998810887">
        <ele>1554.1099999999999</ele>
        <time>2018-01-21T12:44:29Z</time>
      </trkpt>
      <trkpt lat="46.023150840774179" lon="9.406958548352122">
        <ele>1549.78</ele>
        <time>2018-01-21T12:44:33Z</time>
      </trkpt>
      <trkpt lat="46.02316165342927" lon="9.406960643827915">
        <ele>1550.26</ele>
        <time>2018-01-21T12:44:34Z</time>
      </trkpt>
      <trkpt lat="46.023285537958145" lon="9.407014539465308">
        <ele>1546.9000000000001</ele>
        <time>2018-01-21T12:44:41Z</time>
      </trkpt>
      <trkpt lat="46.023331554606557" lon="9.407080002129078">
        <ele>1548.8199999999999</ele>
        <time>2018-01-21T12:44:44Z</time>
      </trkpt>
      <trkpt lat="46.023381594568491" lon="9.407154601067305">
        <ele>1549.3</ele>
        <time>2018-01-21T12:44:50Z</time>
      </trkpt>
      <trkpt lat="46.023451080545783" lon="9.407176645472646">
        <ele>1551.71</ele>
        <time>2018-01-21T12:44:55Z</time>
      </trkpt>
      <trkpt lat="46.023478154093027" lon="9.407171448692679">
        <ele>1550.74</ele>
        <time>2018-01-21T12:44:57Z</time>
      </trkpt>
      <trkpt lat="46.023559458553791" lon="9.407182093709707">
        <ele>1549.3</ele>
        <time>2018-01-21T12:45:04Z</time>
      </trkpt>
      <trkpt lat="46.023616204038262" lon="9.407204054296017">
        <ele>1548.8199999999999</ele>
        <time>2018-01-21T12:45:10Z</time>
      </trkpt>
      <trkpt lat="46.02370354346931" lon="9.407210340723395">
        <ele>1548.3399999999999</ele>
        <time>2018-01-21T12:45:21Z</time>
      </trkpt>
      <trkpt lat="46.023769341409206" lon="9.407194331288338">
        <ele>1546.4200000000001</ele>
        <time>2018-01-21T12:45:28Z</time>
      </trkpt>
      <trkpt lat="46.023790463805199" lon="9.407185278832912">
        <ele>1545.9400000000001</ele>
        <time>2018-01-21T12:45:30Z</time>
      </trkpt>
      <trkpt lat="46.023915857076645" lon="9.40715728327632">
        <ele>1543.53</ele>
        <time>2018-01-21T12:45:41Z</time>
      </trkpt>
      <trkpt lat="46.024026833474636" lon="9.407102297991514">
        <ele>1541.1300000000001</ele>
        <time>2018-01-21T12:45:51Z</time>
      </trkpt>
      <trkpt lat="46.024101013317704" lon="9.4070805888623">
        <ele>1541.1300000000001</ele>
        <time>2018-01-21T12:46:00Z</time>
      </trkpt>
      <trkpt lat="46.024214085191488" lon="9.407020071521401">
        <ele>1541.6099999999999</ele>
        <time>2018-01-21T12:46:10Z</time>
      </trkpt>
      <trkpt lat="46.024296646937728" lon="9.40695502795279">
        <ele>1541.1300000000001</ele>
        <time>2018-01-21T12:46:19Z</time>
      </trkpt>
      <trkpt lat="46.024392955005169" lon="9.406878752633929">
        <ele>1541.1300000000001</ele>
        <time>2018-01-21T12:46:31Z</time>
      </trkpt>
      <trkpt lat="46.024487167596817" lon="9.406862910836935">
        <ele>1539.6900000000001</ele>
        <time>2018-01-21T12:46:42Z</time>
      </trkpt>
      <trkpt lat="46.024519354104996" lon="9.406863665208221">
        <ele>1540.1700000000001</ele>
        <time>2018-01-21T12:46:45Z</time>
      </trkpt>
      <trkpt lat="46.0246348567307" lon="9.406886044889689">
        <ele>1540.1700000000001</ele>
        <time>2018-01-21T12:46:56Z</time>
      </trkpt>
      <trkpt lat="46.024671066552401" lon="9.406917728483677">
        <ele>1538.25</ele>
        <time>2018-01-21T12:47:00Z</time>
      </trkpt>
      <trkpt lat="46.02475362829864" lon="9.407032057642937">
        <ele>1537.77</ele>
        <time>2018-01-21T12:47:10Z</time>
      </trkpt>
      <trkpt lat="46.024810876697302" lon="9.407081510871649">
        <ele>1537.77</ele>
        <time>2018-01-21T12:47:16Z</time>
      </trkpt>
      <trkpt lat="46.02483132854104" lon="9.407085869461298">
        <ele>1537.29</ele>
        <time>2018-01-21T12:47:18Z</time>
      </trkpt>
      <trkpt lat="46.024951105937362" lon="9.407152254134417">
        <ele>1535.8399999999999</ele>
        <time>2018-01-21T12:47:29Z</time>
      </trkpt>
      <trkpt lat="46.025035008788109" lon="9.407161977142096">
        <ele>1537.29</ele>
        <time>2018-01-21T12:47:38Z</time>
      </trkpt>
      <trkpt lat="46.025169873610139" lon="9.407140435650945">
        <ele>1536.3199999999999</ele>
        <time>2018-01-21T12:47:49Z</time>
      </trkpt>
      <trkpt lat="46.025236509740353" lon="9.407125264406204">
        <ele>1534.8800000000001</ele>
        <time>2018-01-21T12:47:55Z</time>
      </trkpt>
      <trkpt lat="46.025311024859548" lon="9.407142782583833">
        <ele>1536.8</ele>
        <time>2018-01-21T12:48:02Z</time>
      </trkpt>
      <trkpt lat="46.025417139753699" lon="9.40708109177649">
        <ele>1533.9200000000001</ele>
        <time>2018-01-21T12:48:12Z</time>
      </trkpt>
      <trkpt lat="46.025517638772726" lon="9.407022418454289">
        <ele>1534.4000000000001</ele>
        <time>2018-01-21T12:48:21Z</time>
      </trkpt>
      <trkpt lat="46.025533229112625" lon="9.407009342685342">
        <ele>1534.4000000000001</ele>
        <time>2018-01-21T12:48:23Z</time>
      </trkpt>
      <trkpt lat="46.025589890778065" lon="9.406875818967819">
        <ele>1533.9200000000001</ele>
        <time>2018-01-21T12:48:32Z</time>
      </trkpt>
      <trkpt lat="46.025662645697594" lon="9.406725447624922">
        <ele>1535.8399999999999</ele>
        <time>2018-01-21T12:48:43Z</time>
      </trkpt>
      <trkpt lat="46.025699358433485" lon="9.406636850908399">
        <ele>1535.8399999999999</ele>
        <time>2018-01-21T12:48:49Z</time>
      </trkpt>
      <trkpt lat="46.025710590183735" lon="9.406611705198884">
        <ele>1535.8399999999999</ele>
        <time>2018-01-21T12:48:51Z</time>
      </trkpt>
      <trkpt lat="46.025729198008776" lon="9.406571891158819">
        <ele>1536.3199999999999</ele>
        <time>2018-01-21T12:48:54Z</time>
      </trkpt>
      <trkpt lat="46.025806898251176" lon="9.40646393224597">
        <ele>1536.8</ele>
        <time>2018-01-21T12:49:04Z</time>
      </trkpt>
      <trkpt lat="46.025914940983057" lon="9.4064986333251">
        <ele>1535.8399999999999</ele>
        <time>2018-01-21T12:49:14Z</time>
      </trkpt>
      <trkpt lat="46.025949977338314" lon="9.406499052420259">
        <ele>1534.4000000000001</ele>
        <time>2018-01-21T12:49:17Z</time>
      </trkpt>
      <trkpt lat="46.026069419458508" lon="9.406534172594547">
        <ele>1531.04</ele>
        <time>2018-01-21T12:49:29Z</time>
      </trkpt>
      <trkpt lat="46.02614426985383" lon="9.406554959714413">
        <ele>1529.1099999999999</ele>
        <time>2018-01-21T12:49:38Z</time>
      </trkpt>
      <trkpt lat="46.026244517415762" lon="9.406571220606566">
        <ele>1526.23</ele>
        <time>2018-01-21T12:49:47Z</time>
      </trkpt>
      <trkpt lat="46.026275614276528" lon="9.406591923907399">
        <ele>1525.75</ele>
        <time>2018-01-21T12:49:50Z</time>
      </trkpt>
      <trkpt lat="46.026380807161331" lon="9.4066212605685">
        <ele>1525.27</ele>
        <time>2018-01-21T12:50:00Z</time>
      </trkpt>
      <trkpt lat="46.02642523124814" lon="9.406616985797882">
        <ele>1525.27</ele>
        <time>2018-01-21T12:50:05Z</time>
      </trkpt>
      <trkpt lat="46.026457166299224" lon="9.406613381579518">
        <ele>1523.8299999999999</ele>
        <time>2018-01-21T12:50:08Z</time>
      </trkpt>
      <trkpt lat="46.026480300351977" lon="9.406606173142791">
        <ele>1523.8299999999999</ele>
        <time>2018-01-21T12:50:10Z</time>
      </trkpt>
      <trkpt lat="46.026587840169668" lon="9.40663592889905">
        <ele>1522.8699999999999</ele>
        <time>2018-01-21T12:50:20Z</time>
      </trkpt>
      <trkpt lat="46.02669739164412" lon="9.40665646456182">
        <ele>1522.8699999999999</ele>
        <time>2018-01-21T12:50:29Z</time>
      </trkpt>
      <trkpt lat="46.026792023330927" lon="9.4066799338907">
        <ele>1520.46</ele>
        <time>2018-01-21T12:50:38Z</time>
      </trkpt>
      <trkpt lat="46.026831502094865" lon="9.406702565029264">
        <ele>1519.5</ele>
        <time>2018-01-21T12:50:42Z</time>
      </trkpt>
      <trkpt lat="46.026948178187013" lon="9.406717317178845">
        <ele>1515.6600000000001</ele>
        <time>2018-01-21T12:50:51Z</time>
      </trkpt>
      <trkpt lat="46.026970474049449" lon="9.406707594171166">
        <ele>1515.1800000000001</ele>
        <time>2018-01-21T12:50:53Z</time>
      </trkpt>
      <trkpt lat="46.027043228968978" lon="9.406613213941455">
        <ele>1513.25</ele>
        <time>2018-01-21T12:51:01Z</time>
      </trkpt>
      <trkpt lat="46.027057897299528" lon="9.40658412873745">
        <ele>1512.77</ele>
        <time>2018-01-21T12:51:03Z</time>
      </trkpt>
      <trkpt lat="46.027114894241095" lon="9.406485557556152">
        <ele>1511.3299999999999</ele>
        <time>2018-01-21T12:51:11Z</time>
      </trkpt>
      <trkpt lat="46.027125036343932" lon="9.406459992751479">
        <ele>1510.8499999999999</ele>
        <time>2018-01-21T12:51:13Z</time>
      </trkpt>
      <trkpt lat="46.027160910889506" lon="9.406307693570852">
        <ele>1509.8900000000001</ele>
        <time>2018-01-21T12:51:23Z</time>
      </trkpt>
      <trkpt lat="46.0271733161062" lon="9.406223874539137">
        <ele>1509.8900000000001</ele>
        <time>2018-01-21T12:51:28Z</time>
      </trkpt>
      <trkpt lat="46.027230732142925" lon="9.406113149598241">
        <ele>1508.45</ele>
        <time>2018-01-21T12:51:38Z</time>
      </trkpt>
      <trkpt lat="46.02724707685411" lon="9.406088758260012">
        <ele>1507.97</ele>
        <time>2018-01-21T12:51:40Z</time>
      </trkpt>
      <trkpt lat="46.027266187593341" lon="9.406070318073034">
        <ele>1507.97</ele>
        <time>2018-01-21T12:51:42Z</time>
      </trkpt>
      <trkpt lat="46.027315640822053" lon="9.406012315303087">
        <ele>1507.48</ele>
        <time>2018-01-21T12:51:51Z</time>
      </trkpt>
      <trkpt lat="46.027332404628396" lon="9.405981888994575">
        <ele>1507</ele>
        <time>2018-01-21T12:51:56Z</time>
      </trkpt>
      <trkpt lat="46.027393424883485" lon="9.405920449644327">
        <ele>1508.45</ele>
        <time>2018-01-21T12:52:06Z</time>
      </trkpt>
      <trkpt lat="46.027443883940578" lon="9.405841073021293">
        <ele>1508.9300000000001</ele>
        <time>2018-01-21T12:52:15Z</time>
      </trkpt>
      <trkpt lat="46.027464251965284" lon="9.405793966725469">
        <ele>1505.0799999999999</ele>
        <time>2018-01-21T12:52:22Z</time>
      </trkpt>
      <trkpt lat="46.027521081268787" lon="9.40571928396821">
        <ele>1506.52</ele>
        <time>2018-01-21T12:52:30Z</time>
      </trkpt>
      <trkpt lat="46.027554525062442" lon="9.405640745535493">
        <ele>1508.45</ele>
        <time>2018-01-21T12:52:37Z</time>
      </trkpt>
      <trkpt lat="46.027580508962274" lon="9.405549550428987">
        <ele>1507.97</ele>
        <time>2018-01-21T12:52:45Z</time>
      </trkpt>
      <trkpt lat="46.027582855895162" lon="9.405541671440005">
        <ele>1507.48</ele>
        <time>2018-01-21T12:52:46Z</time>
      </trkpt>
      <trkpt lat="46.027604397386312" lon="9.405481824651361">
        <ele>1507.48</ele>
        <time>2018-01-21T12:52:51Z</time>
      </trkpt>
      <trkpt lat="46.027622083202004" lon="9.405432790517807">
        <ele>1507</ele>
        <time>2018-01-21T12:52:55Z</time>
      </trkpt>
      <trkpt lat="46.027638511732221" lon="9.405333884060383">
        <ele>1507</ele>
        <time>2018-01-21T12:53:01Z</time>
      </trkpt>
      <trkpt lat="46.027646055445075" lon="9.405302871018648">
        <ele>1506.04</ele>
        <time>2018-01-21T12:53:03Z</time>
      </trkpt>
      <trkpt lat="46.027652006596327" lon="9.405263978987932">
        <ele>1506.04</ele>
        <time>2018-01-21T12:53:07Z</time>
      </trkpt>
      <trkpt lat="46.02767463773489" lon="9.405200192704797">
        <ele>1504.1199999999999</ele>
        <time>2018-01-21T12:53:12Z</time>
      </trkpt>
      <trkpt lat="46.027711182832718" lon="9.405047642067075">
        <ele>1501.24</ele>
        <time>2018-01-21T12:53:22Z</time>
      </trkpt>
      <trkpt lat="46.027722079306841" lon="9.405018137767911">
        <ele>1501.24</ele>
        <time>2018-01-21T12:53:24Z</time>
      </trkpt>
      <trkpt lat="46.027725264430046" lon="9.404986537992954">
        <ele>1500.76</ele>
        <time>2018-01-21T12:53:26Z</time>
      </trkpt>
      <trkpt lat="46.027727276086807" lon="9.404914118349552">
        <ele>1500.27</ele>
        <time>2018-01-21T12:53:30Z</time>
      </trkpt>
      <trkpt lat="46.027732137590647" lon="9.404877489432693">
        <ele>1500.27</ele>
        <time>2018-01-21T12:53:32Z</time>
      </trkpt>
      <trkpt lat="46.02771813981235" lon="9.404737930744886">
        <ele>1498.8299999999999</ele>
        <time>2018-01-21T12:53:44Z</time>
      </trkpt>
      <trkpt lat="46.027731550857425" lon="9.4047044031322">
        <ele>1499.3099999999999</ele>
        <time>2018-01-21T12:53:52Z</time>
      </trkpt>
      <trkpt lat="46.027740351855755" lon="9.404714712873101">
        <ele>1499.79</ele>
        <time>2018-01-21T12:54:01Z</time>
      </trkpt>
      <trkpt lat="46.027741609141231" lon="9.404722927138209">
        <ele>1498.8299999999999</ele>
        <time>2018-01-21T12:54:17Z</time>
      </trkpt>
      <trkpt lat="46.027738340198994" lon="9.404739271849394">
        <ele>1497.8699999999999</ele>
        <time>2018-01-21T12:54:30Z</time>
      </trkpt>
      <trkpt lat="46.027754936367273" lon="9.404744720086455">
        <ele>1497.8699999999999</ele>
        <time>2018-01-21T12:54:42Z</time>
      </trkpt>
      <trkpt lat="46.027746386826038" lon="9.40473910421133">
        <ele>1495.47</ele>
        <time>2018-01-21T12:54:47Z</time>
      </trkpt>
      <trkpt lat="46.027762144804001" lon="9.404745642095804">
        <ele>1496.9100000000001</ele>
        <time>2018-01-21T12:54:54Z</time>
      </trkpt>
      <trkpt lat="46.02775284089148" lon="9.404739942401648">
        <ele>1497.8699999999999</ele>
        <time>2018-01-21T12:54:59Z</time>
      </trkpt>
      <trkpt lat="46.027750326320529" lon="9.404719742015004">
        <ele>1496.9100000000001</ele>
        <time>2018-01-21T12:55:10Z</time>
      </trkpt>
      <trkpt lat="46.027748314663768" lon="9.404793754220009">
        <ele>1497.3900000000001</ele>
        <time>2018-01-21T12:55:20Z</time>
      </trkpt>
      <trkpt lat="46.027747392654419" lon="9.404767099767923">
        <ele>1497.3900000000001</ele>
        <time>2018-01-21T12:55:35Z</time>
      </trkpt>
      <trkpt lat="46.027744794264436" lon="9.40474446862936">
        <ele>1498.8299999999999</ele>
        <time>2018-01-21T12:55:48Z</time>
      </trkpt>
      <trkpt lat="46.027734903618693" lon="9.404737176373601">
        <ele>1499.3099999999999</ele>
        <time>2018-01-21T12:56:00Z</time>
      </trkpt>
      <trkpt lat="46.027743956074119" lon="9.404741702601314">
        <ele>1499.79</ele>
        <time>2018-01-21T12:56:12Z</time>
      </trkpt>
      <trkpt lat="46.027739178389311" lon="9.404752850532532">
        <ele>1499.79</ele>
        <time>2018-01-21T12:56:26Z</time>
      </trkpt>
      <trkpt lat="46.027732472866774" lon="9.404747821390629">
        <ele>1500.76</ele>
        <time>2018-01-21T12:56:40Z</time>
      </trkpt>
      <trkpt lat="46.027720905840397" lon="9.40473466180265">
        <ele>1501.72</ele>
        <time>2018-01-21T12:56:55Z</time>
      </trkpt>
      <trkpt lat="46.027720151469111" lon="9.404762908816338">
        <ele>1500.76</ele>
        <time>2018-01-21T12:57:11Z</time>
      </trkpt>
      <trkpt lat="46.027712691575289" lon="9.404763747006655">
        <ele>1500.76</ele>
        <time>2018-01-21T12:57:31Z</time>
      </trkpt>
      <trkpt lat="46.027713110670447" lon="9.404766848310828">
        <ele>1500.76</ele>
        <time>2018-01-21T12:57:32Z</time>
      </trkpt>
      <trkpt lat="46.027717804536223" lon="9.404754946008325">
        <ele>1498.3499999999999</ele>
        <time>2018-01-21T12:57:48Z</time>
      </trkpt>
      <trkpt lat="46.027733478695154" lon="9.404791574925184">
        <ele>1497.8699999999999</ele>
        <time>2018-01-21T12:57:58Z</time>
      </trkpt>
      <trkpt lat="46.027735909447074" lon="9.404776068404317">
        <ele>1497.8699999999999</ele>
        <time>2018-01-21T12:58:14Z</time>
      </trkpt>
      <trkpt lat="46.027740016579628" lon="9.404774978756905">
        <ele>1496.9100000000001</ele>
        <time>2018-01-21T12:58:30Z</time>
      </trkpt>
      <trkpt lat="46.027740854769945" lon="9.404777577146888">
        <ele>1499.3099999999999</ele>
        <time>2018-01-21T12:58:44Z</time>
      </trkpt>
      <trkpt lat="46.027733059599996" lon="9.404790736734867">
        <ele>1501.24</ele>
        <time>2018-01-21T12:58:58Z</time>
      </trkpt>
      <trkpt lat="46.027739848941565" lon="9.404780426993966">
        <ele>1502.6800000000001</ele>
        <time>2018-01-21T12:59:16Z</time>
      </trkpt>
      <trkpt lat="46.027732556685805" lon="9.404767099767923">
        <ele>1503.1600000000001</ele>
        <time>2018-01-21T12:59:28Z</time>
      </trkpt>
      <trkpt lat="46.027736747637391" lon="9.404761400073767">
        <ele>1502.6800000000001</ele>
        <time>2018-01-21T12:59:39Z</time>
      </trkpt>
      <trkpt lat="46.027725264430046" lon="9.404756538569927">
        <ele>1501.72</ele>
        <time>2018-01-21T12:59:51Z</time>
      </trkpt>
      <trkpt lat="46.0277328081429" lon="9.404792916029692">
        <ele>1500.76</ele>
        <time>2018-01-21T13:00:04Z</time>
      </trkpt>
      <trkpt lat="46.02772836573422" lon="9.404759891331196">
        <ele>1501.24</ele>
        <time>2018-01-21T13:00:15Z</time>
      </trkpt>
      <trkpt lat="46.027736579999328" lon="9.404756790027022">
        <ele>1502.6800000000001</ele>
        <time>2018-01-21T13:00:19Z</time>
      </trkpt>
      <trkpt lat="46.027735657989979" lon="9.404764082282782">
        <ele>1499.79</ele>
        <time>2018-01-21T13:00:24Z</time>
      </trkpt>
      <trkpt lat="46.027742866426706" lon="9.404783947393298">
        <ele>1500.76</ele>
        <time>2018-01-21T13:00:36Z</time>
      </trkpt>
      <trkpt lat="46.027747476473451" lon="9.404791826382279">
        <ele>1498.3499999999999</ele>
        <time>2018-01-21T13:00:51Z</time>
      </trkpt>
      <trkpt lat="46.027750242501497" lon="9.404751928523183">
        <ele>1499.79</ele>
        <time>2018-01-21T13:01:04Z</time>
      </trkpt>
      <trkpt lat="46.027747057378292" lon="9.404727704823017">
        <ele>1497.3900000000001</ele>
        <time>2018-01-21T13:01:06Z</time>
      </trkpt>
      <trkpt lat="46.027781507000327" lon="9.404561072587967">
        <ele>1499.3099999999999</ele>
        <time>2018-01-21T13:01:17Z</time>
      </trkpt>
      <trkpt lat="46.027798689901829" lon="9.404510026797652">
        <ele>1497.3900000000001</ele>
        <time>2018-01-21T13:01:21Z</time>
      </trkpt>
      <trkpt lat="46.027813022956252" lon="9.404480522498488">
        <ele>1495.95</ele>
        <time>2018-01-21T13:01:24Z</time>
      </trkpt>
      <trkpt lat="46.027824757620692" lon="9.404453113675118">
        <ele>1496.9100000000001</ele>
        <time>2018-01-21T13:01:27Z</time>
      </trkpt>
      <trkpt lat="46.027864320203662" lon="9.404300395399332">
        <ele>1496.9100000000001</ele>
        <time>2018-01-21T13:01:38Z</time>
      </trkpt>
      <trkpt lat="46.027909917756915" lon="9.404176259413362">
        <ele>1495.95</ele>
        <time>2018-01-21T13:01:46Z</time>
      </trkpt>
      <trkpt lat="46.027948306873441" lon="9.404046172276139">
        <ele>1494.03</ele>
        <time>2018-01-21T13:01:54Z</time>
      </trkpt>
      <trkpt lat="46.027965825051069" lon="9.404000658541918">
        <ele>1492.0999999999999</ele>
        <time>2018-01-21T13:01:57Z</time>
      </trkpt>
      <trkpt lat="46.027977392077446" lon="9.403978362679482">
        <ele>1491.6199999999999</ele>
        <time>2018-01-21T13:01:59Z</time>
      </trkpt>
      <trkpt lat="46.028011925518513" lon="9.403930502012372">
        <ele>1492.0999999999999</ele>
        <time>2018-01-21T13:02:03Z</time>
      </trkpt>
      <trkpt lat="46.028042770922184" lon="9.403892699629068">
        <ele>1490.6600000000001</ele>
        <time>2018-01-21T13:02:06Z</time>
      </trkpt>
      <trkpt lat="46.028088871389627" lon="9.403839642181993">
        <ele>1489.7</ele>
        <time>2018-01-21T13:02:11Z</time>
      </trkpt>
      <trkpt lat="46.028123488649726" lon="9.403817849233747">
        <ele>1488.74</ele>
        <time>2018-01-21T13:02:14Z</time>
      </trkpt>
      <trkpt lat="46.028173947706819" lon="9.403785914182663">
        <ele>1488.26</ele>
        <time>2018-01-21T13:02:18Z</time>
      </trkpt>
      <trkpt lat="46.028195656836033" lon="9.403762696310878">
        <ele>1490.1800000000001</ele>
        <time>2018-01-21T13:02:20Z</time>
      </trkpt>
      <trkpt lat="46.028241589665413" lon="9.403739394620061">
        <ele>1487.78</ele>
        <time>2018-01-21T13:02:25Z</time>
      </trkpt>
      <trkpt lat="46.028266819193959" lon="9.403730761259794">
        <ele>1488.26</ele>
        <time>2018-01-21T13:02:27Z</time>
      </trkpt>
      <trkpt lat="46.028315182775259" lon="9.403701173141599">
        <ele>1489.22</ele>
        <time>2018-01-21T13:02:31Z</time>
      </trkpt>
      <trkpt lat="46.028359523043036" lon="9.403678793460131">
        <ele>1488.26</ele>
        <time>2018-01-21T13:02:35Z</time>
      </trkpt>
      <trkpt lat="46.028431104496121" lon="9.403634201735258">
        <ele>1488.26</ele>
        <time>2018-01-21T13:02:41Z</time>
      </trkpt>
      <trkpt lat="46.02846915833652" lon="9.403608636930585">
        <ele>1489.7</ele>
        <time>2018-01-21T13:02:44Z</time>
      </trkpt>
      <trkpt lat="46.028495645150542" lon="9.403587095439434">
        <ele>1489.22</ele>
        <time>2018-01-21T13:02:47Z</time>
      </trkpt>
      <trkpt lat="46.028634365648031" lon="9.403542838990688">
        <ele>1487.78</ele>
        <time>2018-01-21T13:02:58Z</time>
      </trkpt>
      <trkpt lat="46.028662612661719" lon="9.403530014678836">
        <ele>1484.8900000000001</ele>
        <time>2018-01-21T13:03:01Z</time>
      </trkpt>
      <trkpt lat="46.028697565197945" lon="9.403501935303211">
        <ele>1488.26</ele>
        <time>2018-01-21T13:03:04Z</time>
      </trkpt>
      <trkpt lat="46.028744839131832" lon="9.403478130698204">
        <ele>1490.6600000000001</ele>
        <time>2018-01-21T13:03:08Z</time>
      </trkpt>
      <trkpt lat="46.028787419199944" lon="9.403468491509557">
        <ele>1489.22</ele>
        <time>2018-01-21T13:03:12Z</time>
      </trkpt>
      <trkpt lat="46.028845421969891" lon="9.403455164283514">
        <ele>1487.78</ele>
        <time>2018-01-21T13:03:17Z</time>
      </trkpt>
      <trkpt lat="46.028918344527483" lon="9.403428845107555">
        <ele>1485.8499999999999</ele>
        <time>2018-01-21T13:03:24Z</time>
      </trkpt>
      <trkpt lat="46.029005013406277" lon="9.403393473476172">
        <ele>1486.8199999999999</ele>
        <time>2018-01-21T13:03:32Z</time>
      </trkpt>
      <trkpt lat="46.029109871014953" lon="9.403344942256808">
        <ele>1486.8199999999999</ele>
        <time>2018-01-21T13:03:41Z</time>
      </trkpt>
      <trkpt lat="46.029148427769542" lon="9.403320048004389">
        <ele>1486.8199999999999</ele>
        <time>2018-01-21T13:03:45Z</time>
      </trkpt>
      <trkpt lat="46.029176926240325" lon="9.403298674151301">
        <ele>1486.3399999999999</ele>
        <time>2018-01-21T13:03:48Z</time>
      </trkpt>
      <trkpt lat="46.029216405004263" lon="9.40329322591424">
        <ele>1484.4100000000001</ele>
        <time>2018-01-21T13:04:01Z</time>
      </trkpt>
      <trkpt lat="46.029225289821625" lon="9.403305128216744">
        <ele>1484.8900000000001</ele>
        <time>2018-01-21T13:04:18Z</time>
      </trkpt>
      <trkpt lat="46.029243562370539" lon="9.403305966407061">
        <ele>1483.9300000000001</ele>
        <time>2018-01-21T13:04:28Z</time>
      </trkpt>
      <trkpt lat="46.029272144660354" lon="9.403320048004389">
        <ele>1483.45</ele>
        <time>2018-01-21T13:04:32Z</time>
      </trkpt>
      <trkpt lat="46.029334086924791" lon="9.403326585888863">
        <ele>1479.6099999999999</ele>
        <time>2018-01-21T13:04:40Z</time>
      </trkpt>
      <trkpt lat="46.029344815760851" lon="9.403329519554973">
        <ele>1478.6500000000001</ele>
        <time>2018-01-21T13:04:42Z</time>
      </trkpt>
      <trkpt lat="46.029353616759181" lon="9.403343265876174">
        <ele>1481.05</ele>
        <time>2018-01-21T13:04:47Z</time>
      </trkpt>
      <trkpt lat="46.029365435242653" lon="9.403336644172669">
        <ele>1482.01</ele>
        <time>2018-01-21T13:04:49Z</time>
      </trkpt>
      <trkpt lat="46.029407428577542" lon="9.403300937265158">
        <ele>1482.49</ele>
        <time>2018-01-21T13:04:55Z</time>
      </trkpt>
      <trkpt lat="46.029482949525118" lon="9.403274785727263">
        <ele>1482.97</ele>
        <time>2018-01-21T13:05:04Z</time>
      </trkpt>
      <trkpt lat="46.029491918161511" lon="9.403276965022087">
        <ele>1482.49</ele>
        <time>2018-01-21T13:05:05Z</time>
      </trkpt>
      <trkpt lat="46.029536677524447" lon="9.403299260884523">
        <ele>1481.05</ele>
        <time>2018-01-21T13:05:10Z</time>
      </trkpt>
      <trkpt lat="46.029609348624945" lon="9.403337650001049">
        <ele>1480.0899999999999</ele>
        <time>2018-01-21T13:05:19Z</time>
      </trkpt>
      <trkpt lat="46.029656287282705" lon="9.403372937813401">
        <ele>1478.1600000000001</ele>
        <time>2018-01-21T13:05:24Z</time>
      </trkpt>
      <trkpt lat="46.029670620337129" lon="9.403396071866155">
        <ele>1477.6800000000001</ele>
        <time>2018-01-21T13:05:26Z</time>
      </trkpt>
      <trkpt lat="46.029704818502069" lon="9.403439154848456">
        <ele>1477.2</ele>
        <time>2018-01-21T13:05:30Z</time>
      </trkpt>
      <trkpt lat="46.029721414670348" lon="9.403450721874833">
        <ele>1476.72</ele>
        <time>2018-01-21T13:05:32Z</time>
      </trkpt>
      <trkpt lat="46.02979576215148" lon="9.403591537848115">
        <ele>1475.76</ele>
        <time>2018-01-21T13:05:43Z</time>
      </trkpt>
      <trkpt lat="46.029809508472681" lon="9.403618695214391">
        <ele>1475.28</ele>
        <time>2018-01-21T13:05:45Z</time>
      </trkpt>
      <trkpt lat="46.029825769364834" lon="9.403689019382">
        <ele>1476.72</ele>
        <time>2018-01-21T13:05:50Z</time>
      </trkpt>
      <trkpt lat="46.029900871217251" lon="9.403806868940592">
        <ele>1475.76</ele>
        <time>2018-01-21T13:06:00Z</time>
      </trkpt>
      <trkpt lat="46.029938170686364" lon="9.403837630525231">
        <ele>1474.8</ele>
        <time>2018-01-21T13:06:04Z</time>
      </trkpt>
      <trkpt lat="46.029984774067998" lon="9.403857327997685">
        <ele>1473.3599999999999</ele>
        <time>2018-01-21T13:06:08Z</time>
      </trkpt>
      <trkpt lat="46.03001905605197" lon="9.403877025470138">
        <ele>1471.9200000000001</ele>
        <time>2018-01-21T13:06:12Z</time>
      </trkpt>
      <trkpt lat="46.030062222853303" lon="9.403892196714878">
        <ele>1469.51</ele>
        <time>2018-01-21T13:06:16Z</time>
      </trkpt>
      <trkpt lat="46.030145371332765" lon="9.403897225856781">
        <ele>1469.51</ele>
        <time>2018-01-21T13:06:24Z</time>
      </trkpt>
      <trkpt lat="46.0302057210356" lon="9.403894795104861">
        <ele>1470.47</ele>
        <time>2018-01-21T13:06:30Z</time>
      </trkpt>
      <trkpt lat="46.030238913372159" lon="9.40389035269618">
        <ele>1470.95</ele>
        <time>2018-01-21T13:06:33Z</time>
      </trkpt>
      <trkpt lat="46.030266070738435" lon="9.403887838125229">
        <ele>1471.9200000000001</ele>
        <time>2018-01-21T13:06:36Z</time>
      </trkpt>
      <trkpt lat="46.030319128185511" lon="9.40389471128583">
        <ele>1472.8800000000001</ele>
        <time>2018-01-21T13:06:41Z</time>
      </trkpt>
      <trkpt lat="46.030353242531419" lon="9.404036030173302">
        <ele>1473.3599999999999</ele>
        <time>2018-01-21T13:06:49Z</time>
      </trkpt>
      <trkpt lat="46.030356008559465" lon="9.404050949960947">
        <ele>1472.8800000000001</ele>
        <time>2018-01-21T13:06:50Z</time>
      </trkpt>
      <trkpt lat="46.030359528958797" lon="9.404079951345921">
        <ele>1472.8800000000001</ele>
        <time>2018-01-21T13:06:53Z</time>
      </trkpt>
      <trkpt lat="46.030446868389845" lon="9.404130158945918">
        <ele>1470.95</ele>
        <time>2018-01-21T13:07:02Z</time>
      </trkpt>
      <trkpt lat="46.030514677986503" lon="9.404218923300505">
        <ele>1470.95</ele>
        <time>2018-01-21T13:07:11Z</time>
      </trkpt>
      <trkpt lat="46.03052088059485" lon="9.404224371537566">
        <ele>1470.47</ele>
        <time>2018-01-21T13:07:12Z</time>
      </trkpt>
      <trkpt lat="46.030562706291676" lon="9.40428564324975">
        <ele>1469.99</ele>
        <time>2018-01-21T13:07:18Z</time>
      </trkpt>
      <trkpt lat="46.03060101158917" lon="9.404338281601667">
        <ele>1469.51</ele>
        <time>2018-01-21T13:07:23Z</time>
      </trkpt>
      <trkpt lat="46.030669072642922" lon="9.404422268271446">
        <ele>1470.47</ele>
        <time>2018-01-21T13:07:33Z</time>
      </trkpt>
      <trkpt lat="46.030720872804523" lon="9.404494101181626">
        <ele>1469.51</ele>
        <time>2018-01-21T13:07:40Z</time>
      </trkpt>
      <trkpt lat="46.030780468136072" lon="9.404589319601655">
        <ele>1472.4000000000001</ele>
        <time>2018-01-21T13:07:50Z</time>
      </trkpt>
      <trkpt lat="46.030837381258607" lon="9.404685208573937">
        <ele>1474.3199999999999</ele>
        <time>2018-01-21T13:08:00Z</time>
      </trkpt>
      <trkpt lat="46.030881637707353" lon="9.404781935736537">
        <ele>1473.3599999999999</ele>
        <time>2018-01-21T13:08:09Z</time>
      </trkpt>
      <trkpt lat="46.030952045693994" lon="9.404813703149557">
        <ele>1472.8800000000001</ele>
        <time>2018-01-21T13:08:18Z</time>
      </trkpt>
      <trkpt lat="46.030966127291322" lon="9.404821582138538">
        <ele>1472.8800000000001</ele>
        <time>2018-01-21T13:08:20Z</time>
      </trkpt>
      <trkpt lat="46.031047347933054" lon="9.404878579080105">
        <ele>1476.24</ele>
        <time>2018-01-21T13:08:30Z</time>
      </trkpt>
      <trkpt lat="46.031090430915356" lon="9.404887715354562">
        <ele>1477.6800000000001</ele>
        <time>2018-01-21T13:08:34Z</time>
      </trkpt>
      <trkpt lat="46.031175255775452" lon="9.404950998723507">
        <ele>1476.24</ele>
        <time>2018-01-21T13:08:44Z</time>
      </trkpt>
      <trkpt lat="46.031194366514683" lon="9.404955441132188">
        <ele>1476.72</ele>
        <time>2018-01-21T13:08:46Z</time>
      </trkpt>
      <trkpt lat="46.03122697211802" lon="9.404975892975926">
        <ele>1477.2</ele>
        <time>2018-01-21T13:08:50Z</time>
      </trkpt>
      <trkpt lat="46.031302493065596" lon="9.405020903795958">
        <ele>1477.2</ele>
        <time>2018-01-21T13:08:58Z</time>
      </trkpt>
      <trkpt lat="46.031357310712337" lon="9.405063986778259">
        <ele>1476.24</ele>
        <time>2018-01-21T13:09:04Z</time>
      </trkpt>
      <trkpt lat="46.03141849860549" lon="9.405101202428341">
        <ele>1474.8</ele>
        <time>2018-01-21T13:09:10Z</time>
      </trkpt>
      <trkpt lat="46.031444147229195" lon="9.405130371451378">
        <ele>1476.24</ele>
        <time>2018-01-21T13:09:13Z</time>
      </trkpt>
      <trkpt lat="46.031463593244553" lon="9.405142860487104">
        <ele>1476.72</ele>
        <time>2018-01-21T13:09:15Z</time>
      </trkpt>
      <trkpt lat="46.0315284691751" lon="9.405198097229004">
        <ele>1480.0899999999999</ele>
        <time>2018-01-21T13:09:21Z</time>
      </trkpt>
      <trkpt lat="46.031560320407152" lon="9.40522232092917">
        <ele>1480.5699999999999</ele>
        <time>2018-01-21T13:09:24Z</time>
      </trkpt>
      <trkpt lat="46.031575994566083" lon="9.40523355267942">
        <ele>1480.5699999999999</ele>
        <time>2018-01-21T13:09:26Z</time>
      </trkpt>
      <trkpt lat="46.031602146103978" lon="9.405254926532507">
        <ele>1481.05</ele>
        <time>2018-01-21T13:09:29Z</time>
      </trkpt>
      <trkpt lat="46.031631650403142" lon="9.405273869633675">
        <ele>1480.5699999999999</ele>
        <time>2018-01-21T13:09:32Z</time>
      </trkpt>
      <trkpt lat="46.031707925722003" lon="9.40531661733985">
        <ele>1480.0899999999999</ele>
        <time>2018-01-21T13:09:40Z</time>
      </trkpt>
      <trkpt lat="46.0317287966609" lon="9.40532885491848">
        <ele>1480.0899999999999</ele>
        <time>2018-01-21T13:09:42Z</time>
      </trkpt>
      <trkpt lat="46.031769784167409" lon="9.405350899323821">
        <ele>1479.6099999999999</ele>
        <time>2018-01-21T13:09:46Z</time>
      </trkpt>
      <trkpt lat="46.031798617914319" lon="9.405370764434338">
        <ele>1479.1300000000001</ele>
        <time>2018-01-21T13:09:49Z</time>
      </trkpt>
      <trkpt lat="46.031880928203464" lon="9.405407560989261">
        <ele>1478.6500000000001</ele>
        <time>2018-01-21T13:09:56Z</time>
      </trkpt>
      <trkpt lat="46.031938008964062" lon="9.405421558767557">
        <ele>1477.2</ele>
        <time>2018-01-21T13:10:01Z</time>
      </trkpt>
      <trkpt lat="46.031972793862224" lon="9.405435891821981">
        <ele>1477.2</ele>
        <time>2018-01-21T13:10:04Z</time>
      </trkpt>
      <trkpt lat="46.032039262354374" lon="9.40548718906939">
        <ele>1476.72</ele>
        <time>2018-01-21T13:10:11Z</time>
      </trkpt>
      <trkpt lat="46.032059378921986" lon="9.40549842081964">
        <ele>1476.72</ele>
        <time>2018-01-21T13:10:13Z</time>
      </trkpt>
      <trkpt lat="46.032165912911296" lon="9.405538821592927">
        <ele>1475.76</ele>
        <time>2018-01-21T13:10:23Z</time>
      </trkpt>
      <trkpt lat="46.032184939831495" lon="9.405555333942175">
        <ele>1475.76</ele>
        <time>2018-01-21T13:10:25Z</time>
      </trkpt>
      <trkpt lat="46.032274961471558" lon="9.405614258721471">
        <ele>1476.24</ele>
        <time>2018-01-21T13:10:34Z</time>
      </trkpt>
      <trkpt lat="46.03232491761446" lon="9.40565625205636">
        <ele>1476.24</ele>
        <time>2018-01-21T13:10:39Z</time>
      </trkpt>
      <trkpt lat="46.032386189326644" lon="9.405676955357194">
        <ele>1475.76</ele>
        <time>2018-01-21T13:10:45Z</time>
      </trkpt>
      <trkpt lat="46.032494315877557" lon="9.405684834346175">
        <ele>1475.28</ele>
        <time>2018-01-21T13:10:54Z</time>
      </trkpt>
      <trkpt lat="46.032530190423131" lon="9.40568751655519">
        <ele>1474.3199999999999</ele>
        <time>2018-01-21T13:10:58Z</time>
      </trkpt>
      <trkpt lat="46.032553156837821" lon="9.405705705285072">
        <ele>1473.3599999999999</ele>
        <time>2018-01-21T13:11:00Z</time>
      </trkpt>
      <trkpt lat="46.03259707801044" lon="9.405719200149179">
        <ele>1472.8800000000001</ele>
        <time>2018-01-21T13:11:04Z</time>
      </trkpt>
      <trkpt lat="46.032614428550005" lon="9.405718864873052">
        <ele>1472.4000000000001</ele>
        <time>2018-01-21T13:11:06Z</time>
      </trkpt>
      <trkpt lat="46.032631862908602" lon="9.405710147693753">
        <ele>1470.95</ele>
        <time>2018-01-21T13:11:08Z</time>
      </trkpt>
      <trkpt lat="46.032652650028467" lon="9.405714003369212">
        <ele>1469.99</ele>
        <time>2018-01-21T13:11:10Z</time>
      </trkpt>
      <trkpt lat="46.032688189297915" lon="9.405753817409277">
        <ele>1468.55</ele>
        <time>2018-01-21T13:11:21Z</time>
      </trkpt>
      <trkpt lat="46.032716687768698" lon="9.405752308666706">
        <ele>1467.5899999999999</ele>
        <time>2018-01-21T13:11:31Z</time>
      </trkpt>
      <trkpt lat="46.032723309472203" lon="9.405741915106773">
        <ele>1467.5899999999999</ele>
        <time>2018-01-21T13:11:32Z</time>
      </trkpt>
      <trkpt lat="46.032824898138642" lon="9.405702939257026">
        <ele>1469.99</ele>
        <time>2018-01-21T13:11:43Z</time>
      </trkpt>
      <trkpt lat="46.032850965857506" lon="9.405690617859364">
        <ele>1469.51</ele>
        <time>2018-01-21T13:11:46Z</time>
      </trkpt>
      <trkpt lat="46.032924894243479" lon="9.405623646453023">
        <ele>1467.5899999999999</ele>
        <time>2018-01-21T13:11:54Z</time>
      </trkpt>
      <trkpt lat="46.032954733818769" lon="9.405605373904109">
        <ele>1467.5899999999999</ele>
        <time>2018-01-21T13:11:58Z</time>
      </trkpt>
      <trkpt lat="46.033050119876862" lon="9.405523734167218">
        <ele>1465.6700000000001</ele>
        <time>2018-01-21T13:12:09Z</time>
      </trkpt>
      <trkpt lat="46.033147098496556" lon="9.405457014217973">
        <ele>1465.6700000000001</ele>
        <time>2018-01-21T13:12:19Z</time>
      </trkpt>
      <trkpt lat="46.033147936686873" lon="9.405484339222312">
        <ele>1467.5899999999999</ele>
        <time>2018-01-21T13:12:26Z</time>
      </trkpt>
      <trkpt lat="46.033163527026772" lon="9.405505545437336">
        <ele>1468.55</ele>
        <time>2018-01-21T13:12:45Z</time>
      </trkpt>
      <trkpt lat="46.03317660279572" lon="9.405479477718473">
        <ele>1468.0699999999999</ele>
        <time>2018-01-21T13:12:59Z</time>
      </trkpt>
      <trkpt lat="46.033172747120261" lon="9.405501689761877">
        <ele>1468.55</ele>
        <time>2018-01-21T13:13:14Z</time>
      </trkpt>
      <trkpt lat="46.033204179257154" lon="9.405473191291094">
        <ele>1468.55</ele>
        <time>2018-01-21T13:13:26Z</time>
      </trkpt>
      <trkpt lat="46.033275090157986" lon="9.405402112752199">
        <ele>1467.5899999999999</ele>
        <time>2018-01-21T13:13:36Z</time>
      </trkpt>
      <trkpt lat="46.033319598063827" lon="9.405298260971904">
        <ele>1466.6300000000001</ele>
        <time>2018-01-21T13:13:45Z</time>
      </trkpt>
      <trkpt lat="46.033370895311236" lon="9.405219638720155">
        <ele>1463.74</ele>
        <time>2018-01-21T13:13:52Z</time>
      </trkpt>
      <trkpt lat="46.033394616097212" lon="9.40517202951014">
        <ele>1462.78</ele>
        <time>2018-01-21T13:13:56Z</time>
      </trkpt>
      <trkpt lat="46.033425964415073" lon="9.40515979193151">
        <ele>1461.3399999999999</ele>
        <time>2018-01-21T13:13:59Z</time>
      </trkpt>
      <trkpt lat="46.033447422087193" lon="9.405143111944199">
        <ele>1460.8599999999999</ele>
        <time>2018-01-21T13:14:02Z</time>
      </trkpt>
      <trkpt lat="46.033463347703218" lon="9.405122995376587">
        <ele>1460.3800000000001</ele>
        <time>2018-01-21T13:14:04Z</time>
      </trkpt>
      <trkpt lat="46.033492013812065" lon="9.404995338991284">
        <ele>1458.46</ele>
        <time>2018-01-21T13:14:13Z</time>
      </trkpt>
      <trkpt lat="46.033496623858809" lon="9.404960637912154">
        <ele>1457.98</ele>
        <time>2018-01-21T13:14:15Z</time>
      </trkpt>
      <trkpt lat="46.033505676314235" lon="9.404931301251054">
        <ele>1457.5</ele>
        <time>2018-01-21T13:14:17Z</time>
      </trkpt>
      <trkpt lat="46.033513722941279" lon="9.404884865507484">
        <ele>1457.02</ele>
        <time>2018-01-21T13:14:20Z</time>
      </trkpt>
      <trkpt lat="46.033544484525919" lon="9.404788305982947">
        <ele>1456.05</ele>
        <time>2018-01-21T13:14:27Z</time>
      </trkpt>
      <trkpt lat="46.033575162291527" lon="9.40477623604238">
        <ele>1455.0899999999999</ele>
        <time>2018-01-21T13:14:30Z</time>
      </trkpt>
      <trkpt lat="46.033661998808384" lon="9.404731895774603">
        <ele>1453.6500000000001</ele>
        <time>2018-01-21T13:14:38Z</time>
      </trkpt>
      <trkpt lat="46.033750595524907" lon="9.404711946845055">
        <ele>1452.21</ele>
        <time>2018-01-21T13:14:47Z</time>
      </trkpt>
      <trkpt lat="46.033838437870145" lon="9.404682861641049">
        <ele>1448.8399999999999</ele>
        <time>2018-01-21T13:14:57Z</time>
      </trkpt>
      <trkpt lat="46.033897278830409" lon="9.404640616849065">
        <ele>1447.8800000000001</ele>
        <time>2018-01-21T13:15:04Z</time>
      </trkpt>
      <trkpt lat="46.03391345590353" lon="9.404619745910168">
        <ele>1447.4000000000001</ele>
        <time>2018-01-21T13:15:06Z</time>
      </trkpt>
      <trkpt lat="46.033920999616385" lon="9.404598288238049">
        <ele>1447.4000000000001</ele>
        <time>2018-01-21T13:15:07Z</time>
      </trkpt>
      <trkpt lat="46.033941619098186" lon="9.404576579108834">
        <ele>1446.9200000000001</ele>
        <time>2018-01-21T13:15:09Z</time>
      </trkpt>
      <trkpt lat="46.033974308520555" lon="9.40452846698463">
        <ele>1445.48</ele>
        <time>2018-01-21T13:15:13Z</time>
      </trkpt>
      <trkpt lat="46.034019319340587" lon="9.404430817812681">
        <ele>1443.5599999999999</ele>
        <time>2018-01-21T13:15:21Z</time>
      </trkpt>
      <trkpt lat="46.034068102017045" lon="9.404328055679798">
        <ele>1441.1500000000001</ele>
        <time>2018-01-21T13:15:30Z</time>
      </trkpt>
      <trkpt lat="46.034167930483818" lon="9.404238201677799">
        <ele>1437.79</ele>
        <time>2018-01-21T13:15:41Z</time>
      </trkpt>
      <trkpt lat="46.034176731482148" lon="9.404232585802674">
        <ele>1437.79</ele>
        <time>2018-01-21T13:15:42Z</time>
      </trkpt>
      <trkpt lat="46.034246133640409" lon="9.404175756499171">
        <ele>1438.27</ele>
        <time>2018-01-21T13:15:49Z</time>
      </trkpt>
      <trkpt lat="46.034367000684142" lon="9.404188916087151">
        <ele>1438.27</ele>
        <time>2018-01-21T13:15:58Z</time>
      </trkpt>
      <trkpt lat="46.034441431984305" lon="9.404239626601338">
        <ele>1439.71</ele>
        <time>2018-01-21T13:16:06Z</time>
      </trkpt>
      <trkpt lat="46.03451737202704" lon="9.404221521690488">
        <ele>1437.79</ele>
        <time>2018-01-21T13:16:14Z</time>
      </trkpt>
      <trkpt lat="46.034624073654413" lon="9.404207356274128">
        <ele>1437.79</ele>
        <time>2018-01-21T13:16:25Z</time>
      </trkpt>
      <trkpt lat="46.034706467762589" lon="9.404180198907852">
        <ele>1435.8699999999999</ele>
        <time>2018-01-21T13:16:34Z</time>
      </trkpt>
      <trkpt lat="46.034753574058414" lon="9.404192352667451">
        <ele>1435.3900000000001</ele>
        <time>2018-01-21T13:16:43Z</time>
      </trkpt>
      <trkpt lat="46.03483647108078" lon="9.404175840318203">
        <ele>1433.46</ele>
        <time>2018-01-21T13:16:52Z</time>
      </trkpt>
      <trkpt lat="46.034942921251059" lon="9.40419428050518">
        <ele>1430.5799999999999</ele>
        <time>2018-01-21T13:17:02Z</time>
      </trkpt>
      <trkpt lat="46.034989021718502" lon="9.404188245534897">
        <ele>1429.6199999999999</ele>
        <time>2018-01-21T13:17:06Z</time>
      </trkpt>
      <trkpt lat="46.035099662840366" lon="9.40424021333456">
        <ele>1428.1800000000001</ele>
        <time>2018-01-21T13:17:17Z</time>
      </trkpt>
      <trkpt lat="46.035155234858394" lon="9.404253456741571">
        <ele>1427.21</ele>
        <time>2018-01-21T13:17:21Z</time>
      </trkpt>
      <trkpt lat="46.035246094688773" lon="9.404314309358597">
        <ele>1426.25</ele>
        <time>2018-01-21T13:17:31Z</time>
      </trkpt>
      <trkpt lat="46.035270150750875" lon="9.404335599392653">
        <ele>1425.77</ele>
        <time>2018-01-21T13:17:33Z</time>
      </trkpt>
      <trkpt lat="46.03533779270947" lon="9.404423106461763">
        <ele>1424.3299999999999</ele>
        <time>2018-01-21T13:17:40Z</time>
      </trkpt>
      <trkpt lat="46.035397052764893" lon="9.404575740918517">
        <ele>1421.9300000000001</ele>
        <time>2018-01-21T13:17:50Z</time>
      </trkpt>
      <trkpt lat="46.03544089011848" lon="9.404593259096146">
        <ele>1421.45</ele>
        <time>2018-01-21T13:17:54Z</time>
      </trkpt>
      <trkpt lat="46.035486655309796" lon="9.404577501118183">
        <ele>1421.45</ele>
        <time>2018-01-21T13:17:59Z</time>
      </trkpt>
      <trkpt lat="46.035560332238674" lon="9.404480690136552">
        <ele>1423.3699999999999</ele>
        <time>2018-01-21T13:18:10Z</time>
      </trkpt>
      <trkpt lat="46.035670470446348" lon="9.404431656002998">
        <ele>1421.9300000000001</ele>
        <time>2018-01-21T13:18:21Z</time>
      </trkpt>
      <trkpt lat="46.035709781572223" lon="9.404415311291814">
        <ele>1422.4100000000001</ele>
        <time>2018-01-21T13:18:24Z</time>
      </trkpt>
      <trkpt lat="46.035839701071382" lon="9.404405588284135">
        <ele>1422.8900000000001</ele>
        <time>2018-01-21T13:18:36Z</time>
      </trkpt>
      <trkpt lat="46.035876497626305" lon="9.404435930773616">
        <ele>1422.4100000000001</ele>
        <time>2018-01-21T13:18:39Z</time>
      </trkpt>
      <trkpt lat="46.035923268646002" lon="9.404461160302162">
        <ele>1421.45</ele>
        <time>2018-01-21T13:18:43Z</time>
      </trkpt>
      <trkpt lat="46.035967022180557" lon="9.404487144201994">
        <ele>1420.49</ele>
        <time>2018-01-21T13:18:47Z</time>
      </trkpt>
      <trkpt lat="46.036106999963522" lon="9.40447524189949">
        <ele>1418.0799999999999</ele>
        <time>2018-01-21T13:18:58Z</time>
      </trkpt>
      <trkpt lat="46.036139521747828" lon="9.404460825026035">
        <ele>1418.0799999999999</ele>
        <time>2018-01-21T13:19:01Z</time>
      </trkpt>
      <trkpt lat="46.03616944514215" lon="9.404426040127873">
        <ele>1418.0799999999999</ele>
        <time>2018-01-21T13:19:04Z</time>
      </trkpt>
      <trkpt lat="46.036226693540812" lon="9.404415227472782">
        <ele>1418.0799999999999</ele>
        <time>2018-01-21T13:19:10Z</time>
      </trkpt>
      <trkpt lat="46.03627203963697" lon="9.404421513900161">
        <ele>1418.0799999999999</ele>
        <time>2018-01-21T13:19:14Z</time>
      </trkpt>
      <trkpt lat="46.036390056833625" lon="9.404423693194985">
        <ele>1417.5999999999999</ele>
        <time>2018-01-21T13:19:26Z</time>
      </trkpt>
      <trkpt lat="46.036416962742805" lon="9.404402822256088">
        <ele>1417.5999999999999</ele>
        <time>2018-01-21T13:19:29Z</time>
      </trkpt>
      <trkpt lat="46.036490052938461" lon="9.404320931062102">
        <ele>1417.1199999999999</ele>
        <time>2018-01-21T13:19:39Z</time>
      </trkpt>
      <trkpt lat="46.036508660763502" lon="9.404294108971953">
        <ele>1417.1199999999999</ele>
        <time>2018-01-21T13:19:41Z</time>
      </trkpt>
      <trkpt lat="46.036538500338793" lon="9.404264353215694">
        <ele>1416.6400000000001</ele>
        <time>2018-01-21T13:19:44Z</time>
      </trkpt>
      <trkpt lat="46.036563143134117" lon="9.40421137958765">
        <ele>1417.1199999999999</ele>
        <time>2018-01-21T13:19:47Z</time>
      </trkpt>
      <trkpt lat="46.036630533635616" lon="9.404088584706187">
        <ele>1414.72</ele>
        <time>2018-01-21T13:19:56Z</time>
      </trkpt>
      <trkpt lat="46.036643357947469" lon="9.40405891276896">
        <ele>1413.76</ele>
        <time>2018-01-21T13:19:58Z</time>
      </trkpt>
      <trkpt lat="46.036690715700388" lon="9.40404960885644">
        <ele>1414.72</ele>
        <time>2018-01-21T13:20:08Z</time>
      </trkpt>
      <trkpt lat="46.036717621609569" lon="9.40402521751821">
        <ele>1413.76</ele>
        <time>2018-01-21T13:20:17Z</time>
      </trkpt>
      <trkpt lat="46.036755843088031" lon="9.40402077510953">
        <ele>1414.72</ele>
        <time>2018-01-21T13:20:25Z</time>
      </trkpt>
      <trkpt lat="46.036777636036277" lon="9.404025301337242">
        <ele>1415.2</ele>
        <time>2018-01-21T13:20:27Z</time>
      </trkpt>
      <trkpt lat="46.036815186962485" lon="9.404000323265791">
        <ele>1415.2</ele>
        <time>2018-01-21T13:20:31Z</time>
      </trkpt>
      <trkpt lat="46.036863131448627" lon="9.40401054918766">
        <ele>1415.2</ele>
        <time>2018-01-21T13:20:35Z</time>
      </trkpt>
      <trkpt lat="46.036918116733432" lon="9.404025636613369">
        <ele>1415.6800000000001</ele>
        <time>2018-01-21T13:20:39Z</time>
      </trkpt>
      <trkpt lat="46.036969665437937" lon="9.404031336307526">
        <ele>1416.6400000000001</ele>
        <time>2018-01-21T13:20:44Z</time>
      </trkpt>
      <trkpt lat="46.037058429792523" lon="9.404029073193669">
        <ele>1417.5999999999999</ele>
        <time>2018-01-21T13:20:53Z</time>
      </trkpt>
      <trkpt lat="46.037166640162468" lon="9.404000909999013">
        <ele>1418.0799999999999</ele>
        <time>2018-01-21T13:21:02Z</time>
      </trkpt>
      <trkpt lat="46.037188433110714" lon="9.403996467590332">
        <ele>1418.0799999999999</ele>
        <time>2018-01-21T13:21:04Z</time>
      </trkpt>
      <trkpt lat="46.037220451980829" lon="9.403993198648095">
        <ele>1417.5999999999999</ele>
        <time>2018-01-21T13:21:07Z</time>
      </trkpt>
      <trkpt lat="46.037322962656617" lon="9.403971824795008">
        <ele>1416.6400000000001</ele>
        <time>2018-01-21T13:21:17Z</time>
      </trkpt>
      <trkpt lat="46.037366380915046" lon="9.403963023796678">
        <ele>1416.6400000000001</ele>
        <time>2018-01-21T13:21:21Z</time>
      </trkpt>
      <trkpt lat="46.037488337606192" lon="9.403916420415044">
        <ele>1414.24</ele>
        <time>2018-01-21T13:21:32Z</time>
      </trkpt>
      <trkpt lat="46.037522703409195" lon="9.403896639123559">
        <ele>1413.28</ele>
        <time>2018-01-21T13:21:35Z</time>
      </trkpt>
      <trkpt lat="46.037561511620879" lon="9.403869230300188">
        <ele>1413.28</ele>
        <time>2018-01-21T13:21:39Z</time>
      </trkpt>
      <trkpt lat="46.037625465542078" lon="9.403818938881159">
        <ele>1414.24</ele>
        <time>2018-01-21T13:21:45Z</time>
      </trkpt>
      <trkpt lat="46.03764072060585" lon="9.403806952759624">
        <ele>1414.24</ele>
        <time>2018-01-21T13:21:47Z</time>
      </trkpt>
      <trkpt lat="46.037754379212856" lon="9.403778621926904">
        <ele>1413.28</ele>
        <time>2018-01-21T13:21:57Z</time>
      </trkpt>
      <trkpt lat="46.037766952067614" lon="9.403777113184333">
        <ele>1413.28</ele>
        <time>2018-01-21T13:21:58Z</time>
      </trkpt>
      <trkpt lat="46.037793606519699" lon="9.403783399611712">
        <ele>1412.3099999999999</ele>
        <time>2018-01-21T13:22:00Z</time>
      </trkpt>
      <trkpt lat="46.037876671180129" lon="9.403719864785671">
        <ele>1409.9100000000001</ele>
        <time>2018-01-21T13:22:08Z</time>
      </trkpt>
      <trkpt lat="46.037995861843228" lon="9.403729420155287">
        <ele>1407.03</ele>
        <time>2018-01-21T13:22:18Z</time>
      </trkpt>
      <trkpt lat="46.038082614541054" lon="9.403737466782332">
        <ele>1405.0999999999999</ele>
        <time>2018-01-21T13:22:27Z</time>
      </trkpt>
      <trkpt lat="46.038196105509996" lon="9.403764791786671">
        <ele>1403.1800000000001</ele>
        <time>2018-01-21T13:22:36Z</time>
      </trkpt>
      <trkpt lat="46.03823684155941" lon="9.403788261115551">
        <ele>1402.7</ele>
        <time>2018-01-21T13:22:39Z</time>
      </trkpt>
      <trkpt lat="46.038331221789122" lon="9.403880462050438">
        <ele>1400.78</ele>
        <time>2018-01-21T13:22:46Z</time>
      </trkpt>
      <trkpt lat="46.038369527086616" lon="9.403930502012372">
        <ele>1401.26</ele>
        <time>2018-01-21T13:22:50Z</time>
      </trkpt>
      <trkpt lat="46.038437336683273" lon="9.404031420126557">
        <ele>1400.3</ele>
        <time>2018-01-21T13:22:57Z</time>
      </trkpt>
      <trkpt lat="46.038536326959729" lon="9.404113059863448">
        <ele>1400.3</ele>
        <time>2018-01-21T13:23:08Z</time>
      </trkpt>
      <trkpt lat="46.038613189011812" lon="9.404141558334231">
        <ele>1399.3399999999999</ele>
        <time>2018-01-21T13:23:15Z</time>
      </trkpt>
      <trkpt lat="46.038688877597451" lon="9.404139295220375">
        <ele>1398.3699999999999</ele>
        <time>2018-01-21T13:23:22Z</time>
      </trkpt>
      <trkpt lat="46.038757860660553" lon="9.404112054035068">
        <ele>1397.4100000000001</ele>
        <time>2018-01-21T13:23:28Z</time>
      </trkpt>
      <trkpt lat="46.038884511217475" lon="9.404062014073134">
        <ele>1395.49</ele>
        <time>2018-01-21T13:23:39Z</time>
      </trkpt>
      <trkpt lat="46.038900353014469" lon="9.404052291065455">
        <ele>1395.49</ele>
        <time>2018-01-21T13:23:41Z</time>
      </trkpt>
      <trkpt lat="46.038923487067223" lon="9.404052374884486">
        <ele>1395.01</ele>
        <time>2018-01-21T13:23:43Z</time>
      </trkpt>
      <trkpt lat="46.039079055190086" lon="9.404050782322884">
        <ele>1394.05</ele>
        <time>2018-01-21T13:23:56Z</time>
      </trkpt>
      <trkpt lat="46.039089700207114" lon="9.404046759009361">
        <ele>1394.05</ele>
        <time>2018-01-21T13:23:57Z</time>
      </trkpt>
      <trkpt lat="46.039168825373054" lon="9.404009710997343">
        <ele>1394.05</ele>
        <time>2018-01-21T13:24:04Z</time>
      </trkpt>
      <trkpt lat="46.039292039349675" lon="9.403954725712538">
        <ele>1395.97</ele>
        <time>2018-01-21T13:24:16Z</time>
      </trkpt>
      <trkpt lat="46.039288686588407" lon="9.403980206698179">
        <ele>1397.8900000000001</ele>
        <time>2018-01-21T13:24:31Z</time>
      </trkpt>
      <trkpt lat="46.039306707680225" lon="9.404005939140916">
        <ele>1397.8900000000001</ele>
        <time>2018-01-21T13:24:52Z</time>
      </trkpt>
      <trkpt lat="46.039320705458522" lon="9.403985906392336">
        <ele>1397.4100000000001</ele>
        <time>2018-01-21T13:24:54Z</time>
      </trkpt>
      <trkpt lat="46.039371667429805" lon="9.40393628552556">
        <ele>1396.45</ele>
        <time>2018-01-21T13:25:01Z</time>
      </trkpt>
      <trkpt lat="46.039486583322287" lon="9.403882473707199">
        <ele>1395.01</ele>
        <time>2018-01-21T13:25:11Z</time>
      </trkpt>
      <trkpt lat="46.039535701274872" lon="9.403848191723228">
        <ele>1394.05</ele>
        <time>2018-01-21T13:25:16Z</time>
      </trkpt>
      <trkpt lat="46.039579370990396" lon="9.403828326612711">
        <ele>1393.5699999999999</ele>
        <time>2018-01-21T13:25:21Z</time>
      </trkpt>
      <trkpt lat="46.03960937820375" lon="9.403814161196351">
        <ele>1393.0899999999999</ele>
        <time>2018-01-21T13:25:24Z</time>
      </trkpt>
      <trkpt lat="46.039657993242145" lon="9.403787674382329">
        <ele>1392.6099999999999</ele>
        <time>2018-01-21T13:25:28Z</time>
      </trkpt>
      <trkpt lat="46.039721192792058" lon="9.403751464560628">
        <ele>1391.6500000000001</ele>
        <time>2018-01-21T13:25:35Z</time>
      </trkpt>
      <trkpt lat="46.03981900960207" lon="9.403708046302199">
        <ele>1390.2</ele>
        <time>2018-01-21T13:25:45Z</time>
      </trkpt>
      <trkpt lat="46.039829403162003" lon="9.403700334951282">
        <ele>1390.2</ele>
        <time>2018-01-21T13:25:46Z</time>
      </trkpt>
      <trkpt lat="46.039849519729614" lon="9.403694216161966">
        <ele>1389.24</ele>
        <time>2018-01-21T13:25:48Z</time>
      </trkpt>
      <trkpt lat="46.039941553026438" lon="9.403676362708211">
        <ele>1387.8</ele>
        <time>2018-01-21T13:25:55Z</time>
      </trkpt>
      <trkpt lat="46.039986731484532" lon="9.403670746833086">
        <ele>1387.3199999999999</ele>
        <time>2018-01-21T13:25:59Z</time>
      </trkpt>
      <trkpt lat="46.04012100957334" lon="9.403723385185003">
        <ele>1385.4000000000001</ele>
        <time>2018-01-21T13:26:10Z</time>
      </trkpt>
      <trkpt lat="46.040181946009398" lon="9.40376915037632">
        <ele>1384.4400000000001</ele>
        <time>2018-01-21T13:26:15Z</time>
      </trkpt>
      <trkpt lat="46.040224023163319" lon="9.403847940266132">
        <ele>1383.47</ele>
        <time>2018-01-21T13:26:20Z</time>
      </trkpt>
      <trkpt lat="46.040238607674837" lon="9.403876103460789">
        <ele>1383.47</ele>
        <time>2018-01-21T13:26:22Z</time>
      </trkpt>
      <trkpt lat="46.040261825546622" lon="9.40393477678299">
        <ele>1383.47</ele>
        <time>2018-01-21T13:26:27Z</time>
      </trkpt>
      <trkpt lat="46.040334412828088" lon="9.403963442891836">
        <ele>1387.3199999999999</ele>
        <time>2018-01-21T13:26:35Z</time>
      </trkpt>
      <trkpt lat="46.040368862450123" lon="9.403982888907194">
        <ele>1385.4000000000001</ele>
        <time>2018-01-21T13:26:39Z</time>
      </trkpt>
      <trkpt lat="46.040396606549621" lon="9.403983810916543">
        <ele>1386.8399999999999</ele>
        <time>2018-01-21T13:26:43Z</time>
      </trkpt>
      <trkpt lat="46.040466343984008" lon="9.403961095958948">
        <ele>1386.3599999999999</ele>
        <time>2018-01-21T13:26:50Z</time>
      </trkpt>
      <trkpt lat="46.040490232408047" lon="9.403954641893506">
        <ele>1385.8800000000001</ele>
        <time>2018-01-21T13:26:52Z</time>
      </trkpt>
      <trkpt lat="46.040528370067477" lon="9.403938632458448">
        <ele>1385.4000000000001</ele>
        <time>2018-01-21T13:26:56Z</time>
      </trkpt>
      <trkpt lat="46.040566675364971" lon="9.40391574986279">
        <ele>1383.96</ele>
        <time>2018-01-21T13:27:00Z</time>
      </trkpt>
      <trkpt lat="46.040595257654786" lon="9.403890017420054">
        <ele>1384.9200000000001</ele>
        <time>2018-01-21T13:27:03Z</time>
      </trkpt>
      <trkpt lat="46.040623169392347" lon="9.403850203379989">
        <ele>1384.9200000000001</ele>
        <time>2018-01-21T13:27:07Z</time>
      </trkpt>
      <trkpt lat="46.040640771389008" lon="9.403836037963629">
        <ele>1384.4400000000001</ele>
        <time>2018-01-21T13:27:09Z</time>
      </trkpt>
      <trkpt lat="46.040711095556617" lon="9.403774850070477">
        <ele>1382.03</ele>
        <time>2018-01-21T13:27:16Z</time>
      </trkpt>
      <trkpt lat="46.040741857141256" lon="9.403745261952281">
        <ele>1382.99</ele>
        <time>2018-01-21T13:27:20Z</time>
      </trkpt>
      <trkpt lat="46.040779491886497" lon="9.403724642470479">
        <ele>1382.99</ele>
        <time>2018-01-21T13:27:24Z</time>
      </trkpt>
      <trkpt lat="46.040802039206028" lon="9.4036924559623">
        <ele>1382.99</ele>
        <time>2018-01-21T13:27:27Z</time>
      </trkpt>
      <trkpt lat="46.040816204622388" lon="9.403658090159297">
        <ele>1383.47</ele>
        <time>2018-01-21T13:27:30Z</time>
      </trkpt>
      <trkpt lat="46.040831711143255" lon="9.403625903651118">
        <ele>1382.51</ele>
        <time>2018-01-21T13:27:33Z</time>
      </trkpt>
      <trkpt lat="46.040836740285158" lon="9.403588017448783">
        <ele>1381.0699999999999</ele>
        <time>2018-01-21T13:27:36Z</time>
      </trkpt>
      <trkpt lat="46.040833219885826" lon="9.403580725193024">
        <ele>1380.5899999999999</ele>
        <time>2018-01-21T13:27:37Z</time>
      </trkpt>
      <trkpt lat="46.040825843811035" lon="9.403603943064809">
        <ele>1381.55</ele>
        <time>2018-01-21T13:27:48Z</time>
      </trkpt>
      <trkpt lat="46.040827771648765" lon="9.403604865074158">
        <ele>1381.55</ele>
        <time>2018-01-21T13:27:50Z</time>
      </trkpt>
      <trkpt lat="46.04079432785511" lon="9.403575863689184">
        <ele>1381.0699999999999</ele>
        <time>2018-01-21T13:27:55Z</time>
      </trkpt>
      <trkpt lat="46.040764655917883" lon="9.403540575876832">
        <ele>1381.0699999999999</ele>
        <time>2018-01-21T13:28:07Z</time>
      </trkpt>
      <trkpt lat="46.040773121640086" lon="9.403544263914228">
        <ele>1381.55</ele>
        <time>2018-01-21T13:28:09Z</time>
      </trkpt>
      <trkpt lat="46.040772115811706" lon="9.403602937236428">
        <ele>1381.55</ele>
        <time>2018-01-21T13:28:12Z</time>
      </trkpt>
      <trkpt lat="46.040818719193339" lon="9.403659431263804">
        <ele>1381.55</ele>
        <time>2018-01-21T13:28:17Z</time>
      </trkpt>
      <trkpt lat="46.040881499648094" lon="9.403700921684504">
        <ele>1382.03</ele>
        <time>2018-01-21T13:28:23Z</time>
      </trkpt>
      <trkpt lat="46.040899939835072" lon="9.403716428205371">
        <ele>1381.0699999999999</ele>
        <time>2018-01-21T13:28:25Z</time>
      </trkpt>
      <trkpt lat="46.040919134393334" lon="9.403708130121231">
        <ele>1380.5899999999999</ele>
        <time>2018-01-21T13:28:27Z</time>
      </trkpt>
      <trkpt lat="46.040958194062114" lon="9.403710728511214">
        <ele>1379.6300000000001</ele>
        <time>2018-01-21T13:28:38Z</time>
      </trkpt>
      <trkpt lat="46.040979651734233" lon="9.403687762096524">
        <ele>1379.1500000000001</ele>
        <time>2018-01-21T13:28:48Z</time>
      </trkpt>
      <trkpt lat="46.041091717779636" lon="9.403635123744607">
        <ele>1379.6300000000001</ele>
        <time>2018-01-21T13:28:58Z</time>
      </trkpt>
      <trkpt lat="46.041185343638062" lon="9.403597991913557">
        <ele>1376.26</ele>
        <time>2018-01-21T13:29:06Z</time>
      </trkpt>
      <trkpt lat="46.04125801473856" lon="9.403569996356964">
        <ele>1374.8199999999999</ele>
        <time>2018-01-21T13:29:12Z</time>
      </trkpt>
      <trkpt lat="46.041381899267435" lon="9.403515178710222">
        <ele>1372.9000000000001</ele>
        <time>2018-01-21T13:29:22Z</time>
      </trkpt>
      <trkpt lat="46.041511483490467" lon="9.403442507609725">
        <ele>1370.5</ele>
        <time>2018-01-21T13:29:33Z</time>
      </trkpt>
      <trkpt lat="46.041523218154907" lon="9.403438065201044">
        <ele>1370.5</ele>
        <time>2018-01-21T13:29:34Z</time>
      </trkpt>
      <trkpt lat="46.041644252836704" lon="9.40335432998836">
        <ele>1368.0899999999999</ele>
        <time>2018-01-21T13:29:45Z</time>
      </trkpt>
      <trkpt lat="46.041715079918504" lon="9.403310408815742">
        <ele>1367.1300000000001</ele>
        <time>2018-01-21T13:29:52Z</time>
      </trkpt>
      <trkpt lat="46.041840305551887" lon="9.403223153203726">
        <ele>1365.21</ele>
        <time>2018-01-21T13:30:03Z</time>
      </trkpt>
      <trkpt lat="46.041879113763571" lon="9.403201779350638">
        <ele>1364.25</ele>
        <time>2018-01-21T13:30:06Z</time>
      </trkpt>
      <trkpt lat="46.042010877281427" lon="9.403125084936619">
        <ele>1362.3299999999999</ele>
        <time>2018-01-21T13:30:18Z</time>
      </trkpt>
      <trkpt lat="46.042040046304464" lon="9.403090216219425">
        <ele>1362.8099999999999</ele>
        <time>2018-01-21T13:30:28Z</time>
      </trkpt>
      <trkpt lat="46.042143814265728" lon="9.403022238984704">
        <ele>1360.8800000000001</ele>
        <time>2018-01-21T13:30:38Z</time>
      </trkpt>
      <trkpt lat="46.04221967048943" lon="9.40298980101943">
        <ele>1360.4000000000001</ele>
        <time>2018-01-21T13:30:45Z</time>
      </trkpt>
      <trkpt lat="46.042326036840677" lon="9.402909837663174">
        <ele>1360.8800000000001</ele>
        <time>2018-01-21T13:30:56Z</time>
      </trkpt>
      <trkpt lat="46.042394852265716" lon="9.40283196978271">
        <ele>1360.8800000000001</ele>
        <time>2018-01-21T13:31:04Z</time>
      </trkpt>
      <trkpt lat="46.042502727359533" lon="9.402786707505584">
        <ele>1361.3599999999999</ele>
        <time>2018-01-21T13:31:15Z</time>
      </trkpt>
      <trkpt lat="46.042512701824307" lon="9.402776397764683">
        <ele>1361.8399999999999</ele>
        <time>2018-01-21T13:31:16Z</time>
      </trkpt>
      <trkpt lat="46.042536422610283" lon="9.402768015861511">
        <ele>1361.8399999999999</ele>
        <time>2018-01-21T13:31:18Z</time>
      </trkpt>
      <trkpt lat="46.042647399008274" lon="9.40267464146018">
        <ele>1360.4000000000001</ele>
        <time>2018-01-21T13:31:30Z</time>
      </trkpt>
      <trkpt lat="46.042644381523132" lon="9.40267070196569">
        <ele>1359.4400000000001</ele>
        <time>2018-01-21T13:31:38Z</time>
      </trkpt>
      <trkpt lat="46.042656870558858" lon="9.402690818533301">
        <ele>1358.48</ele>
        <time>2018-01-21T13:31:48Z</time>
      </trkpt>
      <trkpt lat="46.042664498090744" lon="9.402720909565687">
        <ele>1358</ele>
        <time>2018-01-21T13:32:05Z</time>
      </trkpt>
      <trkpt lat="46.042666928842664" lon="9.402714958414435">
        <ele>1357.52</ele>
        <time>2018-01-21T13:32:26Z</time>
      </trkpt>
      <trkpt lat="46.042680507525802" lon="9.402713533490896">
        <ele>1357.04</ele>
        <time>2018-01-21T13:32:44Z</time>
      </trkpt>
      <trkpt lat="46.042681932449341" lon="9.402713533490896">
        <ele>1357.04</ele>
        <time>2018-01-21T13:32:56Z</time>
      </trkpt>
      <trkpt lat="46.042672293260694" lon="9.402696099132299">
        <ele>1358.48</ele>
        <time>2018-01-21T13:33:05Z</time>
      </trkpt>
    </trkseg>
  </trk>

</gpx>